Wetterdaten: Freitag, 17.03.2023
Datum Zeit Temp. I. Temp. A. Feuchte I. Feuchte A. Luftdruck Regen Wind Richtung Richtung Sonnenschein Solar Taupunkt Windchill Windböen
17.03.2023 00:00 22,2 °C 4,4 °C 48 % 70 % 1016,9 hPa 0,0 l/m² 12,9 km/h (3 Bft) O-SO 112 ° 0 min 0 W/m² -0,6 °C -0,5 °C 17,7 km/h (3 Bft)
17.03.2023 00:01 22,2 °C 4,3 °C 48 % 70 % 1016,9 hPa 0,0 l/m² 12,9 km/h (3 Bft) O-SO 112 ° 0 min 0 W/m² -0,7 °C -0,6 °C 16,1 km/h (3 Bft)
17.03.2023 00:02 22,2 °C 4,3 °C 48 % 70 % 1016,8 hPa 0,0 l/m² 14,5 km/h (3 Bft) O-SO 112 ° 0 min 0 W/m² -0,7 °C -1,5 °C 16,1 km/h (3 Bft)
17.03.2023 00:03 22,2 °C 4,4 °C 48 % 70 % 1016,8 hPa 0,0 l/m² 14,5 km/h (3 Bft) O-SO 112 ° 0 min 0 W/m² -0,6 °C -1,4 °C 20,9 km/h (4 Bft)
17.03.2023 00:04 22,2 °C 4,4 °C 48 % 70 % 1016,8 hPa 0,0 l/m² 12,9 km/h (3 Bft) O-SO 112 ° 0 min 0 W/m² -0,6 °C -0,5 °C 16,1 km/h (3 Bft)
17.03.2023 00:05 22,2 °C 4,4 °C 48 % 70 % 1016,7 hPa 0,0 l/m² 14,5 km/h (3 Bft) O-SO 112 ° 0 min 0 W/m² -0,6 °C -1,4 °C 17,7 km/h (3 Bft)
17.03.2023 00:06 22,2 °C 4,4 °C 48 % 70 % 1016,8 hPa 0,0 l/m² 12,9 km/h (3 Bft) O-SO 112 ° 0 min 0 W/m² -0,6 °C -0,5 °C 14,5 km/h (3 Bft)
17.03.2023 00:07 22,2 °C 4,3 °C 48 % 70 % 1016,8 hPa 0,0 l/m² 14,5 km/h (3 Bft) O-SO 112 ° 0 min 0 W/m² -0,7 °C -1,5 °C 20,9 km/h (4 Bft)
17.03.2023 00:08 22,2 °C 4,4 °C 48 % 70 % 1016,8 hPa 0,0 l/m² 16,1 km/h (3 Bft) O-SO 112 ° 0 min 0 W/m² -0,6 °C -2,2 °C 20,9 km/h (4 Bft)
17.03.2023 00:09 22,2 °C 4,4 °C 48 % 70 % 1016,8 hPa 0,0 l/m² 14,5 km/h (3 Bft) O-SO 112 ° 0 min 0 W/m² -0,6 °C -1,4 °C 17,7 km/h (3 Bft)
17.03.2023 00:10 22,2 °C 4,4 °C 48 % 70 % 1016,8 hPa 0,0 l/m² 14,5 km/h (3 Bft) O-SO 112 ° 0 min 0 W/m² -0,6 °C -1,4 °C 17,7 km/h (3 Bft)
17.03.2023 00:11 22,2 °C 4,4 °C 48 % 70 % 1016,8 hPa 0,0 l/m² 14,5 km/h (3 Bft) O-SO 112 ° 0 min 0 W/m² -0,6 °C -1,4 °C 17,7 km/h (3 Bft)
17.03.2023 00:12 22,2 °C 4,4 °C 48 % 70 % 1016,8 hPa 0,0 l/m² 12,9 km/h (3 Bft) O-SO 112 ° 0 min 0 W/m² -0,6 °C -0,5 °C 14,5 km/h (3 Bft)
17.03.2023 00:13 22,2 °C 4,4 °C 48 % 70 % 1016,8 hPa 0,0 l/m² 16,1 km/h (3 Bft) O-SO 112 ° 0 min 0 W/m² -0,6 °C -2,2 °C 19,3 km/h (3 Bft)
17.03.2023 00:14 22,2 °C 4,4 °C 48 % 70 % 1016,7 hPa 0,0 l/m² 11,3 km/h (2 Bft) O-SO 112 ° 0 min 0 W/m² -0,6 °C 0,5 °C 17,7 km/h (3 Bft)
17.03.2023 00:15 22,2 °C 4,4 °C 48 % 70 % 1016,7 hPa 0,0 l/m² 16,1 km/h (3 Bft) O-SO 112 ° 0 min 0 W/m² -0,6 °C -2,2 °C 19,3 km/h (3 Bft)
17.03.2023 00:16 22,1 °C 4,4 °C 48 % 70 % 1016,7 hPa 0,0 l/m² 17,7 km/h (3 Bft) O-SO 112 ° 0 min 0 W/m² -0,6 °C -3,0 °C 19,3 km/h (3 Bft)
17.03.2023 00:17 22,1 °C 4,4 °C 48 % 70 % 1016,7 hPa 0,0 l/m² 14,5 km/h (3 Bft) O-SO 112 ° 0 min 0 W/m² -0,6 °C -1,4 °C 17,7 km/h (3 Bft)
17.03.2023 00:18 22,1 °C 4,4 °C 48 % 70 % 1016,7 hPa 0,0 l/m² 12,9 km/h (3 Bft) O-SO 112 ° 0 min 0 W/m² -0,6 °C -0,5 °C 16,1 km/h (3 Bft)
17.03.2023 00:19 22,1 °C 4,4 °C 48 % 70 % 1016,7 hPa 0,0 l/m² 17,7 km/h (3 Bft) O-SO 112 ° 0 min 0 W/m² -0,6 °C -3,0 °C 20,9 km/h (4 Bft)
17.03.2023 00:20 22,1 °C 4,4 °C 48 % 70 % 1016,7 hPa 0,0 l/m² 16,1 km/h (3 Bft) O-SO 112 ° 0 min 0 W/m² -0,6 °C -2,2 °C 20,9 km/h (4 Bft)
17.03.2023 00:21 22,1 °C 4,5 °C 48 % 69 % 1016,7 hPa 0,0 l/m² 14,5 km/h (3 Bft) O-SO 112 ° 0 min 0 W/m² -0,7 °C -1,3 °C 19,3 km/h (3 Bft)
17.03.2023 00:22 22,1 °C 4,6 °C 48 % 69 % 1016,6 hPa 0,0 l/m² 14,5 km/h (3 Bft) O-SO 112 ° 0 min 0 W/m² -0,6 °C -1,1 °C 19,3 km/h (3 Bft)
17.03.2023 00:23 22,1 °C 4,6 °C 48 % 69 % 1016,7 hPa 0,0 l/m² 14,5 km/h (3 Bft) O-SO 112 ° 0 min 0 W/m² -0,6 °C -1,1 °C 17,7 km/h (3 Bft)
17.03.2023 00:24 22,1 °C 4,6 °C 48 % 69 % 1016,7 hPa 0,0 l/m² 11,3 km/h (2 Bft) O-SO 112 ° 0 min 0 W/m² -0,6 °C 0,7 °C 14,5 km/h (3 Bft)
17.03.2023 00:25 22,1 °C 4,6 °C 48 % 69 % 1016,6 hPa 0,0 l/m² 12,9 km/h (3 Bft) O-SO 112 ° 0 min 0 W/m² -0,6 °C -0,2 °C 16,1 km/h (3 Bft)
17.03.2023 00:26 22,1 °C 4,6 °C 48 % 69 % 1016,6 hPa 0,0 l/m² 12,9 km/h (3 Bft) O-SO 112 ° 0 min 0 W/m² -0,6 °C -0,2 °C 14,5 km/h (3 Bft)
17.03.2023 00:27 22,1 °C 4,6 °C 48 % 69 % 1016,5 hPa 0,0 l/m² 12,9 km/h (3 Bft) O-SO 112 ° 0 min 0 W/m² -0,6 °C -0,2 °C 16,1 km/h (3 Bft)
17.03.2023 00:28 22,1 °C 4,5 °C 48 % 69 % 1016,5 hPa 0,0 l/m² 12,9 km/h (3 Bft) O-SO 112 ° 0 min 0 W/m² -0,7 °C -0,4 °C 16,1 km/h (3 Bft)
17.03.2023 00:29 22,1 °C 4,5 °C 48 % 69 % 1016,5 hPa 0,0 l/m² 11,3 km/h (2 Bft) O-SO 112 ° 0 min 0 W/m² -0,7 °C 0,6 °C 12,9 km/h (3 Bft)
17.03.2023 00:30 22,1 °C 4,5 °C 48 % 69 % 1016,6 hPa 0,0 l/m² 11,3 km/h (2 Bft) O-SO 112 ° 0 min 0 W/m² -0,7 °C 0,6 °C 14,5 km/h (3 Bft)
17.03.2023 00:31 22,1 °C 4,5 °C 48 % 69 % 1016,5 hPa 0,0 l/m² 14,5 km/h (3 Bft) O-SO 112 ° 0 min 0 W/m² -0,7 °C -1,3 °C 17,7 km/h (3 Bft)
17.03.2023 00:32 22,1 °C 4,5 °C 48 % 69 % 1016,5 hPa 0,0 l/m² 14,5 km/h (3 Bft) O-SO 112 ° 0 min 0 W/m² -0,7 °C -1,3 °C 17,7 km/h (3 Bft)
17.03.2023 00:33 22,1 °C 4,5 °C 48 % 69 % 1016,6 hPa 0,0 l/m² 14,5 km/h (3 Bft) O-SO 112 ° 0 min 0 W/m² -0,7 °C -1,3 °C 16,1 km/h (3 Bft)
17.03.2023 00:34 22,1 °C 4,5 °C 48 % 69 % 1016,4 hPa 0,0 l/m² 14,5 km/h (3 Bft) O-SO 112 ° 0 min 0 W/m² -0,7 °C -1,3 °C 20,9 km/h (4 Bft)
17.03.2023 00:35 22,1 °C 4,6 °C 48 % 69 % 1016,5 hPa 0,0 l/m² 11,3 km/h (2 Bft) O-SO 112 ° 0 min 0 W/m² -0,6 °C 0,7 °C 14,5 km/h (3 Bft)
17.03.2023 00:36 22,1 °C 4,5 °C 48 % 69 % 1016,6 hPa 0,0 l/m² 14,5 km/h (3 Bft) O-SO 112 ° 0 min 0 W/m² -0,7 °C -1,3 °C 17,7 km/h (3 Bft)
17.03.2023 00:37 22,1 °C 4,5 °C 48 % 69 % 1016,5 hPa 0,0 l/m² 12,9 km/h (3 Bft) O-SO 112 ° 0 min 0 W/m² -0,7 °C -0,4 °C 17,7 km/h (3 Bft)
17.03.2023 00:38 22,1 °C 4,4 °C 48 % 70 % 1016,5 hPa 0,0 l/m² 12,9 km/h (3 Bft) O-SO 112 ° 0 min 0 W/m² -0,6 °C -0,5 °C 14,5 km/h (3 Bft)
17.03.2023 00:39 22,1 °C 4,5 °C 48 % 70 % 1016,4 hPa 0,0 l/m² 12,9 km/h (3 Bft) O-SO 112 ° 0 min 0 W/m² -0,5 °C -0,4 °C 16,1 km/h (3 Bft)
17.03.2023 00:40 22,1 °C 4,4 °C 48 % 70 % 1016,4 hPa 0,0 l/m² 14,5 km/h (3 Bft) O-SO 112 ° 0 min 0 W/m² -0,6 °C -1,4 °C 17,7 km/h (3 Bft)
17.03.2023 00:41 22,1 °C 4,5 °C 48 % 69 % 1016,4 hPa 0,0 l/m² 12,9 km/h (3 Bft) O-SO 112 ° 0 min 0 W/m² -0,7 °C -0,4 °C 16,1 km/h (3 Bft)
17.03.2023 00:42 22,1 °C 4,5 °C 48 % 69 % 1016,4 hPa 0,0 l/m² 12,9 km/h (3 Bft) O-SO 112 ° 0 min 0 W/m² -0,7 °C -0,4 °C 16,1 km/h (3 Bft)
17.03.2023 00:43 22,1 °C 4,4 °C 48 % 69 % 1016,4 hPa 0,0 l/m² 16,1 km/h (3 Bft) O-SO 112 ° 0 min 0 W/m² -0,8 °C -2,2 °C 17,7 km/h (3 Bft)
17.03.2023 00:44 22,1 °C 4,4 °C 48 % 69 % 1016,4 hPa 0,0 l/m² 14,5 km/h (3 Bft) O-SO 112 ° 0 min 0 W/m² -0,8 °C -1,4 °C 17,7 km/h (3 Bft)
17.03.2023 00:45 22,1 °C 4,4 °C 48 % 69 % 1016,4 hPa 0,0 l/m² 14,5 km/h (3 Bft) O-SO 112 ° 0 min 0 W/m² -0,8 °C -1,4 °C 19,3 km/h (3 Bft)
17.03.2023 00:46 22,1 °C 4,5 °C 48 % 69 % 1016,4 hPa 0,0 l/m² 14,5 km/h (3 Bft) O-SO 112 ° 0 min 0 W/m² -0,7 °C -1,3 °C 17,7 km/h (3 Bft)
17.03.2023 00:47 22,0 °C 4,4 °C 48 % 69 % 1016,4 hPa 0,0 l/m² 12,9 km/h (3 Bft) O-SO 112 ° 0 min 0 W/m² -0,8 °C -0,5 °C 16,1 km/h (3 Bft)
17.03.2023 00:48 22,0 °C 4,4 °C 48 % 69 % 1016,4 hPa 0,0 l/m² 14,5 km/h (3 Bft) O-SO 112 ° 0 min 0 W/m² -0,8 °C -1,4 °C 19,3 km/h (3 Bft)
17.03.2023 00:49 22,1 °C 4,4 °C 48 % 69 % 1016,4 hPa 0,0 l/m² 14,5 km/h (3 Bft) O-SO 112 ° 0 min 0 W/m² -0,8 °C -1,4 °C 16,1 km/h (3 Bft)
17.03.2023 00:50 22,0 °C 4,5 °C 48 % 69 % 1016,4 hPa 0,0 l/m² 12,9 km/h (3 Bft) O-SO 112 ° 0 min 0 W/m² -0,7 °C -0,4 °C 16,1 km/h (3 Bft)
17.03.2023 00:51 22,1 °C 4,4 °C 48 % 69 % 1016,4 hPa 0,0 l/m² 12,9 km/h (3 Bft) O-SO 112 ° 0 min 0 W/m² -0,8 °C -0,5 °C 16,1 km/h (3 Bft)
17.03.2023 00:52 22,0 °C 4,4 °C 48 % 69 % 1016,4 hPa 0,0 l/m² 11,3 km/h (2 Bft) O-SO 112 ° 0 min 0 W/m² -0,8 °C 0,5 °C 14,5 km/h (3 Bft)
17.03.2023 00:53 22,0 °C 4,5 °C 48 % 69 % 1016,4 hPa 0,0 l/m² 12,9 km/h (3 Bft) O-SO 112 ° 0 min 0 W/m² -0,7 °C -0,4 °C 16,1 km/h (3 Bft)
17.03.2023 00:54 22,0 °C 4,4 °C 48 % 69 % 1016,4 hPa 0,0 l/m² 11,3 km/h (2 Bft) O-SO 112 ° 0 min 0 W/m² -0,8 °C 0,5 °C 16,1 km/h (3 Bft)
17.03.2023 00:55 22,0 °C 4,4 °C 48 % 69 % 1016,4 hPa 0,0 l/m² 11,3 km/h (2 Bft) O-SO 112 ° 0 min 0 W/m² -0,8 °C 0,5 °C 16,1 km/h (3 Bft)
17.03.2023 00:56 22,0 °C 4,4 °C 48 % 69 % 1016,4 hPa 0,0 l/m² 12,9 km/h (3 Bft) O-SO 112 ° 0 min 0 W/m² -0,8 °C -0,5 °C 17,7 km/h (3 Bft)
17.03.2023 00:57 22,0 °C 4,4 °C 48 % 69 % 1016,3 hPa 0,0 l/m² 11,3 km/h (2 Bft) O-SO 112 ° 0 min 0 W/m² -0,8 °C 0,5 °C 16,1 km/h (3 Bft)
17.03.2023 00:58 22,0 °C 4,4 °C 48 % 70 % 1016,4 hPa 0,0 l/m² 12,9 km/h (3 Bft) O-SO 112 ° 0 min 0 W/m² -0,6 °C -0,5 °C 19,3 km/h (3 Bft)
17.03.2023 00:59 22,0 °C 4,4 °C 48 % 70 % 1016,3 hPa 0,0 l/m² 12,9 km/h (3 Bft) O-SO 112 ° 0 min 0 W/m² -0,6 °C -0,5 °C 14,5 km/h (3 Bft)
17.03.2023 01:00 22,0 °C 4,4 °C 48 % 70 % 1016,3 hPa 0,0 l/m² 16,1 km/h (3 Bft) O-SO 112 ° 0 min 0 W/m² -0,6 °C -2,2 °C 20,9 km/h (4 Bft)
17.03.2023 01:01 21,9 °C 4,4 °C 48 % 70 % 1016,4 hPa 0,0 l/m² 14,5 km/h (3 Bft) O-SO 112 ° 0 min 0 W/m² -0,6 °C -1,4 °C 19,3 km/h (3 Bft)
17.03.2023 01:02 22,0 °C 4,4 °C 48 % 70 % 1016,4 hPa 0,0 l/m² 12,9 km/h (3 Bft) O-SO 112 ° 0 min 0 W/m² -0,6 °C -0,5 °C 17,7 km/h (3 Bft)
17.03.2023 01:03 22,0 °C 4,4 °C 48 % 70 % 1016,4 hPa 0,0 l/m² 11,3 km/h (2 Bft) O-SO 112 ° 0 min 0 W/m² -0,6 °C 0,5 °C 16,1 km/h (3 Bft)
17.03.2023 01:04 21,9 °C 4,3 °C 48 % 70 % 1016,3 hPa 0,0 l/m² 11,3 km/h (2 Bft) O-SO 112 ° 0 min 0 W/m² -0,7 °C 0,4 °C 16,1 km/h (3 Bft)
17.03.2023 01:05 22,0 °C 4,3 °C 48 % 70 % 1016,3 hPa 0,0 l/m² 12,9 km/h (3 Bft) O-SO 112 ° 0 min 0 W/m² -0,7 °C -0,6 °C 17,7 km/h (3 Bft)
17.03.2023 01:06 22,0 °C 4,3 °C 48 % 70 % 1016,3 hPa 0,0 l/m² 12,9 km/h (3 Bft) O-SO 112 ° 0 min 0 W/m² -0,7 °C -0,6 °C 17,7 km/h (3 Bft)
17.03.2023 01:07 22,0 °C 4,3 °C 48 % 70 % 1016,3 hPa 0,0 l/m² 12,9 km/h (3 Bft) O-SO 112 ° 0 min 0 W/m² -0,7 °C -0,6 °C 14,5 km/h (3 Bft)
17.03.2023 01:08 21,9 °C 4,3 °C 48 % 70 % 1016,2 hPa 0,0 l/m² 14,5 km/h (3 Bft) O-SO 112 ° 0 min 0 W/m² -0,7 °C -1,5 °C 17,7 km/h (3 Bft)
17.03.2023 01:09 22,0 °C 4,3 °C 48 % 70 % 1016,2 hPa 0,0 l/m² 12,9 km/h (3 Bft) O-SO 112 ° 0 min 0 W/m² -0,7 °C -0,6 °C 17,7 km/h (3 Bft)
17.03.2023 01:10 21,9 °C 4,3 °C 48 % 70 % 1016,3 hPa 0,0 l/m² 14,5 km/h (3 Bft) O-SO 112 ° 0 min 0 W/m² -0,7 °C -1,5 °C 17,7 km/h (3 Bft)
17.03.2023 01:11 22,0 °C 4,3 °C 48 % 70 % 1016,2 hPa 0,0 l/m² 11,3 km/h (2 Bft) O-SO 112 ° 0 min 0 W/m² -0,7 °C 0,4 °C 14,5 km/h (3 Bft)
17.03.2023 01:12 21,9 °C 4,3 °C 48 % 70 % 1016,2 hPa 0,0 l/m² 14,5 km/h (3 Bft) O-SO 112 ° 0 min 0 W/m² -0,7 °C -1,5 °C 19,3 km/h (3 Bft)
17.03.2023 01:13 21,9 °C 4,3 °C 48 % 70 % 1016,2 hPa 0,0 l/m² 14,5 km/h (3 Bft) O-SO 112 ° 0 min 0 W/m² -0,7 °C -1,5 °C 17,7 km/h (3 Bft)
17.03.2023 01:14 21,9 °C 4,3 °C 48 % 70 % 1016,2 hPa 0,0 l/m² 12,9 km/h (3 Bft) O-SO 112 ° 0 min 0 W/m² -0,7 °C -0,6 °C 17,7 km/h (3 Bft)
17.03.2023 01:15 21,9 °C 4,3 °C 48 % 70 % 1016,2 hPa 0,0 l/m² 14,5 km/h (3 Bft) O-SO 112 ° 0 min 0 W/m² -0,7 °C -1,5 °C 20,9 km/h (4 Bft)
17.03.2023 01:16 21,9 °C 4,3 °C 48 % 70 % 1016,2 hPa 0,0 l/m² 16,1 km/h (3 Bft) O-SO 112 ° 0 min 0 W/m² -0,7 °C -2,3 °C 20,9 km/h (4 Bft)
17.03.2023 01:17 21,9 °C 4,3 °C 48 % 70 % 1016,2 hPa 0,0 l/m² 12,9 km/h (3 Bft) O-SO 112 ° 0 min 0 W/m² -0,7 °C -0,6 °C 16,1 km/h (3 Bft)
17.03.2023 01:18 21,9 °C 4,4 °C 48 % 70 % 1016,1 hPa 0,0 l/m² 17,7 km/h (3 Bft) O-SO 112 ° 0 min 0 W/m² -0,6 °C -3,0 °C 24,1 km/h (4 Bft)
17.03.2023 01:19 21,9 °C 4,4 °C 48 % 70 % 1016,1 hPa 0,0 l/m² 16,1 km/h (3 Bft) O-SO 112 ° 0 min 0 W/m² -0,6 °C -2,2 °C 20,9 km/h (4 Bft)
17.03.2023 01:20 21,9 °C 4,4 °C 48 % 70 % 1016,1 hPa 0,0 l/m² 12,9 km/h (3 Bft) O-SO 112 ° 0 min 0 W/m² -0,6 °C -0,5 °C 24,1 km/h (4 Bft)
17.03.2023 01:21 21,9 °C 4,4 °C 48 % 70 % 1016,1 hPa 0,0 l/m² 11,3 km/h (2 Bft) O-SO 112 ° 0 min 0 W/m² -0,6 °C 0,5 °C 17,7 km/h (3 Bft)
17.03.2023 01:22 21,9 °C 4,4 °C 48 % 70 % 1016,0 hPa 0,0 l/m² 14,5 km/h (3 Bft) O-SO 112 ° 0 min 0 W/m² -0,6 °C -1,4 °C 17,7 km/h (3 Bft)
17.03.2023 01:23 21,9 °C 4,4 °C 48 % 70 % 1016,1 hPa 0,0 l/m² 16,1 km/h (3 Bft) O-SO 112 ° 0 min 0 W/m² -0,6 °C -2,2 °C 19,3 km/h (3 Bft)
17.03.2023 01:24 21,9 °C 4,4 °C 48 % 70 % 1016,0 hPa 0,0 l/m² 14,5 km/h (3 Bft) O-SO 112 ° 0 min 0 W/m² -0,6 °C -1,4 °C 17,7 km/h (3 Bft)
17.03.2023 01:25 21,9 °C 4,4 °C 48 % 70 % 1016,1 hPa 0,0 l/m² 14,5 km/h (3 Bft) O-SO 112 ° 0 min 0 W/m² -0,6 °C -1,4 °C 17,7 km/h (3 Bft)
17.03.2023 01:26 21,9 °C 4,4 °C 48 % 70 % 1016,1 hPa 0,0 l/m² 14,5 km/h (3 Bft) O-SO 112 ° 0 min 0 W/m² -0,6 °C -1,4 °C 16,1 km/h (3 Bft)
17.03.2023 01:27 21,9 °C 4,4 °C 48 % 70 % 1016,1 hPa 0,0 l/m² 12,9 km/h (3 Bft) O-SO 112 ° 0 min 0 W/m² -0,6 °C -0,5 °C 17,7 km/h (3 Bft)
17.03.2023 01:28 21,9 °C 4,4 °C 48 % 70 % 1016,1 hPa 0,0 l/m² 11,3 km/h (2 Bft) O-SO 112 ° 0 min 0 W/m² -0,6 °C 0,5 °C 19,3 km/h (3 Bft)
17.03.2023 01:29 21,9 °C 4,4 °C 48 % 70 % 1016,1 hPa 0,0 l/m² 16,1 km/h (3 Bft) O-SO 112 ° 0 min 0 W/m² -0,6 °C -2,2 °C 19,3 km/h (3 Bft)
17.03.2023 01:30 21,9 °C 4,4 °C 48 % 70 % 1016,0 hPa 0,0 l/m² 14,5 km/h (3 Bft) O-SO 112 ° 0 min 0 W/m² -0,6 °C -1,4 °C 20,9 km/h (4 Bft)
17.03.2023 01:31 21,9 °C 4,4 °C 48 % 70 % 1016,0 hPa 0,0 l/m² 14,5 km/h (3 Bft) O-SO 112 ° 0 min 0 W/m² -0,6 °C -1,4 °C 19,3 km/h (3 Bft)
17.03.2023 01:32 21,9 °C 4,4 °C 48 % 70 % 1016,0 hPa 0,0 l/m² 14,5 km/h (3 Bft) O-SO 112 ° 0 min 0 W/m² -0,6 °C -1,4 °C 17,7 km/h (3 Bft)
17.03.2023 01:33 21,9 °C 4,3 °C 48 % 70 % 1015,9 hPa 0,0 l/m² 14,5 km/h (3 Bft) O-SO 112 ° 0 min 0 W/m² -0,7 °C -1,5 °C 17,7 km/h (3 Bft)
17.03.2023 01:34 21,9 °C 4,4 °C 48 % 70 % 1015,9 hPa 0,0 l/m² 12,9 km/h (3 Bft) O-SO 112 ° 0 min 0 W/m² -0,6 °C -0,5 °C 17,7 km/h (3 Bft)
17.03.2023 01:35 21,9 °C 4,3 °C 48 % 70 % 1016,0 hPa 0,0 l/m² 14,5 km/h (3 Bft) O-SO 112 ° 0 min 0 W/m² -0,7 °C -1,5 °C 17,7 km/h (3 Bft)
17.03.2023 01:36 21,9 °C 4,4 °C 48 % 70 % 1015,9 hPa 0,0 l/m² 16,1 km/h (3 Bft) O-SO 112 ° 0 min 0 W/m² -0,6 °C -2,2 °C 19,3 km/h (3 Bft)
17.03.2023 01:37 21,9 °C 4,4 °C 48 % 70 % 1015,9 hPa 0,0 l/m² 12,9 km/h (3 Bft) O-SO 112 ° 0 min 0 W/m² -0,6 °C -0,5 °C 17,7 km/h (3 Bft)
17.03.2023 01:38 21,9 °C 4,4 °C 48 % 70 % 1015,9 hPa 0,0 l/m² 16,1 km/h (3 Bft) O-SO 112 ° 0 min 0 W/m² -0,6 °C -2,2 °C 20,9 km/h (4 Bft)
17.03.2023 01:39 21,9 °C 4,4 °C 48 % 70 % 1015,9 hPa 0,0 l/m² 16,1 km/h (3 Bft) O-SO 112 ° 0 min 0 W/m² -0,6 °C -2,2 °C 17,7 km/h (3 Bft)
17.03.2023 01:40 21,9 °C 4,4 °C 48 % 70 % 1015,8 hPa 0,0 l/m² 16,1 km/h (3 Bft) O-SO 112 ° 0 min 0 W/m² -0,6 °C -2,2 °C 19,3 km/h (3 Bft)
17.03.2023 01:41 21,9 °C 4,4 °C 48 % 70 % 1015,8 hPa 0,0 l/m² 12,9 km/h (3 Bft) O-SO 112 ° 0 min 0 W/m² -0,6 °C -0,5 °C 14,5 km/h (3 Bft)
17.03.2023 01:42 21,9 °C 4,4 °C 48 % 70 % 1015,8 hPa 0,0 l/m² 12,9 km/h (3 Bft) O-SO 112 ° 0 min 0 W/m² -0,6 °C -0,5 °C 17,7 km/h (3 Bft)
17.03.2023 01:43 21,9 °C 4,4 °C 48 % 70 % 1015,8 hPa 0,0 l/m² 14,5 km/h (3 Bft) O-SO 112 ° 0 min 0 W/m² -0,6 °C -1,4 °C 19,3 km/h (3 Bft)
17.03.2023 01:44 21,9 °C 4,4 °C 48 % 70 % 1015,8 hPa 0,0 l/m² 14,5 km/h (3 Bft) O-SO 112 ° 0 min 0 W/m² -0,6 °C -1,4 °C 19,3 km/h (3 Bft)
17.03.2023 01:45 21,9 °C 4,5 °C 48 % 70 % 1015,8 hPa 0,0 l/m² 16,1 km/h (3 Bft) O-SO 112 ° 0 min 0 W/m² -0,5 °C -2,1 °C 20,9 km/h (4 Bft)
17.03.2023 01:46 21,9 °C 4,6 °C 48 % 69 % 1015,8 hPa 0,0 l/m² 16,1 km/h (3 Bft) O-SO 112 ° 0 min 0 W/m² -0,6 °C -2,0 °C 22,5 km/h (4 Bft)
17.03.2023 01:47 21,9 °C 4,5 °C 48 % 70 % 1015,7 hPa 0,0 l/m² 14,5 km/h (3 Bft) O-SO 112 ° 0 min 0 W/m² -0,5 °C -1,3 °C 17,7 km/h (3 Bft)
17.03.2023 01:48 21,9 °C 4,5 °C 48 % 70 % 1015,7 hPa 0,0 l/m² 12,9 km/h (3 Bft) O-SO 112 ° 0 min 0 W/m² -0,5 °C -0,4 °C 16,1 km/h (3 Bft)
17.03.2023 01:49 21,9 °C 4,5 °C 48 % 70 % 1015,7 hPa 0,0 l/m² 11,3 km/h (2 Bft) O-SO 112 ° 0 min 0 W/m² -0,5 °C 0,6 °C 14,5 km/h (3 Bft)
17.03.2023 01:50 21,9 °C 4,5 °C 48 % 70 % 1015,7 hPa 0,0 l/m² 11,3 km/h (2 Bft) O-SO 112 ° 0 min 0 W/m² -0,5 °C 0,6 °C 14,5 km/h (3 Bft)
17.03.2023 01:51 21,9 °C 4,4 °C 48 % 70 % 1015,8 hPa 0,0 l/m² 12,9 km/h (3 Bft) O-SO 112 ° 0 min 0 W/m² -0,6 °C -0,5 °C 16,1 km/h (3 Bft)
17.03.2023 01:52 21,9 °C 4,5 °C 48 % 70 % 1015,7 hPa 0,0 l/m² 12,9 km/h (3 Bft) O-SO 112 ° 0 min 0 W/m² -0,5 °C -0,4 °C 16,1 km/h (3 Bft)
17.03.2023 01:53 21,9 °C 4,4 °C 48 % 70 % 1015,8 hPa 0,0 l/m² 14,5 km/h (3 Bft) SO 135 ° 0 min 0 W/m² -0,6 °C -1,4 °C 17,7 km/h (3 Bft)
17.03.2023 01:54 21,9 °C 4,5 °C 48 % 70 % 1015,8 hPa 0,0 l/m² 14,5 km/h (3 Bft) O-SO 112 ° 0 min 0 W/m² -0,5 °C -1,3 °C 17,7 km/h (3 Bft)
17.03.2023 01:55 21,9 °C 4,5 °C 48 % 69 % 1015,9 hPa 0,0 l/m² 14,5 km/h (3 Bft) O-SO 112 ° 0 min 0 W/m² -0,7 °C -1,3 °C 17,7 km/h (3 Bft)
17.03.2023 01:56 21,9 °C 4,6 °C 48 % 69 % 1015,9 hPa 0,0 l/m² 12,9 km/h (3 Bft) SO 135 ° 0 min 0 W/m² -0,6 °C -0,2 °C 17,7 km/h (3 Bft)
17.03.2023 01:57 21,9 °C 4,5 °C 48 % 69 % 1015,8 hPa 0,0 l/m² 12,9 km/h (3 Bft) O-SO 112 ° 0 min 0 W/m² -0,7 °C -0,4 °C 16,1 km/h (3 Bft)
17.03.2023 01:58 21,9 °C 4,5 °C 48 % 69 % 1015,8 hPa 0,0 l/m² 12,9 km/h (3 Bft) O-SO 112 ° 0 min 0 W/m² -0,7 °C -0,4 °C 16,1 km/h (3 Bft)
17.03.2023 01:59 21,9 °C 4,5 °C 48 % 69 % 1015,9 hPa 0,0 l/m² 12,9 km/h (3 Bft) O-SO 112 ° 0 min 0 W/m² -0,7 °C -0,4 °C 16,1 km/h (3 Bft)
17.03.2023 02:00 21,9 °C 4,4 °C 48 % 70 % 1015,7 hPa 0,0 l/m² 16,1 km/h (3 Bft) O-SO 112 ° 0 min 0 W/m² -0,6 °C -2,2 °C 19,3 km/h (3 Bft)
17.03.2023 02:01 21,9 °C 4,5 °C 48 % 69 % 1015,7 hPa 0,0 l/m² 14,5 km/h (3 Bft) O-SO 112 ° 0 min 0 W/m² -0,7 °C -1,3 °C 17,7 km/h (3 Bft)
17.03.2023 02:02 21,9 °C 4,5 °C 48 % 69 % 1015,7 hPa 0,0 l/m² 16,1 km/h (3 Bft) O-SO 112 ° 0 min 0 W/m² -0,7 °C -2,1 °C 17,7 km/h (3 Bft)
17.03.2023 02:03 21,9 °C 4,5 °C 48 % 69 % 1015,7 hPa 0,0 l/m² 14,5 km/h (3 Bft) O-SO 112 ° 0 min 0 W/m² -0,7 °C -1,3 °C 17,7 km/h (3 Bft)
17.03.2023 02:04 21,9 °C 4,5 °C 48 % 69 % 1015,6 hPa 0,0 l/m² 12,9 km/h (3 Bft) O-SO 112 ° 0 min 0 W/m² -0,7 °C -0,4 °C 16,1 km/h (3 Bft)
17.03.2023 02:05 21,9 °C 4,5 °C 48 % 69 % 1015,6 hPa 0,0 l/m² 14,5 km/h (3 Bft) O-SO 112 ° 0 min 0 W/m² -0,7 °C -1,3 °C 19,3 km/h (3 Bft)
17.03.2023 02:06 21,9 °C 4,5 °C 48 % 69 % 1015,6 hPa 0,0 l/m² 12,9 km/h (3 Bft) O-SO 112 ° 0 min 0 W/m² -0,7 °C -0,4 °C 16,1 km/h (3 Bft)
17.03.2023 02:07 21,9 °C 4,5 °C 48 % 69 % 1015,6 hPa 0,0 l/m² 14,5 km/h (3 Bft) O-SO 112 ° 0 min 0 W/m² -0,7 °C -1,3 °C 16,1 km/h (3 Bft)
17.03.2023 02:08 21,9 °C 4,5 °C 48 % 69 % 1015,5 hPa 0,0 l/m² 14,5 km/h (3 Bft) O-SO 112 ° 0 min 0 W/m² -0,7 °C -1,3 °C 17,7 km/h (3 Bft)
17.03.2023 02:09 21,9 °C 4,4 °C 48 % 69 % 1015,4 hPa 0,0 l/m² 14,5 km/h (3 Bft) O-SO 112 ° 0 min 0 W/m² -0,8 °C -1,4 °C 17,7 km/h (3 Bft)
17.03.2023 02:10 21,9 °C 4,4 °C 48 % 69 % 1015,5 hPa 0,0 l/m² 12,9 km/h (3 Bft) O-SO 112 ° 0 min 0 W/m² -0,8 °C -0,5 °C 16,1 km/h (3 Bft)
17.03.2023 02:11 21,9 °C 4,4 °C 48 % 70 % 1015,4 hPa 0,0 l/m² 12,9 km/h (3 Bft) O-SO 112 ° 0 min 0 W/m² -0,6 °C -0,5 °C 17,7 km/h (3 Bft)
17.03.2023 02:12 21,9 °C 4,4 °C 48 % 70 % 1015,4 hPa 0,0 l/m² 14,5 km/h (3 Bft) O-SO 112 ° 0 min 0 W/m² -0,6 °C -1,4 °C 17,7 km/h (3 Bft)
17.03.2023 02:13 21,9 °C 4,4 °C 48 % 70 % 1015,4 hPa 0,0 l/m² 14,5 km/h (3 Bft) O-SO 112 ° 0 min 0 W/m² -0,6 °C -1,4 °C 20,9 km/h (4 Bft)
17.03.2023 02:14 21,9 °C 4,4 °C 48 % 70 % 1015,4 hPa 0,0 l/m² 16,1 km/h (3 Bft) O-SO 112 ° 0 min 0 W/m² -0,6 °C -2,2 °C 19,3 km/h (3 Bft)
17.03.2023 02:15 21,9 °C 4,4 °C 48 % 70 % 1015,4 hPa 0,0 l/m² 14,5 km/h (3 Bft) O-SO 112 ° 0 min 0 W/m² -0,6 °C -1,4 °C 17,7 km/h (3 Bft)
17.03.2023 02:16 21,9 °C 4,4 °C 48 % 70 % 1015,5 hPa 0,0 l/m² 12,9 km/h (3 Bft) O-SO 112 ° 0 min 0 W/m² -0,6 °C -0,5 °C 16,1 km/h (3 Bft)
17.03.2023 02:17 21,9 °C 4,4 °C 48 % 70 % 1015,4 hPa 0,0 l/m² 14,5 km/h (3 Bft) O-SO 112 ° 0 min 0 W/m² -0,6 °C -1,4 °C 20,9 km/h (4 Bft)
17.03.2023 02:18 21,9 °C 4,4 °C 48 % 70 % 1015,4 hPa 0,0 l/m² 14,5 km/h (3 Bft) O-SO 112 ° 0 min 0 W/m² -0,6 °C -1,4 °C 16,1 km/h (3 Bft)
17.03.2023 02:19 21,9 °C 4,4 °C 48 % 70 % 1015,4 hPa 0,0 l/m² 14,5 km/h (3 Bft) O-SO 112 ° 0 min 0 W/m² -0,6 °C -1,4 °C 16,1 km/h (3 Bft)
17.03.2023 02:20 21,9 °C 4,4 °C 48 % 70 % 1015,4 hPa 0,0 l/m² 16,1 km/h (3 Bft) O-SO 112 ° 0 min 0 W/m² -0,6 °C -2,2 °C 19,3 km/h (3 Bft)
17.03.2023 02:21 21,9 °C 4,4 °C 48 % 70 % 1015,5 hPa 0,0 l/m² 12,9 km/h (3 Bft) O-SO 112 ° 0 min 0 W/m² -0,6 °C -0,5 °C 16,1 km/h (3 Bft)
17.03.2023 02:22 21,9 °C 4,4 °C 48 % 70 % 1015,3 hPa 0,0 l/m² 11,3 km/h (2 Bft) O-SO 112 ° 0 min 0 W/m² -0,6 °C 0,5 °C 14,5 km/h (3 Bft)
17.03.2023 02:23 21,9 °C 4,4 °C 48 % 70 % 1015,5 hPa 0,0 l/m² 12,9 km/h (3 Bft) O-SO 112 ° 0 min 0 W/m² -0,6 °C -0,5 °C 17,7 km/h (3 Bft)
17.03.2023 02:24 21,9 °C 4,4 °C 48 % 70 % 1015,4 hPa 0,0 l/m² 14,5 km/h (3 Bft) O-SO 112 ° 0 min 0 W/m² -0,6 °C -1,4 °C 17,7 km/h (3 Bft)
17.03.2023 02:25 21,9 °C 4,4 °C 48 % 70 % 1015,3 hPa 0,0 l/m² 12,9 km/h (3 Bft) O-SO 112 ° 0 min 0 W/m² -0,6 °C -0,5 °C 17,7 km/h (3 Bft)
17.03.2023 02:26 21,9 °C 4,4 °C 48 % 69 % 1015,4 hPa 0,0 l/m² 14,5 km/h (3 Bft) O-SO 112 ° 0 min 0 W/m² -0,8 °C -1,4 °C 17,7 km/h (3 Bft)
17.03.2023 02:27 21,9 °C 4,3 °C 48 % 69 % 1015,3 hPa 0,0 l/m² 12,9 km/h (3 Bft) O-SO 112 ° 0 min 0 W/m² -0,9 °C -0,6 °C 16,1 km/h (3 Bft)
17.03.2023 02:28 21,9 °C 4,4 °C 48 % 70 % 1015,3 hPa 0,0 l/m² 14,5 km/h (3 Bft) O-SO 112 ° 0 min 0 W/m² -0,6 °C -1,4 °C 17,7 km/h (3 Bft)
17.03.2023 02:29 21,9 °C 4,3 °C 48 % 70 % 1015,2 hPa 0,0 l/m² 12,9 km/h (3 Bft) O-SO 112 ° 0 min 0 W/m² -0,7 °C -0,6 °C 14,5 km/h (3 Bft)
17.03.2023 02:30 21,9 °C 4,3 °C 48 % 70 % 1015,3 hPa 0,0 l/m² 12,9 km/h (3 Bft) O-SO 112 ° 0 min 0 W/m² -0,7 °C -0,6 °C 16,1 km/h (3 Bft)
17.03.2023 02:31 21,9 °C 4,3 °C 48 % 70 % 1015,3 hPa 0,0 l/m² 12,9 km/h (3 Bft) O-SO 112 ° 0 min 0 W/m² -0,7 °C -0,6 °C 16,1 km/h (3 Bft)
17.03.2023 02:32 21,9 °C 4,3 °C 48 % 70 % 1015,2 hPa 0,0 l/m² 12,9 km/h (3 Bft) O-SO 112 ° 0 min 0 W/m² -0,7 °C -0,6 °C 17,7 km/h (3 Bft)
17.03.2023 02:33 21,9 °C 4,3 °C 48 % 70 % 1015,2 hPa 0,0 l/m² 12,9 km/h (3 Bft) O-SO 112 ° 0 min 0 W/m² -0,7 °C -0,6 °C 20,9 km/h (4 Bft)
17.03.2023 02:34 21,9 °C 4,3 °C 48 % 70 % 1015,1 hPa 0,0 l/m² 14,5 km/h (3 Bft) O-SO 112 ° 0 min 0 W/m² -0,7 °C -1,5 °C 20,9 km/h (4 Bft)
17.03.2023 02:35 21,9 °C 4,3 °C 48 % 70 % 1015,1 hPa 0,0 l/m² 11,3 km/h (2 Bft) O-SO 112 ° 0 min 0 W/m² -0,7 °C 0,4 °C 14,5 km/h (3 Bft)
17.03.2023 02:36 21,9 °C 4,3 °C 48 % 70 % 1015,1 hPa 0,0 l/m² 11,3 km/h (2 Bft) O-SO 112 ° 0 min 0 W/m² -0,7 °C 0,4 °C 14,5 km/h (3 Bft)
17.03.2023 02:37 21,9 °C 4,3 °C 48 % 70 % 1015,1 hPa 0,0 l/m² 11,3 km/h (2 Bft) O 90 ° 0 min 0 W/m² -0,7 °C 0,4 °C 14,5 km/h (3 Bft)
17.03.2023 02:38 21,9 °C 4,2 °C 48 % 70 % 1015,0 hPa 0,0 l/m² 9,7 km/h (2 Bft) O-SO 112 ° 0 min 0 W/m² -0,8 °C 1,4 °C 16,1 km/h (3 Bft)
17.03.2023 02:39 21,9 °C 4,2 °C 48 % 70 % 1015,0 hPa 0,0 l/m² 9,7 km/h (2 Bft) O-SO 112 ° 0 min 0 W/m² -0,8 °C 1,4 °C 14,5 km/h (3 Bft)
17.03.2023 02:40 21,9 °C 4,2 °C 48 % 70 % 1015,1 hPa 0,0 l/m² 8,0 km/h (2 Bft) O-SO 112 ° 0 min 0 W/m² -0,8 °C 2,8 °C 11,3 km/h (2 Bft)
17.03.2023 02:41 21,8 °C 4,1 °C 48 % 71 % 1015,0 hPa 0,0 l/m² 8,0 km/h (2 Bft) O-SO 112 ° 0 min 0 W/m² -0,7 °C 2,7 °C 12,9 km/h (3 Bft)
17.03.2023 02:42 21,9 °C 4,1 °C 48 % 71 % 1015,0 hPa 0,0 l/m² 9,7 km/h (2 Bft) O-SO 112 ° 0 min 0 W/m² -0,7 °C 1,3 °C 12,9 km/h (3 Bft)
17.03.2023 02:43 21,9 °C 4,1 °C 48 % 71 % 1015,0 hPa 0,0 l/m² 8,0 km/h (2 Bft) O-SO 112 ° 0 min 0 W/m² -0,7 °C 2,7 °C 12,9 km/h (3 Bft)
17.03.2023 02:44 21,8 °C 4,1 °C 48 % 71 % 1015,0 hPa 0,0 l/m² 11,3 km/h (2 Bft) O-SO 112 ° 0 min 0 W/m² -0,7 °C 0,2 °C 14,5 km/h (3 Bft)
17.03.2023 02:45 21,9 °C 4,0 °C 48 % 71 % 1015,0 hPa 0,0 l/m² 11,3 km/h (2 Bft) O-SO 112 ° 0 min 0 W/m² -0,8 °C 0,1 °C 14,5 km/h (3 Bft)
17.03.2023 02:46 21,9 °C 4,0 °C 48 % 71 % 1015,0 hPa 0,0 l/m² 12,9 km/h (3 Bft) O-SO 112 ° 0 min 0 W/m² -0,8 °C -1,0 °C 17,7 km/h (3 Bft)
17.03.2023 02:47 21,9 °C 4,0 °C 48 % 71 % 1015,0 hPa 0,0 l/m² 12,9 km/h (3 Bft) O-SO 112 ° 0 min 0 W/m² -0,8 °C -1,0 °C 14,5 km/h (3 Bft)
17.03.2023 02:48 21,9 °C 3,9 °C 48 % 71 % 1015,0 hPa 0,0 l/m² 11,3 km/h (2 Bft) O-SO 112 ° 0 min 0 W/m² -0,9 °C -0,1 °C 16,1 km/h (3 Bft)
17.03.2023 02:49 21,9 °C 4,0 °C 48 % 71 % 1014,9 hPa 0,0 l/m² 14,5 km/h (3 Bft) O-SO 112 ° 0 min 0 W/m² -0,8 °C -1,9 °C 17,7 km/h (3 Bft)
17.03.2023 02:50 21,9 °C 3,9 °C 48 % 71 % 1014,9 hPa 0,0 l/m² 9,7 km/h (2 Bft) O-SO 112 ° 0 min 0 W/m² -0,9 °C 1,1 °C 11,3 km/h (2 Bft)
17.03.2023 02:51 21,9 °C 3,9 °C 48 % 71 % 1015,0 hPa 0,0 l/m² 9,7 km/h (2 Bft) O-SO 112 ° 0 min 0 W/m² -0,9 °C 1,1 °C 12,9 km/h (3 Bft)
17.03.2023 02:52 21,9 °C 3,9 °C 48 % 71 % 1015,0 hPa 0,0 l/m² 9,7 km/h (2 Bft) O-SO 112 ° 0 min 0 W/m² -0,9 °C 1,1 °C 12,9 km/h (3 Bft)
17.03.2023 02:53 21,9 °C 3,9 °C 48 % 71 % 1015,0 hPa 0,0 l/m² 11,3 km/h (2 Bft) O-SO 112 ° 0 min 0 W/m² -0,9 °C -0,1 °C 14,5 km/h (3 Bft)
17.03.2023 02:54 21,9 °C 3,9 °C 48 % 71 % 1015,0 hPa 0,0 l/m² 12,9 km/h (3 Bft) O-SO 112 ° 0 min 0 W/m² -0,9 °C -1,1 °C 16,1 km/h (3 Bft)
17.03.2023 02:55 21,9 °C 3,8 °C 48 % 71 % 1015,0 hPa 0,0 l/m² 9,7 km/h (2 Bft) O-SO 112 ° 0 min 0 W/m² -1,0 °C 1,0 °C 14,5 km/h (3 Bft)
17.03.2023 02:56 21,9 °C 3,9 °C 48 % 71 % 1015,0 hPa 0,0 l/m² 12,9 km/h (3 Bft) O-SO 112 ° 0 min 0 W/m² -0,9 °C -1,1 °C 16,1 km/h (3 Bft)
17.03.2023 02:57 21,9 °C 3,9 °C 48 % 71 % 1015,0 hPa 0,0 l/m² 11,3 km/h (2 Bft) O-SO 112 ° 0 min 0 W/m² -0,9 °C -0,1 °C 14,5 km/h (3 Bft)
17.03.2023 02:58 21,8 °C 3,9 °C 48 % 71 % 1014,9 hPa 0,0 l/m² 9,7 km/h (2 Bft) O-SO 112 ° 0 min 0 W/m² -0,9 °C 1,1 °C 12,9 km/h (3 Bft)
17.03.2023 02:59 21,9 °C 3,8 °C 48 % 72 % 1015,0 hPa 0,0 l/m² 11,3 km/h (2 Bft) O-SO 112 ° 0 min 0 W/m² -0,8 °C -0,2 °C 16,1 km/h (3 Bft)
17.03.2023 03:00 21,8 °C 3,8 °C 48 % 71 % 1014,9 hPa 0,0 l/m² 14,5 km/h (3 Bft) O-SO 112 ° 0 min 0 W/m² -1,0 °C -2,1 °C 17,7 km/h (3 Bft)
17.03.2023 03:01 21,8 °C 3,8 °C 48 % 71 % 1014,8 hPa 0,0 l/m² 11,3 km/h (2 Bft) O-SO 112 ° 0 min 0 W/m² -1,0 °C -0,2 °C 14,5 km/h (3 Bft)
17.03.2023 03:02 21,8 °C 3,9 °C 48 % 71 % 1014,8 hPa 0,0 l/m² 11,3 km/h (2 Bft) O-SO 112 ° 0 min 0 W/m² -0,9 °C -0,1 °C 14,5 km/h (3 Bft)
17.03.2023 03:03 21,8 °C 3,8 °C 48 % 71 % 1014,9 hPa 0,0 l/m² 11,3 km/h (2 Bft) O-SO 112 ° 0 min 0 W/m² -1,0 °C -0,2 °C 12,9 km/h (3 Bft)
17.03.2023 03:04 21,8 °C 3,9 °C 48 % 71 % 1014,8 hPa 0,0 l/m² 11,3 km/h (2 Bft) O-SO 112 ° 0 min 0 W/m² -0,9 °C -0,1 °C 14,5 km/h (3 Bft)
17.03.2023 03:05 21,9 °C 3,8 °C 48 % 71 % 1014,8 hPa 0,0 l/m² 11,3 km/h (2 Bft) O 90 ° 0 min 0 W/m² -1,0 °C -0,2 °C 12,9 km/h (3 Bft)
17.03.2023 03:06 21,8 °C 3,8 °C 48 % 71 % 1014,9 hPa 0,0 l/m² 11,3 km/h (2 Bft) O-SO 112 ° 0 min 0 W/m² -1,0 °C -0,2 °C 12,9 km/h (3 Bft)
17.03.2023 03:07 21,8 °C 3,8 °C 48 % 72 % 1014,8 hPa 0,0 l/m² 11,3 km/h (2 Bft) O-SO 112 ° 0 min 0 W/m² -0,8 °C -0,2 °C 12,9 km/h (3 Bft)
17.03.2023 03:08 21,9 °C 3,8 °C 48 % 72 % 1014,8 hPa 0,0 l/m² 11,3 km/h (2 Bft) O-SO 112 ° 0 min 0 W/m² -0,8 °C -0,2 °C 12,9 km/h (3 Bft)
17.03.2023 03:09 21,9 °C 3,8 °C 48 % 71 % 1014,8 hPa 0,0 l/m² 11,3 km/h (2 Bft) O-SO 112 ° 0 min 0 W/m² -1,0 °C -0,2 °C 14,5 km/h (3 Bft)
17.03.2023 03:10 21,8 °C 3,8 °C 48 % 71 % 1014,8 hPa 0,0 l/m² 11,3 km/h (2 Bft) O-SO 112 ° 0 min 0 W/m² -1,0 °C -0,2 °C 14,5 km/h (3 Bft)
17.03.2023 03:11 21,9 °C 3,8 °C 48 % 72 % 1014,8 hPa 0,0 l/m² 11,3 km/h (2 Bft) O-SO 112 ° 0 min 0 W/m² -0,8 °C -0,2 °C 14,5 km/h (3 Bft)
17.03.2023 03:12 21,8 °C 3,8 °C 48 % 72 % 1014,7 hPa 0,0 l/m² 9,7 km/h (2 Bft) O-SO 112 ° 0 min 0 W/m² -0,8 °C 1,0 °C 11,3 km/h (2 Bft)
17.03.2023 03:13 21,8 °C 3,7 °C 48 % 72 % 1014,7 hPa 0,0 l/m² 11,3 km/h (2 Bft) O-SO 112 ° 0 min 0 W/m² -0,9 °C -0,3 °C 16,1 km/h (3 Bft)
17.03.2023 03:14 21,9 °C 3,7 °C 48 % 72 % 1014,8 hPa 0,0 l/m² 9,7 km/h (2 Bft) O-SO 112 ° 0 min 0 W/m² -0,9 °C 0,9 °C 14,5 km/h (3 Bft)
17.03.2023 03:15 21,8 °C 3,7 °C 48 % 72 % 1014,8 hPa 0,0 l/m² 9,7 km/h (2 Bft) O-SO 112 ° 0 min 0 W/m² -0,9 °C 0,9 °C 12,9 km/h (3 Bft)
17.03.2023 03:16 21,8 °C 3,7 °C 48 % 72 % 1014,8 hPa 0,0 l/m² 9,7 km/h (2 Bft) O-SO 112 ° 0 min 0 W/m² -0,9 °C 0,9 °C 14,5 km/h (3 Bft)
17.03.2023 03:17 21,8 °C 3,7 °C 48 % 72 % 1014,7 hPa 0,0 l/m² 11,3 km/h (2 Bft) O-SO 112 ° 0 min 0 W/m² -0,9 °C -0,3 °C 12,9 km/h (3 Bft)
17.03.2023 03:18 21,8 °C 3,7 °C 48 % 72 % 1014,6 hPa 0,0 l/m² 11,3 km/h (2 Bft) O-SO 112 ° 0 min 0 W/m² -0,9 °C -0,3 °C 14,5 km/h (3 Bft)
17.03.2023 03:19 21,8 °C 3,7 °C 48 % 72 % 1014,8 hPa 0,0 l/m² 9,7 km/h (2 Bft) O-SO 112 ° 0 min 0 W/m² -0,9 °C 0,9 °C 14,5 km/h (3 Bft)
17.03.2023 03:20 21,9 °C 3,6 °C 49 % 72 % 1014,7 hPa 0,0 l/m² 9,7 km/h (2 Bft) O-SO 112 ° 0 min 0 W/m² -1,0 °C 0,8 °C 11,3 km/h (2 Bft)
17.03.2023 03:21 21,8 °C 3,6 °C 48 % 72 % 1014,8 hPa 0,0 l/m² 6,4 km/h (2 Bft) O-SO 112 ° 0 min 0 W/m² -1,0 °C 3,6 °C 9,7 km/h (2 Bft)
17.03.2023 03:22 21,8 °C 3,6 °C 48 % 72 % 1014,8 hPa 0,0 l/m² 9,7 km/h (2 Bft) O-SO 112 ° 0 min 0 W/m² -1,0 °C 0,8 °C 11,3 km/h (2 Bft)
17.03.2023 03:23 21,8 °C 3,6 °C 48 % 72 % 1014,8 hPa 0,0 l/m² 9,7 km/h (2 Bft) O-SO 112 ° 0 min 0 W/m² -1,0 °C 0,8 °C 11,3 km/h (2 Bft)
17.03.2023 03:24 21,8 °C 3,6 °C 48 % 72 % 1014,8 hPa 0,0 l/m² 8,0 km/h (2 Bft) O-SO 112 ° 0 min 0 W/m² -1,0 °C 2,1 °C 11,3 km/h (2 Bft)
17.03.2023 03:25 21,8 °C 3,6 °C 48 % 72 % 1014,7 hPa 0,0 l/m² 8,0 km/h (2 Bft) O-SO 112 ° 0 min 0 W/m² -1,0 °C 2,1 °C 9,7 km/h (2 Bft)
17.03.2023 03:26 21,8 °C 3,5 °C 48 % 72 % 1014,8 hPa 0,0 l/m² 8,0 km/h (2 Bft) O 90 ° 0 min 0 W/m² -1,1 °C 2,0 °C 11,3 km/h (2 Bft)
17.03.2023 03:27 21,8 °C 3,4 °C 49 % 73 % 1014,8 hPa 0,0 l/m² 9,7 km/h (2 Bft) O-SO 112 ° 0 min 0 W/m² -1,0 °C 0,5 °C 16,1 km/h (3 Bft)
17.03.2023 03:28 21,8 °C 3,4 °C 49 % 73 % 1014,8 hPa 0,0 l/m² 9,7 km/h (2 Bft) O-SO 112 ° 0 min 0 W/m² -1,0 °C 0,5 °C 16,1 km/h (3 Bft)
17.03.2023 03:29 21,8 °C 3,4 °C 49 % 73 % 1014,9 hPa 0,0 l/m² 9,7 km/h (2 Bft) O-SO 112 ° 0 min 0 W/m² -1,0 °C 0,5 °C 11,3 km/h (2 Bft)
17.03.2023 03:30 21,8 °C 3,4 °C 49 % 73 % 1014,8 hPa 0,0 l/m² 9,7 km/h (2 Bft) O-SO 112 ° 0 min 0 W/m² -1,0 °C 0,5 °C 12,9 km/h (3 Bft)
17.03.2023 03:31 21,8 °C 3,4 °C 49 % 73 % 1014,8 hPa 0,0 l/m² 8,0 km/h (2 Bft) O-SO 112 ° 0 min 0 W/m² -1,0 °C 1,9 °C 11,3 km/h (2 Bft)
17.03.2023 03:32 21,8 °C 3,4 °C 49 % 73 % 1014,8 hPa 0,0 l/m² 6,4 km/h (2 Bft) O-SO 112 ° 0 min 0 W/m² -1,0 °C 3,4 °C 9,7 km/h (2 Bft)
17.03.2023 03:33 21,8 °C 3,3 °C 49 % 73 % 1014,9 hPa 0,0 l/m² 6,4 km/h (2 Bft) O-SO 112 ° 0 min 0 W/m² -1,1 °C 3,3 °C 9,7 km/h (2 Bft)
17.03.2023 03:34 21,8 °C 3,3 °C 49 % 73 % 1014,9 hPa 0,0 l/m² 8,0 km/h (2 Bft) O-SO 112 ° 0 min 0 W/m² -1,1 °C 1,8 °C 11,3 km/h (2 Bft)
17.03.2023 03:35 21,8 °C 3,3 °C 49 % 73 % 1014,9 hPa 0,0 l/m² 6,4 km/h (2 Bft) O-SO 112 ° 0 min 0 W/m² -1,1 °C 3,3 °C 9,7 km/h (2 Bft)
17.03.2023 03:36 21,8 °C 3,3 °C 49 % 74 % 1014,8 hPa 0,0 l/m² 9,7 km/h (2 Bft) O-SO 112 ° 0 min 0 W/m² -0,9 °C 0,4 °C 11,3 km/h (2 Bft)
17.03.2023 03:37 21,8 °C 3,3 °C 49 % 74 % 1014,8 hPa 0,0 l/m² 11,3 km/h (2 Bft) O-SO 112 ° 0 min 0 W/m² -0,9 °C -0,7 °C 12,9 km/h (3 Bft)
17.03.2023 03:38 21,8 °C 3,3 °C 49 % 74 % 1014,8 hPa 0,0 l/m² 9,7 km/h (2 Bft) O-SO 112 ° 0 min 0 W/m² -0,9 °C 0,4 °C 12,9 km/h (3 Bft)
17.03.2023 03:39 21,8 °C 3,3 °C 49 % 74 % 1014,8 hPa 0,0 l/m² 11,3 km/h (2 Bft) O-SO 112 ° 0 min 0 W/m² -0,9 °C -0,7 °C 12,9 km/h (3 Bft)
17.03.2023 03:40 21,8 °C 3,3 °C 49 % 74 % 1014,8 hPa 0,0 l/m² 12,9 km/h (3 Bft) O-SO 112 ° 0 min 0 W/m² -0,9 °C -1,8 °C 14,5 km/h (3 Bft)
17.03.2023 03:41 21,8 °C 3,3 °C 49 % 74 % 1014,8 hPa 0,0 l/m² 9,7 km/h (2 Bft) O-SO 112 ° 0 min 0 W/m² -0,9 °C 0,4 °C 14,5 km/h (3 Bft)
17.03.2023 03:42 21,8 °C 3,4 °C 49 % 74 % 1014,7 hPa 0,0 l/m² 11,3 km/h (2 Bft) O-SO 112 ° 0 min 0 W/m² -0,8 °C -0,6 °C 14,5 km/h (3 Bft)
17.03.2023 03:43 21,8 °C 3,4 °C 49 % 73 % 1014,7 hPa 0,0 l/m² 14,5 km/h (3 Bft) SO 135 ° 0 min 0 W/m² -1,0 °C -2,6 °C 17,7 km/h (3 Bft)
17.03.2023 03:44 21,8 °C 3,5 °C 49 % 73 % 1014,7 hPa 0,0 l/m² 14,5 km/h (3 Bft) O-SO 112 ° 0 min 0 W/m² -0,9 °C -2,5 °C 17,7 km/h (3 Bft)
17.03.2023 03:45 21,8 °C 3,6 °C 49 % 73 % 1014,7 hPa 0,0 l/m² 14,5 km/h (3 Bft) SO 135 ° 0 min 0 W/m² -0,8 °C -2,3 °C 19,3 km/h (3 Bft)
17.03.2023 03:46 21,8 °C 3,7 °C 49 % 73 % 1014,7 hPa 0,0 l/m² 14,5 km/h (3 Bft) O-SO 112 ° 0 min 0 W/m² -0,7 °C -2,2 °C 17,7 km/h (3 Bft)
17.03.2023 03:47 21,8 °C 3,7 °C 49 % 73 % 1014,7 hPa 0,0 l/m² 14,5 km/h (3 Bft) O-SO 112 ° 0 min 0 W/m² -0,7 °C -2,2 °C 17,7 km/h (3 Bft)
17.03.2023 03:48 21,8 °C 3,8 °C 49 % 72 % 1014,7 hPa 0,0 l/m² 14,5 km/h (3 Bft) SO 135 ° 0 min 0 W/m² -0,8 °C -2,1 °C 17,7 km/h (3 Bft)
17.03.2023 03:49 21,8 °C 3,8 °C 49 % 72 % 1014,7 hPa 0,0 l/m² 14,5 km/h (3 Bft) O-SO 112 ° 0 min 0 W/m² -0,8 °C -2,1 °C 17,7 km/h (3 Bft)
17.03.2023 03:50 21,8 °C 3,8 °C 49 % 72 % 1014,7 hPa 0,0 l/m² 14,5 km/h (3 Bft) O-SO 112 ° 0 min 0 W/m² -0,8 °C -2,1 °C 17,7 km/h (3 Bft)
17.03.2023 03:51 21,8 °C 3,9 °C 49 % 72 % 1014,7 hPa 0,0 l/m² 14,5 km/h (3 Bft) O-SO 112 ° 0 min 0 W/m² -0,7 °C -2,0 °C 17,7 km/h (3 Bft)
17.03.2023 03:52 21,8 °C 3,9 °C 49 % 72 % 1014,7 hPa 0,0 l/m² 14,5 km/h (3 Bft) O-SO 112 ° 0 min 0 W/m² -0,7 °C -2,0 °C 17,7 km/h (3 Bft)
17.03.2023 03:53 21,8 °C 4,0 °C 49 % 71 % 1014,7 hPa 0,0 l/m² 14,5 km/h (3 Bft) O-SO 112 ° 0 min 0 W/m² -0,8 °C -1,9 °C 20,9 km/h (4 Bft)
17.03.2023 03:54 21,8 °C 4,0 °C 49 % 71 % 1014,7 hPa 0,0 l/m² 12,9 km/h (3 Bft) O-SO 112 ° 0 min 0 W/m² -0,8 °C -1,0 °C 16,1 km/h (3 Bft)
17.03.2023 03:55 21,8 °C 4,1 °C 49 % 71 % 1014,7 hPa 0,0 l/m² 12,9 km/h (3 Bft) O-SO 112 ° 0 min 0 W/m² -0,7 °C -0,8 °C 16,1 km/h (3 Bft)
17.03.2023 03:56 21,8 °C 4,1 °C 49 % 71 % 1014,7 hPa 0,0 l/m² 16,1 km/h (3 Bft) O-SO 112 ° 0 min 0 W/m² -0,7 °C -2,6 °C 17,7 km/h (3 Bft)
17.03.2023 03:57 21,8 °C 4,2 °C 49 % 70 % 1014,6 hPa 0,0 l/m² 12,9 km/h (3 Bft) O-SO 112 ° 0 min 0 W/m² -0,8 °C -0,7 °C 14,5 km/h (3 Bft)
17.03.2023 03:58 21,8 °C 4,2 °C 49 % 70 % 1014,6 hPa 0,0 l/m² 11,3 km/h (2 Bft) SO 135 ° 0 min 0 W/m² -0,8 °C 0,3 °C 16,1 km/h (3 Bft)
17.03.2023 03:59 21,8 °C 4,2 °C 49 % 70 % 1014,7 hPa 0,0 l/m² 12,9 km/h (3 Bft) O-SO 112 ° 0 min 0 W/m² -0,8 °C -0,7 °C 16,1 km/h (3 Bft)
17.03.2023 04:00 21,8 °C 4,2 °C 49 % 70 % 1014,7 hPa 0,0 l/m² 12,9 km/h (3 Bft) O-SO 112 ° 0 min 0 W/m² -0,8 °C -0,7 °C 16,1 km/h (3 Bft)
17.03.2023 04:01 21,8 °C 4,2 °C 49 % 70 % 1014,7 hPa 0,0 l/m² 8,0 km/h (2 Bft) O-SO 112 ° 0 min 0 W/m² -0,8 °C 2,8 °C 11,3 km/h (2 Bft)
17.03.2023 04:02 21,8 °C 4,2 °C 49 % 70 % 1014,7 hPa 0,0 l/m² 9,7 km/h (2 Bft) O-SO 112 ° 0 min 0 W/m² -0,8 °C 1,4 °C 12,9 km/h (3 Bft)
17.03.2023 04:03 21,8 °C 4,2 °C 49 % 70 % 1014,7 hPa 0,0 l/m² 11,3 km/h (2 Bft) O-SO 112 ° 0 min 0 W/m² -0,8 °C 0,3 °C 12,9 km/h (3 Bft)
17.03.2023 04:04 21,8 °C 4,2 °C 49 % 70 % 1014,7 hPa 0,0 l/m² 9,7 km/h (2 Bft) O-SO 112 ° 0 min 0 W/m² -0,8 °C 1,4 °C 14,5 km/h (3 Bft)
17.03.2023 04:05 21,8 °C 4,2 °C 49 % 70 % 1014,7 hPa 0,0 l/m² 9,7 km/h (2 Bft) O-SO 112 ° 0 min 0 W/m² -0,8 °C 1,4 °C 12,9 km/h (3 Bft)
17.03.2023 04:06 21,8 °C 4,2 °C 49 % 70 % 1014,6 hPa 0,0 l/m² 11,3 km/h (2 Bft) O-SO 112 ° 0 min 0 W/m² -0,8 °C 0,3 °C 14,5 km/h (3 Bft)
17.03.2023 04:07 21,8 °C 4,1 °C 49 % 71 % 1014,7 hPa 0,0 l/m² 9,7 km/h (2 Bft) O-SO 112 ° 0 min 0 W/m² -0,7 °C 1,3 °C 12,9 km/h (3 Bft)
17.03.2023 04:08 21,8 °C 4,1 °C 49 % 70 % 1014,8 hPa 0,0 l/m² 11,3 km/h (2 Bft) O-SO 112 ° 0 min 0 W/m² -0,9 °C 0,2 °C 14,5 km/h (3 Bft)
17.03.2023 04:09 21,8 °C 4,1 °C 49 % 70 % 1014,8 hPa 0,0 l/m² 12,9 km/h (3 Bft) O-SO 112 ° 0 min 0 W/m² -0,9 °C -0,8 °C 14,5 km/h (3 Bft)
17.03.2023 04:10 21,8 °C 4,2 °C 49 % 70 % 1014,7 hPa 0,0 l/m² 12,9 km/h (3 Bft) O-SO 112 ° 0 min 0 W/m² -0,8 °C -0,7 °C 16,1 km/h (3 Bft)
17.03.2023 04:11 21,8 °C 4,2 °C 49 % 70 % 1014,8 hPa 0,0 l/m² 12,9 km/h (3 Bft) O-SO 112 ° 0 min 0 W/m² -0,8 °C -0,7 °C 16,1 km/h (3 Bft)
17.03.2023 04:12 21,8 °C 4,2 °C 49 % 70 % 1014,8 hPa 0,0 l/m² 11,3 km/h (2 Bft) O-SO 112 ° 0 min 0 W/m² -0,8 °C 0,3 °C 12,9 km/h (3 Bft)
17.03.2023 04:13 21,8 °C 4,2 °C 49 % 70 % 1014,8 hPa 0,0 l/m² 12,9 km/h (3 Bft) O-SO 112 ° 0 min 0 W/m² -0,8 °C -0,7 °C 16,1 km/h (3 Bft)
17.03.2023 04:14 21,8 °C 4,2 °C 49 % 70 % 1014,8 hPa 0,0 l/m² 12,9 km/h (3 Bft) O-SO 112 ° 0 min 0 W/m² -0,8 °C -0,7 °C 16,1 km/h (3 Bft)
17.03.2023 04:15 21,8 °C 4,2 °C 49 % 70 % 1014,7 hPa 0,0 l/m² 11,3 km/h (2 Bft) O-SO 112 ° 0 min 0 W/m² -0,8 °C 0,3 °C 16,1 km/h (3 Bft)
17.03.2023 04:16 21,8 °C 4,3 °C 49 % 70 % 1014,8 hPa 0,0 l/m² 12,9 km/h (3 Bft) O-SO 112 ° 0 min 0 W/m² -0,7 °C -0,6 °C 16,1 km/h (3 Bft)
17.03.2023 04:17 21,8 °C 4,3 °C 49 % 69 % 1014,7 hPa 0,0 l/m² 12,9 km/h (3 Bft) O-SO 112 ° 0 min 0 W/m² -0,9 °C -0,6 °C 16,1 km/h (3 Bft)
17.03.2023 04:18 21,8 °C 4,3 °C 49 % 69 % 1014,6 hPa 0,0 l/m² 11,3 km/h (2 Bft) O-SO 112 ° 0 min 0 W/m² -0,9 °C 0,4 °C 12,9 km/h (3 Bft)
17.03.2023 04:19 21,8 °C 4,3 °C 49 % 69 % 1014,7 hPa 0,0 l/m² 12,9 km/h (3 Bft) O-SO 112 ° 0 min 0 W/m² -0,9 °C -0,6 °C 16,1 km/h (3 Bft)
17.03.2023 04:20 21,8 °C 4,3 °C 49 % 69 % 1014,7 hPa 0,0 l/m² 12,9 km/h (3 Bft) O-SO 112 ° 0 min 0 W/m² -0,9 °C -0,6 °C 16,1 km/h (3 Bft)
17.03.2023 04:21 21,8 °C 4,4 °C 49 % 69 % 1014,8 hPa 0,0 l/m² 12,9 km/h (3 Bft) O-SO 112 ° 0 min 0 W/m² -0,8 °C -0,5 °C 14,5 km/h (3 Bft)
17.03.2023 04:22 21,8 °C 4,4 °C 49 % 69 % 1014,7 hPa 0,0 l/m² 12,9 km/h (3 Bft) O-SO 112 ° 0 min 0 W/m² -0,8 °C -0,5 °C 19,3 km/h (3 Bft)
17.03.2023 04:23 21,7 °C 4,4 °C 49 % 69 % 1014,8 hPa 0,0 l/m² 14,5 km/h (3 Bft) O-SO 112 ° 0 min 0 W/m² -0,8 °C -1,4 °C 17,7 km/h (3 Bft)
17.03.2023 04:24 21,8 °C 4,4 °C 49 % 69 % 1014,7 hPa 0,0 l/m² 12,9 km/h (3 Bft) O-SO 112 ° 0 min 0 W/m² -0,8 °C -0,5 °C 19,3 km/h (3 Bft)
17.03.2023 04:25 21,8 °C 4,4 °C 49 % 69 % 1014,6 hPa 0,0 l/m² 12,9 km/h (3 Bft) O-SO 112 ° 0 min 0 W/m² -0,8 °C -0,5 °C 16,1 km/h (3 Bft)
17.03.2023 04:26 21,8 °C 4,5 °C 49 % 69 % 1014,7 hPa 0,0 l/m² 14,5 km/h (3 Bft) O-SO 112 ° 0 min 0 W/m² -0,7 °C -1,3 °C 19,3 km/h (3 Bft)
17.03.2023 04:27 21,8 °C 4,4 °C 49 % 69 % 1014,6 hPa 0,0 l/m² 14,5 km/h (3 Bft) O-SO 112 ° 0 min 0 W/m² -0,8 °C -1,4 °C 19,3 km/h (3 Bft)
17.03.2023 04:28 21,7 °C 4,5 °C 49 % 69 % 1014,6 hPa 0,0 l/m² 12,9 km/h (3 Bft) O-SO 112 ° 0 min 0 W/m² -0,7 °C -0,4 °C 17,7 km/h (3 Bft)
17.03.2023 04:29 21,7 °C 4,4 °C 49 % 69 % 1014,6 hPa 0,0 l/m² 14,5 km/h (3 Bft) SO 135 ° 0 min 0 W/m² -0,8 °C -1,4 °C 17,7 km/h (3 Bft)
17.03.2023 04:30 21,7 °C 4,4 °C 49 % 69 % 1014,6 hPa 0,0 l/m² 14,5 km/h (3 Bft) O-SO 112 ° 0 min 0 W/m² -0,8 °C -1,4 °C 17,7 km/h (3 Bft)
17.03.2023 04:31 21,8 °C 4,4 °C 49 % 69 % 1014,5 hPa 0,0 l/m² 14,5 km/h (3 Bft) O-SO 112 ° 0 min 0 W/m² -0,8 °C -1,4 °C 17,7 km/h (3 Bft)
17.03.2023 04:32 21,7 °C 4,4 °C 49 % 69 % 1014,5 hPa 0,0 l/m² 16,1 km/h (3 Bft) O-SO 112 ° 0 min 0 W/m² -0,8 °C -2,2 °C 19,3 km/h (3 Bft)
17.03.2023 04:33 21,7 °C 4,4 °C 49 % 69 % 1014,5 hPa 0,0 l/m² 16,1 km/h (3 Bft) O-SO 112 ° 0 min 0 W/m² -0,8 °C -2,2 °C 20,9 km/h (4 Bft)
17.03.2023 04:34 21,8 °C 4,4 °C 49 % 69 % 1014,4 hPa 0,0 l/m² 16,1 km/h (3 Bft) O-SO 112 ° 0 min 0 W/m² -0,8 °C -2,2 °C 19,3 km/h (3 Bft)
17.03.2023 04:35 21,7 °C 4,3 °C 49 % 69 % 1014,4 hPa 0,0 l/m² 14,5 km/h (3 Bft) O-SO 112 ° 0 min 0 W/m² -0,9 °C -1,5 °C 19,3 km/h (3 Bft)
17.03.2023 04:36 21,7 °C 4,4 °C 49 % 69 % 1014,5 hPa 0,0 l/m² 16,1 km/h (3 Bft) O-SO 112 ° 0 min 0 W/m² -0,8 °C -2,2 °C 20,9 km/h (4 Bft)
17.03.2023 04:37 21,7 °C 4,3 °C 49 % 69 % 1014,5 hPa 0,0 l/m² 12,9 km/h (3 Bft) O-SO 112 ° 0 min 0 W/m² -0,9 °C -0,6 °C 19,3 km/h (3 Bft)
17.03.2023 04:38 21,7 °C 4,3 °C 49 % 69 % 1014,5 hPa 0,0 l/m² 9,7 km/h (2 Bft) O-SO 112 ° 0 min 0 W/m² -0,9 °C 1,5 °C 12,9 km/h (3 Bft)
17.03.2023 04:39 21,7 °C 4,3 °C 49 % 69 % 1014,6 hPa 0,0 l/m² 12,9 km/h (3 Bft) O-SO 112 ° 0 min 0 W/m² -0,9 °C -0,6 °C 14,5 km/h (3 Bft)
17.03.2023 04:40 21,7 °C 4,3 °C 49 % 69 % 1014,6 hPa 0,0 l/m² 12,9 km/h (3 Bft) O-SO 112 ° 0 min 0 W/m² -0,9 °C -0,6 °C 16,1 km/h (3 Bft)
17.03.2023 04:41 21,7 °C 4,3 °C 49 % 69 % 1014,5 hPa 0,0 l/m² 14,5 km/h (3 Bft) O-SO 112 ° 0 min 0 W/m² -0,9 °C -1,5 °C 17,7 km/h (3 Bft)
17.03.2023 04:42 21,7 °C 4,3 °C 49 % 69 % 1014,6 hPa 0,0 l/m² 11,3 km/h (2 Bft) O-SO 112 ° 0 min 0 W/m² -0,9 °C 0,4 °C 16,1 km/h (3 Bft)
17.03.2023 04:43 21,7 °C 4,3 °C 49 % 69 % 1014,5 hPa 0,0 l/m² 16,1 km/h (3 Bft) O-SO 112 ° 0 min 0 W/m² -0,9 °C -2,3 °C 19,3 km/h (3 Bft)
17.03.2023 04:44 21,8 °C 4,3 °C 49 % 70 % 1014,5 hPa 0,0 l/m² 12,9 km/h (3 Bft) O-SO 112 ° 0 min 0 W/m² -0,7 °C -0,6 °C 16,1 km/h (3 Bft)
17.03.2023 04:45 21,7 °C 4,2 °C 49 % 69 % 1014,6 hPa 0,0 l/m² 12,9 km/h (3 Bft) O-SO 112 ° 0 min 0 W/m² -1,0 °C -0,7 °C 14,5 km/h (3 Bft)
17.03.2023 04:46 21,7 °C 4,2 °C 49 % 70 % 1014,6 hPa 0,0 l/m² 12,9 km/h (3 Bft) O-SO 112 ° 0 min 0 W/m² -0,8 °C -0,7 °C 16,1 km/h (3 Bft)
17.03.2023 04:47 21,7 °C 4,2 °C 49 % 70 % 1014,5 hPa 0,0 l/m² 12,9 km/h (3 Bft) O-SO 112 ° 0 min 0 W/m² -0,8 °C -0,7 °C 16,1 km/h (3 Bft)
17.03.2023 04:48 21,7 °C 4,2 °C 49 % 70 % 1014,5 hPa 0,0 l/m² 12,9 km/h (3 Bft) O-SO 112 ° 0 min 0 W/m² -0,8 °C -0,7 °C 16,1 km/h (3 Bft)
17.03.2023 04:49 21,7 °C 4,2 °C 49 % 69 % 1014,4 hPa 0,0 l/m² 11,3 km/h (2 Bft) O-SO 112 ° 0 min 0 W/m² -1,0 °C 0,3 °C 16,1 km/h (3 Bft)
17.03.2023 04:50 21,7 °C 4,2 °C 49 % 70 % 1014,5 hPa 0,0 l/m² 9,7 km/h (2 Bft) O-SO 112 ° 0 min 0 W/m² -0,8 °C 1,4 °C 12,9 km/h (3 Bft)
17.03.2023 04:51 21,7 °C 4,2 °C 49 % 70 % 1014,5 hPa 0,0 l/m² 11,3 km/h (2 Bft) O-SO 112 ° 0 min 0 W/m² -0,8 °C 0,3 °C 17,7 km/h (3 Bft)
17.03.2023 04:52 21,7 °C 4,2 °C 49 % 70 % 1014,5 hPa 0,0 l/m² 9,7 km/h (2 Bft) O-SO 112 ° 0 min 0 W/m² -0,8 °C 1,4 °C 11,3 km/h (2 Bft)
17.03.2023 04:53 21,7 °C 4,2 °C 49 % 70 % 1014,5 hPa 0,0 l/m² 11,3 km/h (2 Bft) O-SO 112 ° 0 min 0 W/m² -0,8 °C 0,3 °C 16,1 km/h (3 Bft)
17.03.2023 04:54 21,7 °C 4,2 °C 49 % 70 % 1014,5 hPa 0,0 l/m² 12,9 km/h (3 Bft) O 90 ° 0 min 0 W/m² -0,8 °C -0,7 °C 14,5 km/h (3 Bft)
17.03.2023 04:55 21,7 °C 4,2 °C 49 % 70 % 1014,5 hPa 0,0 l/m² 8,0 km/h (2 Bft) O-SO 112 ° 0 min 0 W/m² -0,8 °C 2,8 °C 11,3 km/h (2 Bft)
17.03.2023 04:56 21,7 °C 4,2 °C 49 % 70 % 1014,5 hPa 0,0 l/m² 11,3 km/h (2 Bft) O 90 ° 0 min 0 W/m² -0,8 °C 0,3 °C 14,5 km/h (3 Bft)
17.03.2023 04:57 21,7 °C 4,2 °C 49 % 70 % 1014,5 hPa 0,0 l/m² 8,0 km/h (2 Bft) O 90 ° 0 min 0 W/m² -0,8 °C 2,8 °C 14,5 km/h (3 Bft)
17.03.2023 04:58 21,7 °C 4,2 °C 49 % 70 % 1014,5 hPa 0,0 l/m² 9,7 km/h (2 Bft) O 90 ° 0 min 0 W/m² -0,8 °C 1,4 °C 11,3 km/h (2 Bft)
17.03.2023 04:59 21,7 °C 4,1 °C 49 % 70 % 1014,4 hPa 0,0 l/m² 11,3 km/h (2 Bft) O 90 ° 0 min 0 W/m² -0,9 °C 0,2 °C 12,9 km/h (3 Bft)
17.03.2023 05:00 21,7 °C 4,2 °C 49 % 70 % 1014,4 hPa 0,0 l/m² 9,7 km/h (2 Bft) O 90 ° 0 min 0 W/m² -0,8 °C 1,4 °C 12,9 km/h (3 Bft)
17.03.2023 05:01 21,7 °C 4,2 °C 49 % 70 % 1014,5 hPa 0,0 l/m² 9,7 km/h (2 Bft) O 90 ° 0 min 0 W/m² -0,8 °C 1,4 °C 11,3 km/h (2 Bft)
17.03.2023 05:02 21,7 °C 4,1 °C 49 % 70 % 1014,4 hPa 0,0 l/m² 11,3 km/h (2 Bft) O 90 ° 0 min 0 W/m² -0,9 °C 0,2 °C 16,1 km/h (3 Bft)
17.03.2023 05:03 21,7 °C 4,1 °C 49 % 71 % 1014,4 hPa 0,0 l/m² 9,7 km/h (2 Bft) O 90 ° 0 min 0 W/m² -0,7 °C 1,3 °C 12,9 km/h (3 Bft)
17.03.2023 05:04 21,7 °C 4,1 °C 49 % 71 % 1014,3 hPa 0,0 l/m² 8,0 km/h (2 Bft) O-SO 112 ° 0 min 0 W/m² -0,7 °C 2,7 °C 9,7 km/h (2 Bft)
17.03.2023 05:05 21,7 °C 4,1 °C 49 % 71 % 1014,3 hPa 0,0 l/m² 9,7 km/h (2 Bft) O-SO 112 ° 0 min 0 W/m² -0,7 °C 1,3 °C 11,3 km/h (2 Bft)
17.03.2023 05:06 21,7 °C 4,0 °C 49 % 71 % 1014,3 hPa 0,0 l/m² 9,7 km/h (2 Bft) O 90 ° 0 min 0 W/m² -0,8 °C 1,2 °C 14,5 km/h (3 Bft)
17.03.2023 05:07 21,7 °C 4,0 °C 49 % 71 % 1014,4 hPa 0,0 l/m² 9,7 km/h (2 Bft) O 90 ° 0 min 0 W/m² -0,8 °C 1,2 °C 11,3 km/h (2 Bft)
17.03.2023 05:08 21,7 °C 4,0 °C 49 % 71 % 1014,3 hPa 0,0 l/m² 9,7 km/h (2 Bft) O-SO 112 ° 0 min 0 W/m² -0,8 °C 1,2 °C 11,3 km/h (2 Bft)
17.03.2023 05:09 21,7 °C 3,9 °C 49 % 71 % 1014,3 hPa 0,0 l/m² 11,3 km/h (2 Bft) O-SO 112 ° 0 min 0 W/m² -0,9 °C -0,1 °C 14,5 km/h (3 Bft)
17.03.2023 05:10 21,7 °C 4,0 °C 49 % 71 % 1014,3 hPa 0,0 l/m² 11,3 km/h (2 Bft) O 90 ° 0 min 0 W/m² -0,8 °C 0,1 °C 12,9 km/h (3 Bft)
17.03.2023 05:11 21,7 °C 3,9 °C 49 % 71 % 1014,3 hPa 0,0 l/m² 11,3 km/h (2 Bft) O 90 ° 0 min 0 W/m² -0,9 °C -0,1 °C 14,5 km/h (3 Bft)
17.03.2023 05:12 21,7 °C 3,9 °C 49 % 71 % 1014,3 hPa 0,0 l/m² 9,7 km/h (2 Bft) O-SO 112 ° 0 min 0 W/m² -0,9 °C 1,1 °C 12,9 km/h (3 Bft)
17.03.2023 05:13 21,7 °C 3,9 °C 49 % 71 % 1014,3 hPa 0,0 l/m² 8,0 km/h (2 Bft) O-SO 112 ° 0 min 0 W/m² -0,9 °C 2,4 °C 11,3 km/h (2 Bft)
17.03.2023 05:14 21,7 °C 3,9 °C 49 % 71 % 1014,3 hPa 0,0 l/m² 8,0 km/h (2 Bft) O-SO 112 ° 0 min 0 W/m² -0,9 °C 2,4 °C 12,9 km/h (3 Bft)
17.03.2023 05:15 21,7 °C 3,9 °C 49 % 71 % 1014,3 hPa 0,0 l/m² 11,3 km/h (2 Bft) O-SO 112 ° 0 min 0 W/m² -0,9 °C -0,1 °C 14,5 km/h (3 Bft)
17.03.2023 05:16 21,7 °C 3,8 °C 49 % 71 % 1014,2 hPa 0,0 l/m² 12,9 km/h (3 Bft) O 90 ° 0 min 0 W/m² -1,0 °C -1,2 °C 14,5 km/h (3 Bft)
17.03.2023 05:17 21,7 °C 3,9 °C 49 % 71 % 1014,3 hPa 0,0 l/m² 11,3 km/h (2 Bft) O 90 ° 0 min 0 W/m² -0,9 °C -0,1 °C 14,5 km/h (3 Bft)
17.03.2023 05:18 21,7 °C 3,9 °C 49 % 71 % 1014,2 hPa 0,0 l/m² 11,3 km/h (2 Bft) O 90 ° 0 min 0 W/m² -0,9 °C -0,1 °C 12,9 km/h (3 Bft)
17.03.2023 05:19 21,7 °C 3,9 °C 49 % 71 % 1014,3 hPa 0,0 l/m² 11,3 km/h (2 Bft) O 90 ° 0 min 0 W/m² -0,9 °C -0,1 °C 12,9 km/h (3 Bft)
17.03.2023 05:20 21,7 °C 3,8 °C 49 % 71 % 1014,2 hPa 0,0 l/m² 11,3 km/h (2 Bft) O 90 ° 0 min 0 W/m² -1,0 °C -0,2 °C 14,5 km/h (3 Bft)
17.03.2023 05:21 21,7 °C 3,8 °C 49 % 71 % 1014,1 hPa 0,0 l/m² 9,7 km/h (2 Bft) O-SO 112 ° 0 min 0 W/m² -1,0 °C 1,0 °C 14,5 km/h (3 Bft)
17.03.2023 05:22 21,7 °C 3,8 °C 49 % 71 % 1014,1 hPa 0,0 l/m² 11,3 km/h (2 Bft) O 90 ° 0 min 0 W/m² -1,0 °C -0,2 °C 14,5 km/h (3 Bft)
17.03.2023 05:23 21,7 °C 3,8 °C 49 % 71 % 1014,1 hPa 0,0 l/m² 11,3 km/h (2 Bft) O 90 ° 0 min 0 W/m² -1,0 °C -0,2 °C 16,1 km/h (3 Bft)
17.03.2023 05:24 21,7 °C 3,8 °C 49 % 72 % 1014,1 hPa 0,0 l/m² 14,5 km/h (3 Bft) O 90 ° 0 min 0 W/m² -0,8 °C -2,1 °C 17,7 km/h (3 Bft)
17.03.2023 05:25 21,7 °C 3,8 °C 49 % 71 % 1014,1 hPa 0,0 l/m² 14,5 km/h (3 Bft) O 90 ° 0 min 0 W/m² -1,0 °C -2,1 °C 16,1 km/h (3 Bft)
17.03.2023 05:26 21,7 °C 3,8 °C 49 % 71 % 1014,1 hPa 0,0 l/m² 14,5 km/h (3 Bft) O 90 ° 0 min 0 W/m² -1,0 °C -2,1 °C 16,1 km/h (3 Bft)
17.03.2023 05:27 21,7 °C 3,8 °C 49 % 71 % 1014,0 hPa 0,0 l/m² 14,5 km/h (3 Bft) O 90 ° 0 min 0 W/m² -1,0 °C -2,1 °C 17,7 km/h (3 Bft)
17.03.2023 05:28 21,7 °C 3,8 °C 49 % 71 % 1014,1 hPa 0,0 l/m² 12,9 km/h (3 Bft) O 90 ° 0 min 0 W/m² -1,0 °C -1,2 °C 12,9 km/h (3 Bft)
17.03.2023 05:29 21,7 °C 3,8 °C 49 % 71 % 1014,0 hPa 0,0 l/m² 12,9 km/h (3 Bft) O 90 ° 0 min 0 W/m² -1,0 °C -1,2 °C 16,1 km/h (3 Bft)
17.03.2023 05:30 21,7 °C 3,8 °C 49 % 71 % 1014,0 hPa 0,0 l/m² 14,5 km/h (3 Bft) O 90 ° 0 min 0 W/m² -1,0 °C -2,1 °C 16,1 km/h (3 Bft)
17.03.2023 05:31 21,7 °C 3,8 °C 49 % 71 % 1014,0 hPa 0,0 l/m² 12,9 km/h (3 Bft) O-SO 112 ° 0 min 0 W/m² -1,0 °C -1,2 °C 16,1 km/h (3 Bft)
17.03.2023 05:32 21,7 °C 3,8 °C 49 % 71 % 1014,0 hPa 0,0 l/m² 11,3 km/h (2 Bft) O-SO 112 ° 0 min 0 W/m² -1,0 °C -0,2 °C 14,5 km/h (3 Bft)
17.03.2023 05:33 21,7 °C 3,8 °C 49 % 71 % 1014,2 hPa 0,0 l/m² 11,3 km/h (2 Bft) O 90 ° 0 min 0 W/m² -1,0 °C -0,2 °C 14,5 km/h (3 Bft)
17.03.2023 05:34 21,7 °C 3,8 °C 49 % 71 % 1014,2 hPa 0,0 l/m² 9,7 km/h (2 Bft) O 90 ° 0 min 0 W/m² -1,0 °C 1,0 °C 12,9 km/h (3 Bft)
17.03.2023 05:35 21,7 °C 3,8 °C 49 % 71 % 1014,1 hPa 0,0 l/m² 11,3 km/h (2 Bft) O 90 ° 0 min 0 W/m² -1,0 °C -0,2 °C 12,9 km/h (3 Bft)
17.03.2023 05:36 21,7 °C 3,8 °C 49 % 71 % 1014,2 hPa 0,0 l/m² 9,7 km/h (2 Bft) O 90 ° 0 min 0 W/m² -1,0 °C 1,0 °C 12,9 km/h (3 Bft)
17.03.2023 05:37 21,7 °C 3,8 °C 49 % 71 % 1014,3 hPa 0,0 l/m² 8,0 km/h (2 Bft) O 90 ° 0 min 0 W/m² -1,0 °C 2,3 °C 11,3 km/h (2 Bft)
17.03.2023 05:38 21,7 °C 3,8 °C 49 % 71 % 1014,2 hPa 0,0 l/m² 9,7 km/h (2 Bft) O 90 ° 0 min 0 W/m² -1,0 °C 1,0 °C 12,9 km/h (3 Bft)
17.03.2023 05:39 21,7 °C 3,8 °C 49 % 71 % 1014,3 hPa 0,0 l/m² 8,0 km/h (2 Bft) O 90 ° 0 min 0 W/m² -1,0 °C 2,3 °C 11,3 km/h (2 Bft)
17.03.2023 05:40 21,7 °C 3,8 °C 49 % 71 % 1014,3 hPa 0,0 l/m² 9,7 km/h (2 Bft) O 90 ° 0 min 0 W/m² -1,0 °C 1,0 °C 11,3 km/h (2 Bft)
17.03.2023 05:41 21,7 °C 3,8 °C 49 % 71 % 1014,3 hPa 0,0 l/m² 9,7 km/h (2 Bft) O 90 ° 0 min 0 W/m² -1,0 °C 1,0 °C 11,3 km/h (2 Bft)
17.03.2023 05:42 21,7 °C 3,8 °C 49 % 71 % 1014,3 hPa 0,0 l/m² 9,7 km/h (2 Bft) O 90 ° 0 min 0 W/m² -1,0 °C 1,0 °C 14,5 km/h (3 Bft)
17.03.2023 05:43 21,7 °C 3,8 °C 49 % 71 % 1014,2 hPa 0,0 l/m² 11,3 km/h (2 Bft) O 90 ° 0 min 0 W/m² -1,0 °C -0,2 °C 12,9 km/h (3 Bft)
17.03.2023 05:44 21,7 °C 3,8 °C 49 % 71 % 1014,3 hPa 0,0 l/m² 11,3 km/h (2 Bft) O 90 ° 0 min 0 W/m² -1,0 °C -0,2 °C 14,5 km/h (3 Bft)
17.03.2023 05:45 21,7 °C 3,8 °C 49 % 71 % 1014,3 hPa 0,0 l/m² 11,3 km/h (2 Bft) O 90 ° 0 min 0 W/m² -1,0 °C -0,2 °C 14,5 km/h (3 Bft)
17.03.2023 05:46 21,7 °C 3,8 °C 49 % 71 % 1014,3 hPa 0,0 l/m² 9,7 km/h (2 Bft) O 90 ° 0 min 0 W/m² -1,0 °C 1,0 °C 12,9 km/h (3 Bft)
17.03.2023 05:47 21,7 °C 3,8 °C 49 % 71 % 1014,3 hPa 0,0 l/m² 12,9 km/h (3 Bft) O 90 ° 0 min 0 W/m² -1,0 °C -1,2 °C 17,7 km/h (3 Bft)
17.03.2023 05:48 21,7 °C 3,8 °C 49 % 71 % 1014,3 hPa 0,0 l/m² 8,0 km/h (2 Bft) O 90 ° 0 min 0 W/m² -1,0 °C 2,3 °C 11,3 km/h (2 Bft)
17.03.2023 05:54 21,7 °C 3,8 °C 49 % 71 % 1014,3 hPa 0,0 l/m² 6,8 km/h (2 Bft) O 89 ° 0 min 0 W/m² -1,0 °C 3,4 °C 9,7 km/h (2 Bft)
17.03.2023 05:56 21,8 °C 3,8 °C 49 % 71 % 1014,3 hPa 0,0 l/m² 9,0 km/h (2 Bft) O 100 ° 0 min 0 W/m² -1,0 °C 1,5 °C 11,3 km/h (2 Bft)
17.03.2023 05:57 21,8 °C 3,8 °C 49 % 71 % 1014,2 hPa 0,0 l/m² 9,6 km/h (2 Bft) O-SO 103 ° 0 min 0 W/m² -1,0 °C 1,0 °C 12,9 km/h (3 Bft)
17.03.2023 05:59 21,8 °C 3,8 °C 49 % 71 % 1014,2 hPa 0,0 l/m² 10,8 km/h (2 Bft) O 84 ° 0 min 0 W/m² -1,0 °C 0,2 °C 14,5 km/h (3 Bft)
17.03.2023 06:00 21,8 °C 3,8 °C 49 % 70 % 1014,3 hPa 0,0 l/m² 10,5 km/h (2 Bft) O 89 ° 0 min 0 W/m² -1,2 °C 0,4 °C 14,5 km/h (3 Bft)
17.03.2023 06:02 21,8 °C 3,8 °C 49 % 70 % 1014,2 hPa 0,0 l/m² 11,9 km/h (2 Bft) O 88 ° 0 min 0 W/m² -1,2 °C -0,6 °C 16,1 km/h (3 Bft)
17.03.2023 06:03 21,8 °C 3,8 °C 49 % 70 % 1014,2 hPa 0,0 l/m² 10,5 km/h (2 Bft) O 90 ° 0 min 0 W/m² -1,2 °C 0,4 °C 14,5 km/h (3 Bft)
17.03.2023 06:05 21,8 °C 3,8 °C 49 % 70 % 1014,2 hPa 0,0 l/m² 11,5 km/h (2 Bft) O 98 ° 0 min 0 W/m² -1,2 °C -0,3 °C 16,1 km/h (3 Bft)
17.03.2023 06:07 21,8 °C 3,9 °C 49 % 70 % 1014,3 hPa 0,0 l/m² 10,9 km/h (2 Bft) O 82 ° 0 min 0 W/m² -1,1 °C 0,2 °C 14,5 km/h (3 Bft)
17.03.2023 06:09 21,8 °C 3,8 °C 49 % 70 % 1014,4 hPa 0,0 l/m² 9,1 km/h (2 Bft) O 88 ° 0 min 0 W/m² -1,2 °C 1,4 °C 12,9 km/h (3 Bft)
17.03.2023 06:10 21,9 °C 3,8 °C 49 % 70 % 1014,3 hPa 0,0 l/m² 10,5 km/h (2 Bft) O 82 ° 0 min 0 W/m² -1,2 °C 0,4 °C 12,9 km/h (3 Bft)
17.03.2023 06:12 21,9 °C 3,8 °C 49 % 70 % 1014,3 hPa 0,0 l/m² 10,2 km/h (2 Bft) O 86 ° 0 min 0 W/m² -1,2 °C 0,6 °C 14,5 km/h (3 Bft)
17.03.2023 06:13 21,9 °C 3,8 °C 49 % 70 % 1014,4 hPa 0,0 l/m² 11,2 km/h (2 Bft) O 94 ° 0 min 0 W/m² -1,2 °C -0,1 °C 16,1 km/h (3 Bft)
17.03.2023 06:15 21,9 °C 3,8 °C 50 % 70 % 1014,3 hPa 0,0 l/m² 10,9 km/h (2 Bft) O 99 ° 0 min 0 W/m² -1,2 °C 0,1 °C 16,1 km/h (3 Bft)
17.03.2023 06:17 21,9 °C 3,8 °C 50 % 70 % 1014,3 hPa 0,0 l/m² 13,5 km/h (3 Bft) O 94 ° 0 min 0 W/m² -1,2 °C -1,5 °C 17,7 km/h (3 Bft)
17.03.2023 06:19 21,9 °C 3,8 °C 50 % 70 % 1014,2 hPa 0,0 l/m² 12,5 km/h (2 Bft) O 94 ° 0 min 0 W/m² -1,2 °C -0,9 °C 16,1 km/h (3 Bft)
17.03.2023 06:20 21,9 °C 3,8 °C 50 % 70 % 1014,2 hPa 0,0 l/m² 13,5 km/h (3 Bft) O 98 ° 0 min 0 W/m² -1,2 °C -1,5 °C 17,7 km/h (3 Bft)
17.03.2023 06:22 21,9 °C 3,8 °C 50 % 70 % 1014,2 hPa 0,0 l/m² 14,9 km/h (3 Bft) O-SO 104 ° 0 min 0 W/m² -1,2 °C -2,3 °C 17,7 km/h (3 Bft)
17.03.2023 06:23 21,9 °C 3,8 °C 50 % 70 % 1014,1 hPa 0,0 l/m² 14,9 km/h (3 Bft) O 87 ° 0 min 0 W/m² -1,2 °C -2,3 °C 17,7 km/h (3 Bft)
17.03.2023 06:25 21,9 °C 3,9 °C 50 % 70 % 1014,1 hPa 0,0 l/m² 15,7 km/h (3 Bft) O-SO 106 ° 0 min 0 W/m² -1,1 °C -2,6 °C 19,3 km/h (3 Bft)
17.03.2023 06:27 21,9 °C 3,9 °C 50 % 70 % 1014,1 hPa 0,0 l/m² 14,8 km/h (3 Bft) O-SO 110 ° 0 min 0 W/m² -1,1 °C -2,1 °C 19,3 km/h (3 Bft)
17.03.2023 06:29 22,0 °C 3,9 °C 50 % 70 % 1014,2 hPa 0,0 l/m² 13,0 km/h (3 Bft) O 84 ° 0 min 0 W/m² -1,1 °C -1,1 °C 17,7 km/h (3 Bft)
17.03.2023 06:30 22,0 °C 3,9 °C 50 % 69 % 1014,2 hPa 0,0 l/m² 14,7 km/h (3 Bft) O 101 ° 0 min 5 W/m² -1,3 °C -2,1 °C 20,9 km/h (4 Bft)
17.03.2023 06:32 22,0 °C 3,9 °C 50 % 70 % 1014,2 hPa 0,0 l/m² 14,2 km/h (3 Bft) O 86 ° 0 min 5 W/m² -1,1 °C -1,8 °C 19,3 km/h (3 Bft)
17.03.2023 06:33 22,0 °C 3,9 °C 50 % 69 % 1014,1 hPa 0,0 l/m² 14,3 km/h (3 Bft) O-NO 68 ° 0 min 5 W/m² -1,3 °C -1,9 °C 17,7 km/h (3 Bft)
17.03.2023 06:34 22,0 °C 4,0 °C 50 % 69 % 1014,1 hPa 0,0 l/m² 11,9 km/h (2 Bft) O 98 ° 0 min 7 W/m² -1,2 °C -0,3 °C 14,5 km/h (3 Bft)
17.03.2023 06:36 22,0 °C 3,9 °C 50 % 69 % 1014,1 hPa 0,0 l/m² 11,9 km/h (2 Bft) O 80 ° 0 min 9 W/m² -1,3 °C -0,4 °C 16,1 km/h (3 Bft)
17.03.2023 06:38 22,0 °C 3,9 °C 50 % 69 % 1014,1 hPa 0,0 l/m² 12,7 km/h (3 Bft) O 88 ° 0 min 9 W/m² -1,3 °C -0,9 °C 16,1 km/h (3 Bft)
17.03.2023 06:40 22,0 °C 3,9 °C 50 % 69 % 1014,0 hPa 0,0 l/m² 13,7 km/h (3 Bft) O 96 ° 0 min 11 W/m² -1,3 °C -1,5 °C 19,3 km/h (3 Bft)
17.03.2023 06:41 22,1 °C 3,9 °C 50 % 70 % 1014,0 hPa 0,0 l/m² 14,2 km/h (3 Bft) O 90 ° 0 min 12 W/m² -1,1 °C -1,8 °C 17,7 km/h (3 Bft)
17.03.2023 06:42 22,0 °C 3,9 °C 50 % 69 % 1014,0 hPa 0,0 l/m² 15,3 km/h (3 Bft) O-SO 109 ° 0 min 14 W/m² -1,3 °C -2,4 °C 17,7 km/h (3 Bft)
17.03.2023 06:43 22,0 °C 3,9 °C 50 % 69 % 1014,0 hPa 0,0 l/m² 15,9 km/h (3 Bft) O-SO 107 ° 0 min 14 W/m² -1,3 °C -2,7 °C 19,3 km/h (3 Bft)
17.03.2023 06:45 22,0 °C 3,9 °C 50 % 69 % 1013,9 hPa 0,0 l/m² 14,1 km/h (3 Bft) O 92 ° 0 min 16 W/m² -1,3 °C -1,8 °C 17,7 km/h (3 Bft)
17.03.2023 06:47 22,0 °C 4,0 °C 50 % 69 % 1013,9 hPa 0,0 l/m² 15,8 km/h (3 Bft) O-SO 103 ° 0 min 18 W/m² -1,2 °C -2,5 °C 19,3 km/h (3 Bft)
17.03.2023 06:49 22,1 °C 4,0 °C 50 % 69 % 1013,9 hPa 0,0 l/m² 14,6 km/h (3 Bft) O 88 ° 0 min 19 W/m² -1,2 °C -1,9 °C 19,3 km/h (3 Bft)
17.03.2023 06:50 22,0 °C 4,0 °C 50 % 69 % 1013,9 hPa 0,0 l/m² 16,0 km/h (3 Bft) O 99 ° 0 min 21 W/m² -1,2 °C -2,7 °C 22,5 km/h (4 Bft)
17.03.2023 06:52 22,0 °C 4,0 °C 49 % 69 % 1013,9 hPa 0,0 l/m² 16,3 km/h (3 Bft) O-SO 107 ° 0 min 21 W/m² -1,2 °C -2,8 °C 19,3 km/h (3 Bft)
17.03.2023 06:53 22,0 °C 4,0 °C 46 % 69 % 1013,9 hPa 0,0 l/m² 17,7 km/h (3 Bft) O 101 ° 0 min 23 W/m² -1,2 °C -3,5 °C 24,1 km/h (4 Bft)
17.03.2023 06:55 22,0 °C 4,1 °C 45 % 69 % 1013,9 hPa 0,0 l/m² 13,8 km/h (3 Bft) O 97 ° 0 min 25 W/m² -1,1 °C -1,4 °C 19,3 km/h (3 Bft)
17.03.2023 06:57 21,9 °C 4,1 °C 45 % 69 % 1013,9 hPa 0,0 l/m² 12,0 km/h (2 Bft) O 100 ° 0 min 28 W/m² -1,1 °C -0,3 °C 16,1 km/h (3 Bft)
17.03.2023 06:59 21,9 °C 4,0 °C 45 % 69 % 1013,9 hPa 0,0 l/m² 14,4 km/h (3 Bft) O 92 ° 0 min 30 W/m² -1,2 °C -1,8 °C 19,3 km/h (3 Bft)
17.03.2023 07:00 21,9 °C 4,0 °C 45 % 69 % 1013,9 hPa 0,0 l/m² 16,5 km/h (3 Bft) O-SO 110 ° 0 min 32 W/m² -1,2 °C -2,9 °C 17,7 km/h (3 Bft)
17.03.2023 07:02 21,9 °C 4,0 °C 46 % 69 % 1013,9 hPa 0,0 l/m² 12,1 km/h (2 Bft) O 94 ° 0 min 35 W/m² -1,2 °C -0,5 °C 16,1 km/h (3 Bft)
17.03.2023 07:03 21,9 °C 4,1 °C 46 % 69 % 1013,9 hPa 0,0 l/m² 13,3 km/h (3 Bft) O 96 ° 0 min 37 W/m² -1,1 °C -1,1 °C 17,7 km/h (3 Bft)
17.03.2023 07:05 21,8 °C 4,1 °C 46 % 69 % 1013,9 hPa 0,0 l/m² 12,8 km/h (3 Bft) O-SO 108 ° 0 min 39 W/m² -1,1 °C -0,8 °C 17,7 km/h (3 Bft)
17.03.2023 07:07 21,8 °C 4,0 °C 46 % 69 % 1013,9 hPa 0,0 l/m² 12,5 km/h (2 Bft) O-SO 110 ° 0 min 44 W/m² -1,2 °C -0,7 °C 16,1 km/h (3 Bft)
17.03.2023 07:09 21,9 °C 4,0 °C 46 % 69 % 1013,7 hPa 0,0 l/m² 13,6 km/h (3 Bft) O 94 ° 0 min 46 W/m² -1,2 °C -1,4 °C 17,7 km/h (3 Bft)
17.03.2023 07:10 21,8 °C 4,0 °C 46 % 69 % 1013,8 hPa 0,0 l/m² 15,7 km/h (3 Bft) O 94 ° 0 min 47 W/m² -1,2 °C -2,5 °C 20,9 km/h (4 Bft)
17.03.2023 07:12 21,8 °C 4,0 °C 46 % 69 % 1013,8 hPa 0,0 l/m² 14,9 km/h (3 Bft) O 95 ° 0 min 47 W/m² -1,2 °C -2,1 °C 19,3 km/h (3 Bft)
17.03.2023 07:13 21,8 °C 4,1 °C 46 % 69 % 1013,8 hPa 0,0 l/m² 17,0 km/h (3 Bft) O-SO 107 ° 0 min 49 W/m² -1,1 °C -3,0 °C 19,3 km/h (3 Bft)
17.03.2023 07:15 21,9 °C 4,1 °C 46 % 69 % 1013,7 hPa 0,0 l/m² 16,2 km/h (3 Bft) O 97 ° 0 min 51 W/m² -1,1 °C -2,6 °C 20,9 km/h (4 Bft)
17.03.2023 07:17 21,9 °C 4,1 °C 46 % 69 % 1013,6 hPa 0,0 l/m² 15,2 km/h (3 Bft) O-SO 106 ° 2 min 53 W/m² -1,1 °C -2,1 °C 19,3 km/h (3 Bft)
17.03.2023 07:19 21,8 °C 4,2 °C 46 % 69 % 1013,5 hPa 0,0 l/m² 15,6 km/h (3 Bft) O 87 ° 2 min 58 W/m² -1,0 °C -2,2 °C 22,5 km/h (4 Bft)
17.03.2023 07:20 21,8 °C 4,2 °C 46 % 69 % 1013,6 hPa 0,0 l/m² 16,7 km/h (3 Bft) O-SO 102 ° 1 min 58 W/m² -1,0 °C -2,7 °C 20,9 km/h (4 Bft)
17.03.2023 07:22 21,8 °C 4,2 °C 46 % 68 % 1013,5 hPa 0,0 l/m² 16,4 km/h (3 Bft) O-SO 109 ° 2 min 62 W/m² -1,2 °C -2,6 °C 20,9 km/h (4 Bft)
17.03.2023 07:23 21,9 °C 4,2 °C 46 % 68 % 1013,5 hPa 0,0 l/m² 16,2 km/h (3 Bft) O 98 ° 1 min 63 W/m² -1,2 °C -2,5 °C 19,3 km/h (3 Bft)
17.03.2023 07:25 21,9 °C 4,3 °C 46 % 68 % 1013,4 hPa 0,0 l/m² 17,6 km/h (3 Bft) O 101 ° 2 min 65 W/m² -1,1 °C -3,0 °C 24,1 km/h (4 Bft)
17.03.2023 07:27 21,9 °C 4,3 °C 46 % 68 % 1013,3 hPa 0,0 l/m² 17,4 km/h (3 Bft) O 101 ° 2 min 65 W/m² -1,1 °C -3,0 °C 22,5 km/h (4 Bft)
17.03.2023 07:29 21,9 °C 4,3 °C 46 % 68 % 1013,3 hPa 0,0 l/m² 17,7 km/h (3 Bft) O 90 ° 2 min 63 W/m² -1,1 °C -3,1 °C 22,5 km/h (4 Bft)
17.03.2023 07:30 21,9 °C 4,3 °C 46 % 68 % 1013,3 hPa 0,0 l/m² 17,8 km/h (3 Bft) O 96 ° 1 min 62 W/m² -1,1 °C -3,1 °C 22,5 km/h (4 Bft)
17.03.2023 07:32 21,9 °C 4,4 °C 46 % 68 % 1013,4 hPa 0,0 l/m² 15,2 km/h (3 Bft) O 96 ° 2 min 62 W/m² -1,0 °C -1,8 °C 17,7 km/h (3 Bft)
17.03.2023 07:33 21,9 °C 4,4 °C 46 % 68 % 1013,4 hPa 0,0 l/m² 14,6 km/h (3 Bft) O 98 ° 1 min 62 W/m² -1,0 °C -1,4 °C 17,7 km/h (3 Bft)
17.03.2023 07:35 21,9 °C 4,4 °C 46 % 67 % 1013,4 hPa 0,0 l/m² 17,2 km/h (3 Bft) O 85 ° 2 min 63 W/m² -1,2 °C -2,7 °C 24,1 km/h (4 Bft)
17.03.2023 07:37 21,9 °C 4,4 °C 46 % 67 % 1013,4 hPa 0,0 l/m² 14,3 km/h (3 Bft) O-SO 105 ° 2 min 69 W/m² -1,2 °C -1,3 °C 17,7 km/h (3 Bft)
17.03.2023 07:39 21,9 °C 4,5 °C 46 % 68 % 1013,4 hPa 0,0 l/m² 14,6 km/h (3 Bft) O 101 ° 2 min 62 W/m² -0,9 °C -1,3 °C 20,9 km/h (4 Bft)
17.03.2023 07:40 21,9 °C 4,5 °C 46 % 68 % 1013,5 hPa 0,0 l/m² 13,2 km/h (3 Bft) O 98 ° 1 min 60 W/m² -0,9 °C -0,5 °C 16,1 km/h (3 Bft)
17.03.2023 07:42 21,9 °C 4,5 °C 46 % 68 % 1013,5 hPa 0,0 l/m² 13,3 km/h (3 Bft) O 89 ° 2 min 62 W/m² -0,9 °C -0,6 °C 17,7 km/h (3 Bft)
17.03.2023 07:44 21,9 °C 4,5 °C 46 % 67 % 1013,7 hPa 0,0 l/m² 12,5 km/h (2 Bft) O 96 ° 2 min 63 W/m² -1,1 °C -0,1 °C 17,7 km/h (3 Bft)
17.03.2023 07:46 21,9 °C 4,6 °C 46 % 67 % 1013,7 hPa 0,0 l/m² 10,4 km/h (2 Bft) O-SO 118 ° 2 min 70 W/m² -1,0 °C 1,3 °C 14,5 km/h (3 Bft)
17.03.2023 07:48 21,9 °C 4,6 °C 46 % 68 % 1013,6 hPa 0,0 l/m² 10,9 km/h (2 Bft) O-SO 111 ° 2 min 102 W/m² -0,8 °C 1,0 °C 14,5 km/h (3 Bft)
17.03.2023 07:50 21,9 °C 4,7 °C 46 % 67 % 1013,6 hPa 0,0 l/m² 11,0 km/h (2 Bft) O 100 ° 2 min 121 W/m² -0,9 °C 1,1 °C 14,5 km/h (3 Bft)
17.03.2023 07:51 21,9 °C 4,7 °C 46 % 68 % 1013,7 hPa 0,0 l/m² 8,2 km/h (2 Bft) O-SO 105 ° 1 min 130 W/m² -0,7 °C 3,1 °C 11,3 km/h (2 Bft)
17.03.2023 07:52 21,9 °C 4,8 °C 46 % 68 % 1013,7 hPa 0,0 l/m² 11,3 km/h (2 Bft) O-SO 113 ° 1 min 146 W/m² -0,6 °C 1,0 °C 12,9 km/h (3 Bft)
17.03.2023 07:53 21,9 °C 4,8 °C 46 % 67 % 1013,7 hPa 0,0 l/m² 10,5 km/h (2 Bft) O-SO 107 ° 1 min 151 W/m² -0,8 °C 1,5 °C 12,9 km/h (3 Bft)
17.03.2023 07:54 21,9 °C 4,9 °C 46 % 67 % 1013,6 hPa 0,0 l/m² 9,9 km/h (2 Bft) O 101 ° 1 min 156 W/m² -0,7 °C 2,0 °C 12,9 km/h (3 Bft)
17.03.2023 07:56 21,9 °C 5,1 °C 46 % 66 % 1013,7 hPa 0,0 l/m² 10,5 km/h (2 Bft) O 98 ° 2 min 155 W/m² -0,7 °C 1,8 °C 14,5 km/h (3 Bft)
17.03.2023 07:58 21,9 °C 5,3 °C 46 % 66 % 1013,9 hPa 0,0 l/m² 9,3 km/h (2 Bft) O-SO 102 ° 2 min 163 W/m² -0,5 °C 2,9 °C 11,3 km/h (2 Bft)
17.03.2023 08:00 21,9 °C 5,4 °C 46 % 66 % 1013,9 hPa 0,0 l/m² 7,8 km/h (2 Bft) O 99 ° 2 min 188 W/m² -0,4 °C 4,2 °C 11,3 km/h (2 Bft)
17.03.2023 08:01 21,9 °C 5,4 °C 47 % 66 % 1013,9 hPa 0,0 l/m² 7,3 km/h (2 Bft) O-SO 105 ° 1 min 181 W/m² -0,4 °C 4,6 °C 11,3 km/h (2 Bft)
17.03.2023 08:02 21,9 °C 5,4 °C 47 % 66 % 1014,0 hPa 0,0 l/m² 10,0 km/h (2 Bft) SO 125 ° 1 min 186 W/m² -0,4 °C 2,5 °C 14,5 km/h (3 Bft)
17.03.2023 08:05 21,9 °C 5,6 °C 47 % 64 % 1013,9 hPa 0,0 l/m² 10,1 km/h (2 Bft) SO 131 ° 3 min 190 W/m² -0,7 °C 2,7 °C 14,5 km/h (3 Bft)
17.03.2023 08:07 21,9 °C 5,7 °C 47 % 64 % 1013,9 hPa 0,0 l/m² 11,6 km/h (2 Bft) O-SO 113 ° 2 min 188 W/m² -0,6 °C 1,8 °C 14,5 km/h (3 Bft)
17.03.2023 08:09 21,9 °C 5,8 °C 47 % 63 % 1013,9 hPa 0,0 l/m² 10,7 km/h (2 Bft) O-SO 111 ° 2 min 206 W/m² -0,7 °C 2,5 °C 14,5 km/h (3 Bft)
17.03.2023 08:11 21,9 °C 5,8 °C 47 % 64 % 1013,8 hPa 0,0 l/m² 12,6 km/h (3 Bft) O 90 ° 2 min 207 W/m² -0,5 °C 1,3 °C 17,7 km/h (3 Bft)
17.03.2023 08:12 21,9 °C 5,9 °C 47 % 63 % 1013,7 hPa 0,0 l/m² 11,1 km/h (2 Bft) O-SO 111 ° 1 min 220 W/m² -0,6 °C 2,3 °C 14,5 km/h (3 Bft)
17.03.2023 08:13 21,9 °C 5,9 °C 47 % 64 % 1013,8 hPa 0,0 l/m² 12,3 km/h (2 Bft) O-SO 121 ° 1 min 241 W/m² -0,4 °C 1,6 °C 16,1 km/h (3 Bft)
17.03.2023 08:15 21,8 °C 6,1 °C 47 % 63 % 1013,8 hPa 0,0 l/m² 14,2 km/h (3 Bft) O-SO 122 ° 2 min 211 W/m² -0,4 °C 0,8 °C 20,9 km/h (4 Bft)
17.03.2023 08:17 21,9 °C 6,1 °C 47 % 63 % 1013,8 hPa 0,0 l/m² 13,9 km/h (3 Bft) O 84 ° 2 min 255 W/m² -0,4 °C 1,0 °C 17,7 km/h (3 Bft)
17.03.2023 08:19 21,9 °C 6,3 °C 47 % 63 % 1013,8 hPa 0,0 l/m² 12,7 km/h (3 Bft) O 95 ° 2 min 243 W/m² -0,2 °C 1,9 °C 19,3 km/h (3 Bft)
17.03.2023 08:21 21,9 °C 6,3 °C 47 % 62 % 1013,9 hPa 0,0 l/m² 14,1 km/h (3 Bft) O 92 ° 2 min 236 W/m² -0,4 °C 1,1 °C 17,7 km/h (3 Bft)
17.03.2023 08:22 21,9 °C 6,4 °C 47 % 63 % 1013,9 hPa 0,0 l/m² 15,1 km/h (3 Bft) O 93 ° 1 min 223 W/m² -0,1 °C 0,7 °C 20,9 km/h (4 Bft)
17.03.2023 08:23 21,9 °C 6,4 °C 47 % 63 % 1013,9 hPa 0,0 l/m² 16,1 km/h (3 Bft) O-SO 115 ° 1 min 209 W/m² -0,1 °C 0,3 °C 20,9 km/h (4 Bft)
17.03.2023 08:25 21,9 °C 6,4 °C 47 % 62 % 1013,9 hPa 0,0 l/m² 12,7 km/h (3 Bft) O-SO 107 ° 2 min 276 W/m² -0,3 °C 2,0 °C 17,7 km/h (3 Bft)
17.03.2023 08:27 21,8 °C 6,6 °C 47 % 63 % 1013,9 hPa 0,0 l/m² 11,9 km/h (2 Bft) O 101 ° 2 min 271 W/m² 0,1 °C 2,7 °C 19,3 km/h (3 Bft)
17.03.2023 08:29 21,9 °C 6,7 °C 47 % 62 % 1014,0 hPa 0,0 l/m² 14,4 km/h (3 Bft) O 87 ° 2 min 264 W/m² -0,1 °C 1,4 °C 19,3 km/h (3 Bft)
17.03.2023 08:31 21,9 °C 6,7 °C 47 % 61 % 1014,0 hPa 0,0 l/m² 14,3 km/h (3 Bft) O-SO 119 ° 2 min 207 W/m² -0,3 °C 1,5 °C 17,7 km/h (3 Bft)
17.03.2023 08:32 21,9 °C 6,7 °C 47 % 61 % 1014,0 hPa 0,0 l/m² 13,4 km/h (3 Bft) O-SO 104 ° 1 min 211 W/m² -0,3 °C 1,9 °C 17,7 km/h (3 Bft)
17.03.2023 08:33 21,9 °C 6,7 °C 47 % 61 % 1014,0 hPa 0,0 l/m² 12,0 km/h (2 Bft) O-SO 107 ° 1 min 227 W/m² -0,3 °C 2,7 °C 14,5 km/h (3 Bft)
17.03.2023 08:35 21,9 °C 6,8 °C 47 % 61 % 1014,0 hPa 0,0 l/m² 13,2 km/h (3 Bft) O-SO 103 ° 2 min 227 W/m² -0,2 °C 2,2 °C 17,7 km/h (3 Bft)
17.03.2023 08:37 21,9 °C 6,9 °C 47 % 61 % 1013,9 hPa 0,0 l/m² 14,9 km/h (3 Bft) O-SO 121 ° 2 min 236 W/m² -0,1 °C 1,4 °C 17,7 km/h (3 Bft)
17.03.2023 08:39 21,9 °C 6,9 °C 47 % 61 % 1013,7 hPa 0,0 l/m² 13,8 km/h (3 Bft) O-SO 112 ° 2 min 271 W/m² -0,1 °C 2,0 °C 17,7 km/h (3 Bft)
17.03.2023 08:41 21,9 °C 7,1 °C 47 % 60 % 1013,7 hPa 0,0 l/m² 14,9 km/h (3 Bft) O-SO 118 ° 2 min 218 W/m² -0,1 °C 1,7 °C 19,3 km/h (3 Bft)
17.03.2023 08:42 21,9 °C 7,1 °C 47 % 60 % 1013,8 hPa 0,0 l/m² 16,2 km/h (3 Bft) O-SO 120 ° 1 min 209 W/m² -0,1 °C 1,1 °C 20,9 km/h (4 Bft)
17.03.2023 08:43 21,9 °C 7,1 °C 47 % 60 % 1013,8 hPa 0,0 l/m² 13,8 km/h (3 Bft) O 98 ° 1 min 190 W/m² -0,1 °C 2,2 °C 19,3 km/h (3 Bft)
17.03.2023 08:45 21,9 °C 7,2 °C 47 % 62 % 1013,7 hPa 0,0 l/m² 11,9 km/h (2 Bft) O 100 ° 2 min 304 W/m² 0,4 °C 3,3 °C 16,1 km/h (3 Bft)
17.03.2023 08:47 21,8 °C 7,3 °C 47 % 61 % 1013,7 hPa 0,0 l/m² 12,7 km/h (3 Bft) O-SO 102 ° 2 min 288 W/m² 0,3 °C 3,0 °C 16,1 km/h (3 Bft)
17.03.2023 08:49 21,9 °C 7,4 °C 47 % 60 % 1013,7 hPa 0,0 l/m² 13,5 km/h (3 Bft) O-SO 110 ° 2 min 281 W/m² 0,2 °C 2,7 °C 20,9 km/h (4 Bft)
17.03.2023 08:51 21,8 °C 7,4 °C 47 % 58 % 1013,7 hPa 0,0 l/m² 14,1 km/h (3 Bft) O 97 ° 2 min 271 W/m² -0,3 °C 2,4 °C 19,3 km/h (3 Bft)
17.03.2023 08:52 21,8 °C 7,4 °C 47 % 59 % 1013,7 hPa 0,0 l/m² 16,5 km/h (3 Bft) O-SO 113 ° 1 min 287 W/m² -0,1 °C 1,3 °C 19,3 km/h (3 Bft)
17.03.2023 08:53 21,8 °C 7,4 °C 47 % 59 % 1013,7 hPa 0,0 l/m² 11,9 km/h (2 Bft) O-SO 115 ° 1 min 306 W/m² -0,1 °C 3,6 °C 16,1 km/h (3 Bft)
17.03.2023 08:55 21,8 °C 7,6 °C 47 % 60 % 1013,7 hPa 0,0 l/m² 14,1 km/h (3 Bft) O-SO 114 ° 2 min 357 W/m² 0,3 °C 2,7 °C 17,7 km/h (3 Bft)
17.03.2023 08:57 21,8 °C 7,7 °C 47 % 60 % 1013,6 hPa 0,0 l/m² 14,8 km/h (3 Bft) O-SO 112 ° 2 min 339 W/m² 0,4 °C 2,4 °C 19,3 km/h (3 Bft)
17.03.2023 08:59 21,8 °C 7,8 °C 47 % 60 % 1013,6 hPa 0,0 l/m² 12,9 km/h (3 Bft) O 79 ° 2 min 327 W/m² 0,5 °C 3,5 °C 20,9 km/h (4 Bft)
17.03.2023 09:01 21,8 °C 7,9 °C 47 % 59 % 1013,5 hPa 0,0 l/m² 12,5 km/h (2 Bft) O 92 ° 2 min 348 W/m² 0,4 °C 3,8 °C 17,7 km/h (3 Bft)
17.03.2023 09:02 21,8 °C 7,9 °C 47 % 58 % 1013,5 hPa 0,0 l/m² 15,3 km/h (3 Bft) O 101 ° 1 min 394 W/m² 0,2 °C 2,5 °C 19,3 km/h (3 Bft)
17.03.2023 09:03 21,8 °C 8,0 °C 47 % 58 % 1013,5 hPa 0,0 l/m² 13,5 km/h (3 Bft) O-SO 105 ° 1 min 385 W/m² 0,3 °C 3,4 °C 16,1 km/h (3 Bft)
17.03.2023 09:05 21,9 °C 8,1 °C 47 % 58 % 1013,6 hPa 0,0 l/m² 15,3 km/h (3 Bft) O-SO 112 ° 2 min 376 W/m² 0,3 °C 2,7 °C 20,9 km/h (4 Bft)
17.03.2023 09:07 21,9 °C 8,2 °C 47 % 57 % 1013,6 hPa 0,0 l/m² 14,2 km/h (3 Bft) SO 130 ° 2 min 434 W/m² 0,2 °C 3,3 °C 20,9 km/h (4 Bft)
17.03.2023 09:09 21,9 °C 8,2 °C 47 % 56 % 1013,7 hPa 0,0 l/m² 13,1 km/h (3 Bft) O-SO 110 ° 2 min 457 W/m² -0,0 °C 3,9 °C 20,9 km/h (4 Bft)
17.03.2023 09:11 22,0 °C 8,5 °C 47 % 59 % 1013,8 hPa 0,0 l/m² 10,1 km/h (2 Bft) O-SO 106 ° 2 min 469 W/m² 1,0 °C 5,9 °C 12,9 km/h (3 Bft)
17.03.2023 09:12 22,1 °C 8,7 °C 47 % 58 % 1013,7 hPa 0,0 l/m² 9,8 km/h (2 Bft) SO 127 ° 1 min 475 W/m² 0,9 °C 6,3 °C 16,1 km/h (3 Bft)
17.03.2023 09:13 22,1 °C 8,7 °C 47 % 56 % 1013,7 hPa 0,0 l/m² 13,9 km/h (3 Bft) SO 130 ° 1 min 478 W/m² 0,4 °C 4,1 °C 16,1 km/h (3 Bft)
17.03.2023 09:15 22,1 °C 8,7 °C 47 % 55 % 1013,8 hPa 0,0 l/m² 13,9 km/h (3 Bft) O-SO 122 ° 2 min 485 W/m² 0,2 °C 4,1 °C 19,3 km/h (3 Bft)
17.03.2023 09:17 22,2 °C 8,6 °C 47 % 57 % 1013,9 hPa 0,0 l/m² 15,1 km/h (3 Bft) SO 128 ° 2 min 452 W/m² 0,6 °C 3,4 °C 20,9 km/h (4 Bft)
17.03.2023 09:19 22,2 °C 8,6 °C 47 % 56 % 1013,7 hPa 0,0 l/m² 16,1 km/h (3 Bft) O-SO 114 ° 2 min 415 W/m² 0,3 °C 3,0 °C 19,3 km/h (3 Bft)
17.03.2023 09:21 22,2 °C 8,6 °C 47 % 57 % 1013,7 hPa 0,0 l/m² 12,6 km/h (3 Bft) O-SO 102 ° 2 min 396 W/m² 0,6 °C 4,6 °C 17,7 km/h (3 Bft)
17.03.2023 09:22 22,2 °C 8,7 °C 39 % 58 % 1013,7 hPa 0,0 l/m² 13,5 km/h (3 Bft) SO 131 ° 1 min 371 W/m² 0,9 °C 4,3 °C 17,7 km/h (3 Bft)
17.03.2023 09:23 22,2 °C 8,7 °C 39 % 57 % 1013,7 hPa 0,0 l/m² 13,6 km/h (3 Bft) O-SO 106 ° 1 min 334 W/m² 0,7 °C 4,2 °C 20,9 km/h (4 Bft)
17.03.2023 09:25 22,1 °C 8,6 °C 40 % 57 % 1013,6 hPa 0,0 l/m² 15,9 km/h (3 Bft) O-SO 117 ° 2 min 287 W/m² 0,6 °C 3,0 °C 20,9 km/h (4 Bft)
17.03.2023 09:27 22,1 °C 8,6 °C 41 % 58 % 1013,7 hPa 0,0 l/m² 11,0 km/h (2 Bft) SO 126 ° 2 min 346 W/m² 0,8 °C 5,5 °C 16,1 km/h (3 Bft)
17.03.2023 09:29 22,1 °C 8,6 °C 41 % 57 % 1013,6 hPa 0,0 l/m² 15,3 km/h (3 Bft) O-SO 113 ° 2 min 295 W/m² 0,6 °C 3,3 °C 20,9 km/h (4 Bft)
17.03.2023 09:31 22,1 °C 8,6 °C 41 % 57 % 1013,5 hPa 0,0 l/m² 15,0 km/h (3 Bft) O-SO 119 ° 2 min 338 W/m² 0,6 °C 3,4 °C 20,9 km/h (4 Bft)
17.03.2023 09:32 22,1 °C 8,7 °C 41 % 57 % 1013,6 hPa 0,0 l/m² 13,1 km/h (3 Bft) SO 126 ° 1 min 357 W/m² 0,7 °C 4,5 °C 16,1 km/h (3 Bft)
17.03.2023 09:33 22,1 °C 8,8 °C 41 % 59 % 1013,6 hPa 0,0 l/m² 14,3 km/h (3 Bft) O-SO 123 ° 1 min 287 W/m² 1,2 °C 4,0 °C 19,3 km/h (3 Bft)
17.03.2023 09:35 22,1 °C 8,7 °C 41 % 56 % 1013,7 hPa 0,0 l/m² 14,9 km/h (3 Bft) O-SO 123 ° 2 min 306 W/m² 0,4 °C 3,6 °C 20,9 km/h (4 Bft)
17.03.2023 09:37 22,1 °C 9,0 °C 41 % 58 % 1013,6 hPa 0,0 l/m² 13,9 km/h (3 Bft) O-SO 110 ° 2 min 468 W/m² 1,2 °C 4,4 °C 17,7 km/h (3 Bft)
17.03.2023 09:39 22,2 °C 9,1 °C 41 % 58 % 1013,7 hPa 0,0 l/m² 13,9 km/h (3 Bft) SO 134 ° 2 min 483 W/m² 1,3 °C 4,5 °C 19,3 km/h (3 Bft)
17.03.2023 09:41 22,2 °C 9,3 °C 41 % 57 % 1013,6 hPa 0,0 l/m² 11,2 km/h (2 Bft) SO 137 ° 2 min 443 W/m² 1,2 °C 6,1 °C 17,7 km/h (3 Bft)
17.03.2023 09:42 22,2 °C 9,4 °C 40 % 57 % 1013,6 hPa 0,0 l/m² 15,0 km/h (3 Bft) SO 132 ° 1 min 420 W/m² 1,3 °C 4,4 °C 25,7 km/h (4 Bft)
17.03.2023 09:43 22,3 °C 9,3 °C 40 % 54 % 1013,6 hPa 0,0 l/m² 17,3 km/h (3 Bft) SO 128 ° 1 min 434 W/m² 0,5 °C 3,3 °C 19,3 km/h (3 Bft)
17.03.2023 09:46 22,3 °C 9,3 °C 41 % 57 % 1013,7 hPa 0,0 l/m² 13,4 km/h (3 Bft) SO 140 ° 3 min 520 W/m² 1,2 °C 5,0 °C 17,7 km/h (3 Bft)
17.03.2023 09:49 22,3 °C 9,4 °C 41 % 56 % 1013,7 hPa 0,0 l/m² 16,1 km/h (3 Bft) O-SO 121 ° 3 min 517 W/m² 1,1 °C 3,9 °C 24,1 km/h (4 Bft)
17.03.2023 09:50 22,4 °C 9,4 °C 41 % 56 % 1013,7 hPa 0,0 l/m² 15,6 km/h (3 Bft) SO 136 ° 1 min 476 W/m² 1,1 °C 4,2 °C 19,3 km/h (3 Bft)
17.03.2023 09:52 22,4 °C 9,4 °C 41 % 56 % 1013,7 hPa 0,0 l/m² 14,0 km/h (3 Bft) SO 135 ° 2 min 485 W/m² 1,1 °C 4,9 °C 19,3 km/h (3 Bft)
17.03.2023 09:53 22,4 °C 9,4 °C 41 % 57 % 1013,7 hPa 0,0 l/m² 15,8 km/h (3 Bft) SO 126 ° 1 min 508 W/m² 1,3 °C 4,1 °C 20,9 km/h (4 Bft)
17.03.2023 09:54 22,4 °C 9,5 °C 41 % 56 % 1013,7 hPa 0,0 l/m² 15,8 km/h (3 Bft) O-SO 118 ° 1 min 508 W/m² 1,2 °C 4,2 °C 19,3 km/h (3 Bft)
17.03.2023 09:56 22,5 °C 9,5 °C 41 % 56 % 1013,8 hPa 0,0 l/m² 13,6 km/h (3 Bft) SO 126 ° 2 min 461 W/m² 1,2 °C 5,2 °C 17,7 km/h (3 Bft)
17.03.2023 09:58 22,5 °C 9,7 °C 41 % 57 % 1013,7 hPa 0,0 l/m² 13,1 km/h (3 Bft) O-SO 120 ° 2 min 473 W/m² 1,6 °C 5,6 °C 16,1 km/h (3 Bft)
17.03.2023 10:00 22,6 °C 9,8 °C 41 % 57 % 1013,6 hPa 0,0 l/m² 15,7 km/h (3 Bft) O-SO 109 ° 2 min 503 W/m² 1,7 °C 4,6 °C 19,3 km/h (3 Bft)
17.03.2023 10:01 22,6 °C 9,8 °C 41 % 56 % 1013,6 hPa 0,0 l/m² 16,5 km/h (3 Bft) S-SO 154 ° 1 min 478 W/m² 1,4 °C 4,3 °C 20,9 km/h (4 Bft)
17.03.2023 10:03 22,6 °C 9,9 °C 41 % 57 % 1013,7 hPa 0,0 l/m² 13,1 km/h (3 Bft) SO 136 ° 2 min 471 W/m² 1,8 °C 5,9 °C 19,3 km/h (3 Bft)
17.03.2023 10:05 22,6 °C 10,1 °C 41 % 57 % 1013,7 hPa 0,0 l/m² 13,7 km/h (3 Bft) O-SO 122 ° 2 min 483 W/m² 2,0 °C 5,8 °C 19,3 km/h (3 Bft)
17.03.2023 10:06 22,6 °C 10,1 °C 41 % 56 % 1013,6 hPa 0,0 l/m² 15,6 km/h (3 Bft) SO 132 ° 1 min 485 W/m² 1,7 °C 5,0 °C 19,3 km/h (3 Bft)
17.03.2023 10:08 22,7 °C 10,2 °C 41 % 58 % 1013,6 hPa 0,0 l/m² 13,3 km/h (3 Bft) SO 130 ° 2 min 483 W/m² 2,3 °C 6,1 °C 19,3 km/h (3 Bft)
17.03.2023 10:10 22,7 °C 10,3 °C 41 % 56 % 1013,6 hPa 0,0 l/m² 17,0 km/h (3 Bft) S-SO 157 ° 2 min 501 W/m² 1,9 °C 4,7 °C 24,1 km/h (4 Bft)
17.03.2023 10:11 22,7 °C 10,3 °C 41 % 57 % 1013,6 hPa 0,0 l/m² 14,5 km/h (3 Bft) S-SO 148 ° 1 min 508 W/m² 2,2 °C 5,7 °C 19,3 km/h (3 Bft)
17.03.2023 10:13 22,7 °C 10,4 °C 41 % 54 % 1013,6 hPa 0,0 l/m² 12,8 km/h (3 Bft) SO 144 ° 2 min 441 W/m² 1,5 °C 6,6 °C 19,3 km/h (3 Bft)
17.03.2023 10:15 22,7 °C 10,4 °C 41 % 54 % 1013,7 hPa 0,0 l/m² 16,1 km/h (3 Bft) SO 146 ° 2 min 492 W/m² 1,5 °C 5,2 °C 19,3 km/h (3 Bft)
17.03.2023 10:17 22,7 °C 10,5 °C 41 % 54 % 1013,7 hPa 0,0 l/m² 17,4 km/h (3 Bft) SO 144 ° 2 min 533 W/m² 1,6 °C 4,8 °C 24,1 km/h (4 Bft)
17.03.2023 10:19 22,8 °C 10,7 °C 41 % 54 % 1013,6 hPa 0,0 l/m² 16,1 km/h (3 Bft) SO 130 ° 2 min 538 W/m² 1,8 °C 5,5 °C 22,5 km/h (4 Bft)
17.03.2023 10:21 22,8 °C 10,8 °C 41 % 53 % 1013,6 hPa 0,0 l/m² 14,0 km/h (3 Bft) SO 143 ° 2 min 559 W/m² 1,6 °C 6,5 °C 19,3 km/h (3 Bft)
17.03.2023 10:22 22,8 °C 10,8 °C 41 % 53 % 1013,6 hPa 0,0 l/m² 16,2 km/h (3 Bft) S-SO 150 ° 1 min 564 W/m² 1,6 °C 5,6 °C 20,9 km/h (4 Bft)
17.03.2023 10:23 22,8 °C 10,9 °C 41 % 54 % 1013,6 hPa 0,0 l/m² 16,6 km/h (3 Bft) S-SO 152 ° 1 min 554 W/m² 2,0 °C 5,6 °C 19,3 km/h (3 Bft)
17.03.2023 10:26 22,8 °C 10,9 °C 41 % 55 % 1013,6 hPa 0,0 l/m² 14,9 km/h (3 Bft) SO 138 ° 3 min 538 W/m² 2,2 °C 6,3 °C 20,9 km/h (4 Bft)
17.03.2023 10:28 22,9 °C 10,9 °C 41 % 55 % 1013,6 hPa 0,0 l/m² 15,5 km/h (3 Bft) SO 130 ° 2 min 598 W/m² 2,2 °C 6,0 °C 19,3 km/h (3 Bft)
17.03.2023 10:30 22,9 °C 11,1 °C 41 % 53 % 1013,6 hPa 0,0 l/m² 14,3 km/h (3 Bft) S-SO 162 ° 2 min 605 W/m² 1,9 °C 6,8 °C 20,9 km/h (4 Bft)
17.03.2023 10:31 22,9 °C 11,2 °C 41 % 53 % 1013,6 hPa 0,0 l/m² 14,8 km/h (3 Bft) SO 126 ° 1 min 592 W/m² 2,0 °C 6,7 °C 17,7 km/h (3 Bft)
17.03.2023 10:33 22,9 °C 11,2 °C 41 % 54 % 1013,6 hPa 0,0 l/m² 17,3 km/h (3 Bft) S-SO 148 ° 2 min 559 W/m² 2,2 °C 5,7 °C 20,9 km/h (4 Bft)
17.03.2023 10:35 23,0 °C 11,2 °C 41 % 51 % 1013,6 hPa 0,0 l/m² 18,4 km/h (3 Bft) O-SO 121 ° 2 min 564 W/m² 1,4 °C 5,4 °C 25,7 km/h (4 Bft)
17.03.2023 10:37 23,0 °C 11,3 °C 41 % 52 % 1013,6 hPa 0,0 l/m² 17,4 km/h (3 Bft) SO 130 ° 2 min 536 W/m² 1,8 °C 5,8 °C 22,5 km/h (4 Bft)
17.03.2023 10:39 23,0 °C 11,3 °C 41 % 54 % 1013,6 hPa 0,0 l/m² 18,0 km/h (3 Bft) S-SO 157 ° 2 min 547 W/m² 2,3 °C 5,6 °C 24,1 km/h (4 Bft)
17.03.2023 10:41 23,1 °C 11,3 °C 41 % 53 % 1013,6 hPa 0,0 l/m² 15,5 km/h (3 Bft) S-SO 152 ° 2 min 527 W/m² 2,1 °C 6,5 °C 19,3 km/h (3 Bft)
17.03.2023 10:42 23,1 °C 11,3 °C 41 % 53 % 1013,6 hPa 0,0 l/m² 12,8 km/h (3 Bft) SO 130 ° 1 min 497 W/m² 2,1 °C 7,6 °C 14,5 km/h (3 Bft)
17.03.2023 10:43 23,1 °C 11,4 °C 41 % 52 % 1013,6 hPa 0,0 l/m² 8,9 km/h (2 Bft) S-SO 165 ° 1 min 494 W/m² 1,9 °C 9,8 °C 11,3 km/h (2 Bft)
17.03.2023 10:46 23,1 °C 11,4 °C 41 % 52 % 1013,5 hPa 0,0 l/m² 17,6 km/h (3 Bft) SO 136 ° 3 min 519 W/m² 1,9 °C 5,9 °C 20,9 km/h (4 Bft)
17.03.2023 10:48 23,1 °C 11,4 °C 41 % 53 % 1013,5 hPa 0,0 l/m² 12,0 km/h (2 Bft) SO 136 ° 2 min 492 W/m² 2,2 °C 8,1 °C 14,5 km/h (3 Bft)
17.03.2023 10:50 23,1 °C 11,6 °C 41 % 53 % 1013,5 hPa 0,0 l/m² 16,4 km/h (3 Bft) O-SO 122 ° 2 min 483 W/m² 2,4 °C 6,5 °C 20,9 km/h (4 Bft)
17.03.2023 10:51 23,1 °C 11,6 °C 41 % 52 % 1013,5 hPa 0,0 l/m² 14,7 km/h (3 Bft) S-SO 147 ° 1 min 496 W/m² 2,1 °C 7,2 °C 19,3 km/h (3 Bft)
17.03.2023 10:53 23,1 °C 11,5 °C 41 % 52 % 1013,5 hPa 0,0 l/m² 14,6 km/h (3 Bft) S-SO 148 ° 2 min 508 W/m² 2,0 °C 7,1 °C 19,3 km/h (3 Bft)
17.03.2023 10:55 23,2 °C 11,6 °C 41 % 53 % 1013,5 hPa 0,0 l/m² 15,9 km/h (3 Bft) S-SO 163 ° 2 min 594 W/m² 2,4 °C 6,7 °C 20,9 km/h (4 Bft)
17.03.2023 10:57 23,2 °C 11,6 °C 41 % 52 % 1013,5 hPa 0,0 l/m² 14,9 km/h (3 Bft) O-SO 118 ° 2 min 615 W/m² 2,1 °C 7,1 °C 22,5 km/h (4 Bft)
17.03.2023 10:59 23,2 °C 11,7 °C 41 % 50 % 1013,4 hPa 0,0 l/m² 18,6 km/h (3 Bft) S-SO 148 ° 2 min 705 W/m² 1,6 °C 5,9 °C 24,1 km/h (4 Bft)
17.03.2023 11:01 23,2 °C 11,9 °C 42 % 52 % 1013,5 hPa 0,0 l/m² 14,6 km/h (3 Bft) S-SO 151 ° 2 min 652 W/m² 2,4 °C 7,6 °C 19,3 km/h (3 Bft)
17.03.2023 11:02 23,2 °C 11,9 °C 42 % 51 % 1013,4 hPa 0,0 l/m² 20,1 km/h (4 Bft) SO 138 ° 1 min 698 W/m² 2,1 °C 5,7 °C 25,7 km/h (4 Bft)
17.03.2023 11:03 23,3 °C 11,9 °C 42 % 50 % 1013,4 hPa 0,0 l/m² 13,2 km/h (3 Bft) S-SO 154 ° 1 min 696 W/m² 1,8 °C 8,2 °C 16,1 km/h (3 Bft)
17.03.2023 11:06 23,3 °C 12,1 °C 42 % 54 % 1013,5 hPa 0,0 l/m² 15,1 km/h (3 Bft) O-SO 123 ° 3 min 679 W/m² 3,1 °C 7,6 °C 19,3 km/h (3 Bft)
17.03.2023 11:08 23,3 °C 12,2 °C 42 % 52 % 1013,5 hPa 0,0 l/m² 16,8 km/h (3 Bft) SO 137 ° 2 min 666 W/m² 2,6 °C 7,1 °C 22,5 km/h (4 Bft)
17.03.2023 11:10 23,3 °C 12,5 °C 42 % 52 % 1013,5 hPa 0,0 l/m² 12,3 km/h (2 Bft) S-SO 152 ° 2 min 719 W/m² 2,9 °C 9,3 °C 17,7 km/h (3 Bft)
17.03.2023 11:11 23,3 °C 12,4 °C 42 % 50 % 1013,5 hPa 0,0 l/m² 12,1 km/h (2 Bft) SO 144 ° 1 min 689 W/m² 2,3 °C 9,2 °C 16,1 km/h (3 Bft)
17.03.2023 11:12 23,3 °C 12,5 °C 42 % 51 % 1013,5 hPa 0,0 l/m² 13,4 km/h (3 Bft) SO 142 ° 1 min 729 W/m² 2,6 °C 8,8 °C 16,1 km/h (3 Bft)
17.03.2023 11:13 23,3 °C 12,4 °C 42 % 51 % 1013,4 hPa 0,0 l/m² 14,0 km/h (3 Bft) SO 133 ° 1 min 664 W/m² 2,6 °C 8,4 °C 17,7 km/h (3 Bft)
17.03.2023 11:16 23,3 °C 12,3 °C 42 % 52 % 1013,4 hPa 0,0 l/m² 17,5 km/h (3 Bft) SO 130 ° 3 min 359 W/m² 2,7 °C 7,0 °C 22,5 km/h (4 Bft)
17.03.2023 11:18 23,3 °C 12,1 °C 42 % 51 % 1013,5 hPa 0,0 l/m² 15,3 km/h (3 Bft) SO 130 ° 2 min 364 W/m² 2,3 °C 7,6 °C 24,1 km/h (4 Bft)
17.03.2023 11:20 23,3 °C 12,0 °C 42 % 52 % 1013,3 hPa 0,0 l/m² 16,5 km/h (3 Bft) SO 131 ° 2 min 364 W/m² 2,5 °C 7,0 °C 22,5 km/h (4 Bft)
17.03.2023 11:21 23,3 °C 11,9 °C 42 % 52 % 1013,3 hPa 0,0 l/m² 14,4 km/h (3 Bft) SO 138 ° 1 min 355 W/m² 2,4 °C 7,7 °C 17,7 km/h (3 Bft)
17.03.2023 11:23 23,3 °C 11,9 °C 42 % 52 % 1013,3 hPa 0,0 l/m² 17,6 km/h (3 Bft) O-SO 115 ° 2 min 348 W/m² 2,4 °C 6,5 °C 22,5 km/h (4 Bft)
17.03.2023 11:25 23,2 °C 11,8 °C 42 % 50 % 1013,2 hPa 0,0 l/m² 15,8 km/h (3 Bft) SO 126 ° 2 min 360 W/m² 1,7 °C 7,0 °C 20,9 km/h (4 Bft)
17.03.2023 11:27 23,2 °C 11,9 °C 42 % 51 % 1013,2 hPa 0,0 l/m² 15,1 km/h (3 Bft) S-SO 151 ° 2 min 353 W/m² 2,1 °C 7,4 °C 22,5 km/h (4 Bft)
17.03.2023 11:29 23,2 °C 11,9 °C 42 % 51 % 1013,1 hPa 0,0 l/m² 18,7 km/h (3 Bft) S-SO 148 ° 2 min 383 W/m² 2,1 °C 6,1 °C 22,5 km/h (4 Bft)
17.03.2023 11:31 23,2 °C 12,0 °C 42 % 53 % 1013,1 hPa 0,0 l/m² 13,5 km/h (3 Bft) S-SO 148 ° 2 min 390 W/m² 2,7 °C 8,2 °C 17,7 km/h (3 Bft)
17.03.2023 11:32 23,2 °C 12,1 °C 42 % 53 % 1013,0 hPa 0,0 l/m² 12,1 km/h (2 Bft) SO 142 ° 1 min 390 W/m² 2,8 °C 8,9 °C 14,5 km/h (3 Bft)
17.03.2023 11:33 23,2 °C 12,2 °C 42 % 51 % 1013,0 hPa 0,0 l/m² 15,4 km/h (3 Bft) SO 138 ° 1 min 671 W/m² 2,4 °C 7,6 °C 19,3 km/h (3 Bft)
17.03.2023 11:36 23,2 °C 12,7 °C 43 % 51 % 1013,0 hPa 0,0 l/m² 12,6 km/h (3 Bft) O-SO 115 ° 3 min 578 W/m² 2,8 °C 9,4 °C 17,7 km/h (3 Bft)
17.03.2023 11:38 23,1 °C 12,9 °C 43 % 52 % 1012,9 hPa 0,0 l/m² 15,8 km/h (3 Bft) SO 127 ° 2 min 482 W/m² 3,3 °C 8,4 °C 19,3 km/h (3 Bft)
17.03.2023 11:40 23,1 °C 12,9 °C 43 % 52 % 1012,9 hPa 0,0 l/m² 13,9 km/h (3 Bft) SO 133 ° 2 min 584 W/m² 3,3 °C 9,1 °C 19,3 km/h (3 Bft)
17.03.2023 11:41 23,1 °C 13,0 °C 43 % 51 % 1012,9 hPa 0,0 l/m² 14,5 km/h (3 Bft) S-SO 147 ° 1 min 617 W/m² 3,1 °C 9,0 °C 19,3 km/h (3 Bft)
17.03.2023 11:43 23,1 °C 13,1 °C 43 % 50 % 1012,9 hPa 0,0 l/m² 14,5 km/h (3 Bft) S-SO 159 ° 2 min 592 W/m² 2,9 °C 9,1 °C 19,3 km/h (3 Bft)
17.03.2023 11:45 23,1 °C 13,3 °C 43 % 49 % 1012,8 hPa 0,0 l/m² 15,3 km/h (3 Bft) SO 144 ° 2 min 587 W/m² 2,8 °C 9,0 °C 24,1 km/h (4 Bft)
17.03.2023 11:47 23,1 °C 13,4 °C 43 % 50 % 1012,8 hPa 0,0 l/m² 17,4 km/h (3 Bft) O-SO 117 ° 2 min 631 W/m² 3,2 °C 8,4 °C 22,5 km/h (4 Bft)
17.03.2023 11:49 23,1 °C 13,5 °C 43 % 50 % 1012,8 hPa 0,0 l/m² 15,2 km/h (3 Bft) SO 136 ° 2 min 601 W/m² 3,3 °C 9,3 °C 22,5 km/h (4 Bft)
17.03.2023 11:50 23,1 °C 13,7 °C 43 % 50 % 1012,8 hPa 0,0 l/m² 14,6 km/h (3 Bft) SO 144 ° 1 min 545 W/m² 3,5 °C 9,8 °C 17,7 km/h (3 Bft)
17.03.2023 11:52 23,1 °C 13,6 °C 43 % 50 % 1012,9 hPa 0,0 l/m² 14,9 km/h (3 Bft) S-SO 149 ° 2 min 483 W/m² 3,4 °C 9,5 °C 22,5 km/h (4 Bft)
17.03.2023 11:54 23,1 °C 13,4 °C 43 % 49 % 1012,8 hPa 0,0 l/m² 18,0 km/h (3 Bft) S-SO 148 ° 2 min 512 W/m² 2,9 °C 8,3 °C 24,1 km/h (4 Bft)
17.03.2023 11:56 23,1 °C 13,3 °C 43 % 48 % 1012,8 hPa 0,0 l/m² 15,5 km/h (3 Bft) SO 139 ° 2 min 366 W/m² 2,5 °C 9,0 °C 19,3 km/h (3 Bft)
17.03.2023 11:58 23,1 °C 13,3 °C 43 % 54 % 1012,8 hPa 0,0 l/m² 12,0 km/h (2 Bft) S-SO 165 ° 2 min 380 W/m² 4,2 °C 10,3 °C 19,3 km/h (3 Bft)
17.03.2023 12:00 23,1 °C 13,4 °C 43 % 49 % 1012,7 hPa 0,0 l/m² 16,8 km/h (3 Bft) O-SO 123 ° 2 min 410 W/m² 2,9 °C 8,6 °C 29,0 km/h (5 Bft)
17.03.2023 12:01 23,1 °C 13,3 °C 43 % 49 % 1012,7 hPa 0,0 l/m² 16,9 km/h (3 Bft) SO 137 ° 1 min 418 W/m² 2,8 °C 8,5 °C 22,5 km/h (4 Bft)
17.03.2023 12:02 23,1 °C 13,3 °C 43 % 50 % 1012,7 hPa 0,0 l/m² 13,6 km/h (3 Bft) O-SO 112 ° 1 min 385 W/m² 3,1 °C 9,7 °C 22,5 km/h (4 Bft)
17.03.2023 12:03 23,1 °C 13,3 °C 43 % 48 % 1012,7 hPa 0,0 l/m² 20,2 km/h (4 Bft) SO 126 ° 1 min 473 W/m² 2,5 °C 7,5 °C 24,1 km/h (4 Bft)
17.03.2023 12:04 23,0 °C 13,3 °C 43 % 48 % 1012,7 hPa 0,0 l/m² 20,5 km/h (4 Bft) SO 134 ° 1 min 538 W/m² 2,5 °C 7,4 °C 24,1 km/h (4 Bft)
17.03.2023 12:06 23,1 °C 13,4 °C 43 % 51 % 1012,7 hPa 0,0 l/m² 15,6 km/h (3 Bft) O-SO 112 ° 2 min 541 W/m² 3,5 °C 9,0 °C 20,9 km/h (4 Bft)
17.03.2023 12:08 23,0 °C 13,7 °C 43 % 49 % 1012,8 hPa 0,0 l/m² 17,0 km/h (3 Bft) SO 127 ° 2 min 554 W/m² 3,2 °C 8,9 °C 22,5 km/h (4 Bft)
17.03.2023 12:10 23,1 °C 13,7 °C 43 % 49 % 1012,8 hPa 0,0 l/m² 18,4 km/h (3 Bft) SO 128 ° 2 min 599 W/m² 3,2 °C 8,5 °C 22,5 km/h (4 Bft)
17.03.2023 12:11 23,1 °C 13,8 °C 43 % 50 % 1012,8 hPa 0,0 l/m² 14,6 km/h (3 Bft) O-SO 112 ° 1 min 617 W/m² 3,6 °C 9,9 °C 20,9 km/h (4 Bft)
17.03.2023 12:12 23,0 °C 13,9 °C 43 % 49 % 1012,8 hPa 0,0 l/m² 18,5 km/h (3 Bft) O-SO 118 ° 1 min 631 W/m² 3,4 °C 8,7 °C 22,5 km/h (4 Bft)
17.03.2023 12:13 23,0 °C 14,0 °C 43 % 47 % 1012,8 hPa 0,0 l/m² 13,6 km/h (3 Bft) S-SO 159 ° 1 min 603 W/m² 2,9 °C 10,5 °C 19,3 km/h (3 Bft)
17.03.2023 12:14 23,0 °C 14,1 °C 43 % 48 % 1012,8 hPa 0,0 l/m² 15,7 km/h (3 Bft) S-SO 150 ° 1 min 594 W/m² 3,3 °C 9,9 °C 19,3 km/h (3 Bft)
17.03.2023 12:16 23,1 °C 14,1 °C 44 % 48 % 1012,7 hPa 0,0 l/m² 15,1 km/h (3 Bft) SO 134 ° 2 min 564 W/m² 3,3 °C 10,1 °C 22,5 km/h (4 Bft)
17.03.2023 12:18 23,1 °C 14,1 °C 44 % 47 % 1012,6 hPa 0,0 l/m² 14,5 km/h (3 Bft) SO 134 ° 2 min 548 W/m² 3,0 °C 10,3 °C 20,9 km/h (4 Bft)
17.03.2023 12:20 23,1 °C 14,0 °C 44 % 48 % 1012,7 hPa 0,0 l/m² 14,1 km/h (3 Bft) SO 137 ° 2 min 469 W/m² 3,2 °C 10,3 °C 19,3 km/h (3 Bft)
17.03.2023 12:21 23,1 °C 14,0 °C 44 % 47 % 1012,6 hPa 0,0 l/m² 12,0 km/h (2 Bft) SO 140 ° 1 min 564 W/m² 2,9 °C 11,1 °C 16,1 km/h (3 Bft)
17.03.2023 12:22 23,1 °C 13,9 °C 44 % 48 % 1012,6 hPa 0,0 l/m² 13,0 km/h (3 Bft) SO 125 ° 1 min 564 W/m² 3,1 °C 10,6 °C 14,5 km/h (3 Bft)
17.03.2023 12:23 23,1 °C 14,0 °C 44 % 48 % 1012,7 hPa 0,0 l/m² 12,7 km/h (3 Bft) O-SO 115 ° 1 min 719 W/m² 3,2 °C 10,8 °C 17,7 km/h (3 Bft)
17.03.2023 12:24 23,1 °C 14,1 °C 44 % 47 % 1012,7 hPa 0,0 l/m² 13,2 km/h (3 Bft) SO 128 ° 1 min 686 W/m² 3,0 °C 10,8 °C 17,7 km/h (3 Bft)
17.03.2023 12:26 23,1 °C 14,4 °C 44 % 47 % 1012,7 hPa 0,0 l/m² 16,4 km/h (3 Bft) SO 128 ° 2 min 638 W/m² 3,2 °C 10,0 °C 24,1 km/h (4 Bft)
17.03.2023 12:28 23,1 °C 14,5 °C 44 % 46 % 1012,7 hPa 0,0 l/m² 17,9 km/h (3 Bft) SO 137 ° 2 min 645 W/m² 3,0 °C 9,7 °C 20,9 km/h (4 Bft)
17.03.2023 12:30 23,1 °C 14,6 °C 44 % 47 % 1012,6 hPa 0,0 l/m² 16,2 km/h (3 Bft) SO 133 ° 2 min 621 W/m² 3,4 °C 10,3 °C 22,5 km/h (4 Bft)
17.03.2023 12:31 23,1 °C 14,5 °C 45 % 46 % 1012,7 hPa 0,0 l/m² 15,7 km/h (3 Bft) SO 137 ° 1 min 577 W/m² 3,0 °C 10,4 °C 19,3 km/h (3 Bft)
17.03.2023 12:32 23,1 °C 14,4 °C 45 % 46 % 1012,7 hPa 0,0 l/m² 15,3 km/h (3 Bft) S-SO 161 ° 1 min 555 W/m² 2,9 °C 10,4 °C 19,3 km/h (3 Bft)
17.03.2023 12:33 23,1 °C 14,4 °C 45 % 46 % 1012,6 hPa 0,0 l/m² 14,0 km/h (3 Bft) S-SO 158 ° 1 min 476 W/m² 2,9 °C 10,8 °C 20,9 km/h (4 Bft)
17.03.2023 12:34 23,1 °C 14,4 °C 44 % 46 % 1012,6 hPa 0,0 l/m² 15,5 km/h (3 Bft) SO 144 ° 1 min 541 W/m² 2,9 °C 10,3 °C 19,3 km/h (3 Bft)
17.03.2023 12:36 23,1 °C 14,3 °C 44 % 46 % 1012,5 hPa 0,0 l/m² 16,5 km/h (3 Bft) O-SO 115 ° 2 min 520 W/m² 2,8 °C 9,9 °C 22,5 km/h (4 Bft)
17.03.2023 12:37 23,1 °C 14,3 °C 45 % 48 % 1012,6 hPa 0,0 l/m² 14,1 km/h (3 Bft) SO 132 ° 1 min 510 W/m² 3,4 °C 10,7 °C 20,9 km/h (4 Bft)
17.03.2023 12:38 23,1 °C 14,4 °C 45 % 49 % 1012,6 hPa 0,0 l/m² 10,3 km/h (2 Bft) SO 138 ° 1 min 550 W/m² 3,8 °C 12,3 °C 14,5 km/h (3 Bft)
17.03.2023 12:40 23,1 °C 14,6 °C 44 % 47 % 1012,6 hPa 0,0 l/m² 14,9 km/h (3 Bft) SO 137 ° 2 min 585 W/m² 3,4 °C 10,7 °C 20,9 km/h (4 Bft)
17.03.2023 12:41 23,1 °C 14,7 °C 45 % 51 % 1012,5 hPa 0,0 l/m² 12,8 km/h (3 Bft) SO 138 ° 1 min 536 W/m² 4,7 °C 11,6 °C 16,1 km/h (3 Bft)
17.03.2023 12:42 23,1 °C 14,7 °C 45 % 49 % 1012,5 hPa 0,0 l/m² 18,1 km/h (3 Bft) O-SO 121 ° 1 min 478 W/m² 4,1 °C 9,9 °C 22,5 km/h (4 Bft)
17.03.2023 12:43 23,1 °C 14,7 °C 44 % 45 % 1012,5 hPa 0,0 l/m² 17,6 km/h (3 Bft) S-SO 161 ° 1 min 478 W/m² 2,9 °C 10,0 °C 24,1 km/h (4 Bft)
17.03.2023 12:45 23,1 °C 14,7 °C 44 % 46 % 1012,5 hPa 0,0 l/m² 19,7 km/h (3 Bft) SO 132 ° 2 min 557 W/m² 3,2 °C 9,4 °C 24,1 km/h (4 Bft)
17.03.2023 12:47 23,1 °C 14,8 °C 44 % 46 % 1012,5 hPa 0,0 l/m² 17,9 km/h (3 Bft) S-SO 157 ° 2 min 510 W/m² 3,3 °C 10,1 °C 24,1 km/h (4 Bft)
17.03.2023 12:49 23,1 °C 14,7 °C 45 % 49 % 1012,6 hPa 0,0 l/m² 16,6 km/h (3 Bft) SO 146 ° 2 min 503 W/m² 4,1 °C 10,3 °C 22,5 km/h (4 Bft)
17.03.2023 12:50 23,1 °C 14,7 °C 45 % 45 % 1012,5 hPa 0,0 l/m² 15,6 km/h (3 Bft) S-SO 156 ° 1 min 522 W/m² 2,9 °C 10,6 °C 19,3 km/h (3 Bft)
17.03.2023 12:52 23,1 °C 14,8 °C 45 % 48 % 1012,5 hPa 0,0 l/m² 15,4 km/h (3 Bft) S-SO 149 ° 2 min 454 W/m² 3,9 °C 10,8 °C 22,5 km/h (4 Bft)
17.03.2023 12:53 23,0 °C 14,8 °C 45 % 51 % 1012,5 hPa 0,0 l/m² 14,9 km/h (3 Bft) SO 143 ° 1 min 454 W/m² 4,8 °C 11,0 °C 17,7 km/h (3 Bft)
17.03.2023 12:54 23,0 °C 14,9 °C 45 % 48 % 1012,5 hPa 0,0 l/m² 14,2 km/h (3 Bft) S-SO 150 ° 1 min 439 W/m² 4,0 °C 11,3 °C 17,7 km/h (3 Bft)
17.03.2023 12:56 23,0 °C 14,8 °C 45 % 50 % 1012,4 hPa 0,0 l/m² 16,0 km/h (3 Bft) S-SO 155 ° 2 min 418 W/m² 4,5 °C 10,6 °C 20,9 km/h (4 Bft)
17.03.2023 12:58 23,0 °C 14,8 °C 45 % 47 % 1012,4 hPa 0,0 l/m² 13,7 km/h (3 Bft) S-SO 157 ° 2 min 466 W/m² 3,6 °C 11,4 °C 20,9 km/h (4 Bft)
17.03.2023 13:00 23,0 °C 14,8 °C 45 % 49 % 1012,4 hPa 0,0 l/m² 16,0 km/h (3 Bft) SO 144 ° 2 min 418 W/m² 4,2 °C 10,6 °C 24,1 km/h (4 Bft)
17.03.2023 13:01 23,0 °C 14,8 °C 45 % 50 % 1012,3 hPa 0,0 l/m² 16,9 km/h (3 Bft) SO 141 ° 1 min 425 W/m² 4,5 °C 10,3 °C 22,5 km/h (4 Bft)
17.03.2023 13:02 23,0 °C 14,8 °C 45 % 47 % 1012,3 hPa 0,0 l/m² 17,8 km/h (3 Bft) SO 140 ° 1 min 432 W/m² 3,6 °C 10,1 °C 24,1 km/h (4 Bft)
17.03.2023 13:03 23,0 °C 14,8 °C 45 % 47 % 1012,2 hPa 0,0 l/m² 17,8 km/h (3 Bft) SO 134 ° 1 min 401 W/m² 3,6 °C 10,1 °C 20,9 km/h (4 Bft)
17.03.2023 13:04 23,0 °C 14,8 °C 45 % 46 % 1012,2 hPa 0,0 l/m² 16,8 km/h (3 Bft) SO 126 ° 1 min 376 W/m² 3,3 °C 10,4 °C 20,9 km/h (4 Bft)
17.03.2023 13:06 23,0 °C 14,8 °C 45 % 47 % 1012,2 hPa 0,0 l/m² 17,1 km/h (3 Bft) O-SO 111 ° 2 min 359 W/m² 3,6 °C 10,3 °C 24,1 km/h (4 Bft)
17.03.2023 13:08 23,0 °C 14,7 °C 45 % 48 % 1012,1 hPa 0,0 l/m² 17,9 km/h (3 Bft) SO 140 ° 2 min 343 W/m² 3,8 °C 9,9 °C 24,1 km/h (4 Bft)
17.03.2023 13:10 22,9 °C 14,7 °C 45 % 48 % 1012,1 hPa 0,0 l/m² 16,7 km/h (3 Bft) SO 133 ° 2 min 336 W/m² 3,8 °C 10,3 °C 20,9 km/h (4 Bft)
17.03.2023 13:11 22,9 °C 14,6 °C 45 % 48 % 1012,1 hPa 0,0 l/m² 16,9 km/h (3 Bft) SO 137 ° 1 min 336 W/m² 3,7 °C 10,1 °C 20,9 km/h (4 Bft)
17.03.2023 13:12 22,9 °C 14,6 °C 45 % 47 % 1012,1 hPa 0,0 l/m² 19,9 km/h (4 Bft) O-SO 123 ° 1 min 339 W/m² 3,4 °C 9,3 °C 24,1 km/h (4 Bft)
17.03.2023 13:13 22,9 °C 14,6 °C 45 % 47 % 1012,1 hPa 0,0 l/m² 14,0 km/h (3 Bft) SO 144 ° 1 min 346 W/m² 3,4 °C 11,1 °C 19,3 km/h (3 Bft)
17.03.2023 13:14 22,9 °C 14,7 °C 45 % 47 % 1012,1 hPa 0,0 l/m² 11,7 km/h (2 Bft) SO 135 ° 1 min 371 W/m² 3,5 °C 12,0 °C 14,5 km/h (3 Bft)
17.03.2023 13:15 22,9 °C 14,7 °C 45 % 48 % 1012,1 hPa 0,0 l/m² 13,9 km/h (3 Bft) S-SO 158 ° 1 min 396 W/m² 3,8 °C 11,2 °C 16,1 km/h (3 Bft)
17.03.2023 13:17 22,9 °C 14,8 °C 45 % 47 % 1012,1 hPa 0,0 l/m² 15,0 km/h (3 Bft) O-SO 123 ° 2 min 410 W/m² 3,6 °C 10,9 °C 20,9 km/h (4 Bft)
17.03.2023 13:19 22,9 °C 14,9 °C 45 % 48 % 1012,1 hPa 0,0 l/m² 13,7 km/h (3 Bft) O-SO 123 ° 2 min 357 W/m² 4,0 °C 11,5 °C 19,3 km/h (3 Bft)
17.03.2023 13:20 22,9 °C 15,0 °C 45 % 48 % 1012,1 hPa 0,0 l/m² 13,4 km/h (3 Bft) SO 134 ° 1 min 355 W/m² 4,1 °C 11,7 °C 16,1 km/h (3 Bft)
17.03.2023 13:21 22,9 °C 15,1 °C 45 % 48 % 1012,1 hPa 0,0 l/m² 18,5 km/h (3 Bft) SO 131 ° 1 min 369 W/m² 4,2 °C 10,3 °C 25,7 km/h (4 Bft)
17.03.2023 13:22 22,9 °C 15,0 °C 45 % 44 % 1012,1 hPa 0,0 l/m² 23,0 km/h (4 Bft) SO 132 ° 1 min 381 W/m² 2,9 °C 9,0 °C 27,4 km/h (5 Bft)
17.03.2023 13:23 22,9 °C 14,9 °C 45 % 45 % 1012,1 hPa 0,0 l/m² 16,2 km/h (3 Bft) SO 128 ° 1 min 390 W/m² 3,1 °C 10,7 °C 20,9 km/h (4 Bft)
17.03.2023 13:24 22,9 °C 14,9 °C 45 % 47 % 1012,1 hPa 0,0 l/m² 13,2 km/h (3 Bft) S-SO 157 ° 1 min 390 W/m² 3,7 °C 11,7 °C 19,3 km/h (3 Bft)
17.03.2023 13:26 22,9 °C 14,9 °C 45 % 45 % 1012,1 hPa 0,0 l/m² 14,1 km/h (3 Bft) SO 126 ° 2 min 369 W/m² 3,1 °C 11,4 °C 19,3 km/h (3 Bft)
17.03.2023 13:28 22,9 °C 14,9 °C 45 % 44 % 1012,1 hPa 0,0 l/m² 14,9 km/h (3 Bft) O-SO 116 ° 2 min 381 W/m² 2,8 °C 11,1 °C 19,3 km/h (3 Bft)
17.03.2023 13:30 22,9 °C 15,1 °C 45 % 47 % 1012,1 hPa 0,0 l/m² 13,2 km/h (3 Bft) SO 144 ° 2 min 394 W/m² 3,9 °C 11,9 °C 17,7 km/h (3 Bft)
17.03.2023 13:31 22,9 °C 15,1 °C 45 % 47 % 1012,1 hPa 0,0 l/m² 17,1 km/h (3 Bft) SO 134 ° 1 min 411 W/m² 3,9 °C 10,7 °C 25,7 km/h (4 Bft)
17.03.2023 13:32 22,9 °C 15,1 °C 45 % 45 % 1012,1 hPa 0,0 l/m² 17,6 km/h (3 Bft) SO 133 ° 1 min 417 W/m² 3,3 °C 10,5 °C 22,5 km/h (4 Bft)
17.03.2023 13:33 22,9 °C 15,1 °C 45 % 45 % 1012,1 hPa 0,0 l/m² 16,0 km/h (3 Bft) S-SO 156 ° 1 min 387 W/m² 3,3 °C 11,0 °C 22,5 km/h (4 Bft)
17.03.2023 13:34 22,9 °C 15,1 °C 45 % 44 % 1012,0 hPa 0,0 l/m² 14,8 km/h (3 Bft) SO 144 ° 1 min 346 W/m² 2,9 °C 11,4 °C 19,3 km/h (3 Bft)
17.03.2023 13:36 22,9 °C 15,1 °C 45 % 45 % 1012,1 hPa 0,0 l/m² 15,6 km/h (3 Bft) SO 128 ° 2 min 311 W/m² 3,3 °C 11,1 °C 22,5 km/h (4 Bft)
17.03.2023 13:38 22,9 °C 15,1 °C 45 % 47 % 1012,1 hPa 0,0 l/m² 14,6 km/h (3 Bft) O-SO 119 ° 2 min 295 W/m² 3,9 °C 11,4 °C 19,3 km/h (3 Bft)
17.03.2023 13:40 22,9 °C 15,1 °C 45 % 49 % 1012,1 hPa 0,0 l/m² 12,9 km/h (3 Bft) SO 140 ° 2 min 295 W/m² 4,5 °C 12,0 °C 19,3 km/h (3 Bft)
17.03.2023 13:41 22,9 °C 15,0 °C 45 % 43 % 1012,1 hPa 0,0 l/m² 17,8 km/h (3 Bft) SO 126 ° 1 min 287 W/m² 2,5 °C 10,3 °C 22,5 km/h (4 Bft)
17.03.2023 13:42 22,9 °C 14,9 °C 45 % 45 % 1012,1 hPa 0,0 l/m² 16,7 km/h (3 Bft) SO 142 ° 1 min 279 W/m² 3,1 °C 10,5 °C 19,3 km/h (3 Bft)
17.03.2023 13:44 22,9 °C 14,9 °C 45 % 46 % 1012,1 hPa 0,0 l/m² 15,8 km/h (3 Bft) SO 129 ° 2 min 264 W/m² 3,4 °C 10,8 °C 20,9 km/h (4 Bft)
17.03.2023 13:45 22,9 °C 14,9 °C 45 % 43 % 1012,1 hPa 0,0 l/m² 13,7 km/h (3 Bft) SO 145 ° 1 min 257 W/m² 2,4 °C 11,5 °C 17,7 km/h (3 Bft)
17.03.2023 13:47 22,8 °C 14,9 °C 45 % 45 % 1012,1 hPa 0,0 l/m² 12,5 km/h (2 Bft) SO 142 ° 2 min 248 W/m² 3,1 °C 12,0 °C 16,1 km/h (3 Bft)
17.03.2023 13:49 22,8 °C 14,8 °C 45 % 47 % 1012,0 hPa 0,0 l/m² 13,6 km/h (3 Bft) SO 132 ° 2 min 244 W/m² 3,6 °C 11,4 °C 16,1 km/h (3 Bft)
17.03.2023 13:50 22,9 °C 14,8 °C 45 % 44 % 1012,0 hPa 0,0 l/m² 19,1 km/h (3 Bft) O-SO 117 ° 1 min 244 W/m² 2,7 °C 9,7 °C 22,5 km/h (4 Bft)
17.03.2023 13:52 22,8 °C 14,8 °C 45 % 46 % 1011,9 hPa 0,0 l/m² 15,9 km/h (3 Bft) S-SO 160 ° 2 min 250 W/m² 3,3 °C 10,7 °C 22,5 km/h (4 Bft)
17.03.2023 13:53 22,8 °C 14,8 °C 45 % 46 % 1012,0 hPa 0,0 l/m² 18,0 km/h (3 Bft) SO 134 ° 1 min 251 W/m² 3,3 °C 10,0 °C 24,1 km/h (4 Bft)
17.03.2023 13:54 22,8 °C 14,8 °C 45 % 45 % 1012,0 hPa 0,0 l/m² 16,6 km/h (3 Bft) SO 132 ° 1 min 253 W/m² 3,0 °C 10,4 °C 22,5 km/h (4 Bft)
17.03.2023 13:56 22,8 °C 14,8 °C 45 % 44 % 1011,9 hPa 0,0 l/m² 14,4 km/h (3 Bft) SO 138 ° 2 min 262 W/m² 2,7 °C 11,2 °C 19,3 km/h (3 Bft)
17.03.2023 13:58 22,8 °C 14,8 °C 45 % 45 % 1011,9 hPa 0,0 l/m² 11,7 km/h (2 Bft) SO 125 ° 2 min 264 W/m² 3,0 °C 12,2 °C 17,7 km/h (3 Bft)
17.03.2023 14:00 22,8 °C 14,9 °C 45 % 47 % 1011,9 hPa 0,0 l/m² 12,1 km/h (2 Bft) O-SO 120 ° 2 min 264 W/m² 3,7 °C 12,1 °C 16,1 km/h (3 Bft)
17.03.2023 14:01 22,8 °C 14,9 °C 45 % 46 % 1012,0 hPa 0,0 l/m² 14,7 km/h (3 Bft) SO 127 ° 1 min 265 W/m² 3,4 °C 11,2 °C 20,9 km/h (4 Bft)
17.03.2023 14:02 22,8 °C 14,9 °C 45 % 45 % 1012,0 hPa 0,0 l/m² 14,8 km/h (3 Bft) SO 130 ° 1 min 265 W/m² 3,1 °C 11,1 °C 20,9 km/h (4 Bft)
17.03.2023 14:04 22,8 °C 14,9 °C 45 % 46 % 1011,9 hPa 0,0 l/m² 16,2 km/h (3 Bft) SO 124 ° 2 min 265 W/m² 3,4 °C 10,7 °C 25,7 km/h (4 Bft)
17.03.2023 14:05 22,7 °C 14,9 °C 45 % 44 % 1011,9 hPa 0,0 l/m² 15,0 km/h (3 Bft) O-SO 119 ° 1 min 265 W/m² 2,8 °C 11,1 °C 20,9 km/h (4 Bft)
17.03.2023 14:07 22,7 °C 14,9 °C 45 % 48 % 1011,9 hPa 0,0 l/m² 9,7 km/h (2 Bft) SO 138 ° 2 min 262 W/m² 4,0 °C 13,1 °C 14,5 km/h (3 Bft)
17.03.2023 14:09 22,7 °C 14,9 °C 45 % 47 % 1011,9 hPa 0,0 l/m² 10,9 km/h (2 Bft) SO 142 ° 2 min 260 W/m² 3,7 °C 12,6 °C 14,5 km/h (3 Bft)
17.03.2023 14:10 22,7 °C 14,9 °C 45 % 47 % 1011,9 hPa 0,0 l/m² 11,2 km/h (2 Bft) SO 132 ° 1 min 258 W/m² 3,7 °C 12,5 °C 16,1 km/h (3 Bft)
17.03.2023 14:12 22,7 °C 14,9 °C 45 % 48 % 1011,9 hPa 0,0 l/m² 11,5 km/h (2 Bft) SO 127 ° 2 min 255 W/m² 4,0 °C 12,4 °C 14,5 km/h (3 Bft)
17.03.2023 14:13 22,7 °C 14,9 °C 45 % 46 % 1011,9 hPa 0,0 l/m² 14,4 km/h (3 Bft) SO 126 ° 1 min 251 W/m² 3,4 °C 11,3 °C 19,3 km/h (3 Bft)
17.03.2023 14:14 22,7 °C 14,9 °C 45 % 46 % 1011,8 hPa 0,0 l/m² 12,6 km/h (3 Bft) O-SO 120 ° 1 min 251 W/m² 3,4 °C 11,9 °C 16,1 km/h (3 Bft)
17.03.2023 14:16 22,7 °C 14,9 °C 45 % 46 % 1011,9 hPa 0,0 l/m² 11,9 km/h (2 Bft) O-SO 118 ° 2 min 250 W/m² 3,4 °C 12,2 °C 14,5 km/h (3 Bft)
17.03.2023 14:18 22,7 °C 14,9 °C 45 % 45 % 1011,8 hPa 0,0 l/m² 15,1 km/h (3 Bft) SO 124 ° 2 min 246 W/m² 3,1 °C 11,0 °C 24,1 km/h (4 Bft)
17.03.2023 14:20 22,7 °C 14,9 °C 45 % 45 % 1011,8 hPa 0,0 l/m² 14,1 km/h (3 Bft) SO 128 ° 2 min 246 W/m² 3,1 °C 11,4 °C 20,9 km/h (4 Bft)
17.03.2023 14:21 22,7 °C 15,0 °C 45 % 44 % 1011,7 hPa 0,0 l/m² 17,3 km/h (3 Bft) O-SO 118 ° 1 min 246 W/m² 2,9 °C 10,5 °C 22,5 km/h (4 Bft)
17.03.2023 14:22 22,7 °C 14,9 °C 45 % 45 % 1011,7 hPa 0,0 l/m² 17,5 km/h (3 Bft) O-SO 113 ° 1 min 248 W/m² 3,1 °C 10,3 °C 22,5 km/h (4 Bft)
17.03.2023 14:24 22,7 °C 15,0 °C 45 % 46 % 1011,7 hPa 0,0 l/m² 16,6 km/h (3 Bft) O-SO 116 ° 2 min 250 W/m² 3,5 °C 10,7 °C 20,9 km/h (4 Bft)
17.03.2023 14:25 22,7 °C 15,0 °C 45 % 45 % 1011,8 hPa 0,0 l/m² 16,9 km/h (3 Bft) SO 130 ° 1 min 251 W/m² 3,2 °C 10,6 °C 22,5 km/h (4 Bft)
17.03.2023 14:27 22,7 °C 14,9 °C 45 % 47 % 1011,7 hPa 0,0 l/m² 14,2 km/h (3 Bft) O-SO 111 ° 2 min 251 W/m² 3,7 °C 11,3 °C 19,3 km/h (3 Bft)
17.03.2023 14:29 22,7 °C 15,0 °C 45 % 45 % 1011,6 hPa 0,0 l/m² 16,7 km/h (3 Bft) SO 130 ° 2 min 250 W/m² 3,2 °C 10,7 °C 20,9 km/h (4 Bft)
17.03.2023 14:30 22,7 °C 15,0 °C 45 % 45 % 1011,6 hPa 0,0 l/m² 13,5 km/h (3 Bft) SO 138 ° 1 min 246 W/m² 3,2 °C 11,7 °C 17,7 km/h (3 Bft)
17.03.2023 14:32 22,6 °C 15,1 °C 45 % 46 % 1011,6 hPa 0,0 l/m² 11,1 km/h (2 Bft) SO 137 ° 2 min 241 W/m² 3,6 °C 12,8 °C 16,1 km/h (3 Bft)
17.03.2023 14:33 22,6 °C 15,1 °C 45 % 44 % 1011,6 hPa 0,0 l/m² 10,6 km/h (2 Bft) SO 129 ° 1 min 239 W/m² 2,9 °C 13,0 °C 14,5 km/h (3 Bft)
17.03.2023 14:34 22,6 °C 15,1 °C 45 % 45 % 1011,6 hPa 0,0 l/m² 10,3 km/h (2 Bft) SO 136 ° 1 min 237 W/m² 3,3 °C 13,1 °C 14,5 km/h (3 Bft)
17.03.2023 14:36 22,6 °C 15,2 °C 45 % 44 % 1011,6 hPa 0,0 l/m² 8,8 km/h (2 Bft) SO 141 ° 2 min 236 W/m² 3,0 °C 13,9 °C 14,5 km/h (3 Bft)
17.03.2023 14:38 22,7 °C 15,2 °C 45 % 45 % 1011,5 hPa 0,0 l/m² 10,3 km/h (2 Bft) O-SO 122 ° 2 min 234 W/m² 3,4 °C 13,2 °C 14,5 km/h (3 Bft)
17.03.2023 14:40 22,6 °C 15,2 °C 45 % 46 % 1011,5 hPa 0,0 l/m² 11,9 km/h (2 Bft) SO 128 ° 2 min 232 W/m² 3,7 °C 12,5 °C 16,1 km/h (3 Bft)
17.03.2023 14:41 22,6 °C 15,2 °C 45 % 45 % 1011,5 hPa 0,0 l/m² 9,7 km/h (2 Bft) S-SO 155 ° 1 min 234 W/m² 3,4 °C 13,5 °C 12,9 km/h (3 Bft)
17.03.2023 14:42 22,6 °C 15,2 °C 45 % 45 % 1011,5 hPa 0,0 l/m² 13,9 km/h (3 Bft) SO 140 ° 1 min 234 W/m² 3,4 °C 11,8 °C 17,7 km/h (3 Bft)
17.03.2023 14:44 22,6 °C 15,2 °C 45 % 45 % 1011,5 hPa 0,0 l/m² 12,8 km/h (3 Bft) SO 137 ° 2 min 236 W/m² 3,4 °C 12,2 °C 17,7 km/h (3 Bft)
17.03.2023 14:45 22,6 °C 15,2 °C 45 % 46 % 1011,5 hPa 0,0 l/m² 17,1 km/h (3 Bft) SO 146 ° 1 min 236 W/m² 3,7 °C 10,8 °C 20,9 km/h (4 Bft)
17.03.2023 14:47 22,6 °C 15,2 °C 45 % 43 % 1011,5 hPa 0,0 l/m² 13,8 km/h (3 Bft) SO 133 ° 2 min 236 W/m² 2,7 °C 11,8 °C 17,7 km/h (3 Bft)
17.03.2023 14:49 22,6 °C 15,2 °C 46 % 47 % 1011,5 hPa 0,0 l/m² 9,1 km/h (2 Bft) SO 129 ° 2 min 237 W/m² 4,0 °C 13,8 °C 14,5 km/h (3 Bft)
17.03.2023 14:50 22,6 °C 15,3 °C 46 % 45 % 1011,4 hPa 0,0 l/m² 13,9 km/h (3 Bft) SO 127 ° 1 min 237 W/m² 3,4 °C 11,9 °C 16,1 km/h (3 Bft)
17.03.2023 14:51 22,6 °C 15,3 °C 46 % 45 % 1011,5 hPa 0,0 l/m² 11,5 km/h (2 Bft) O-SO 123 ° 1 min 237 W/m² 3,4 °C 12,8 °C 16,1 km/h (3 Bft)
17.03.2023 14:52 22,6 °C 15,3 °C 46 % 46 % 1011,5 hPa 0,0 l/m² 11,2 km/h (2 Bft) O-SO 117 ° 1 min 236 W/m² 3,8 °C 12,9 °C 17,7 km/h (3 Bft)
17.03.2023 14:53 22,6 °C 15,3 °C 46 % 47 % 1011,5 hPa 0,0 l/m² 10,0 km/h (2 Bft) O 94 ° 1 min 234 W/m² 4,1 °C 13,4 °C 12,9 km/h (3 Bft)
17.03.2023 14:55 22,6 °C 15,3 °C 46 % 46 % 1011,4 hPa 0,0 l/m² 10,9 km/h (2 Bft) O 93 ° 2 min 232 W/m² 3,8 °C 13,1 °C 14,5 km/h (3 Bft)
17.03.2023 14:56 22,6 °C 15,2 °C 46 % 47 % 1011,4 hPa 0,0 l/m² 13,8 km/h (3 Bft) O 101 ° 1 min 232 W/m² 4,0 °C 11,8 °C 16,1 km/h (3 Bft)
17.03.2023 14:58 22,6 °C 15,2 °C 45 % 45 % 1011,4 hPa 0,0 l/m² 11,2 km/h (2 Bft) O-SO 103 ° 2 min 229 W/m² 3,4 °C 12,8 °C 16,1 km/h (3 Bft)
17.03.2023 15:00 22,5 °C 15,2 °C 45 % 50 % 1011,4 hPa 0,0 l/m² 8,2 km/h (2 Bft) O-SO 117 ° 2 min 229 W/m² 4,8 °C 14,2 °C 12,9 km/h (3 Bft)
17.03.2023 15:01 22,6 °C 15,2 °C 45 % 47 % 1011,4 hPa 0,0 l/m² 10,7 km/h (2 Bft) O-SO 114 ° 1 min 229 W/m² 4,0 °C 13,0 °C 12,9 km/h (3 Bft)
17.03.2023 15:02 22,6 °C 15,2 °C 45 % 49 % 1011,4 hPa 0,0 l/m² 9,2 km/h (2 Bft) O 98 ° 1 min 229 W/m² 4,6 °C 13,7 °C 12,9 km/h (3 Bft)
17.03.2023 15:04 22,6 °C 15,2 °C 45 % 49 % 1011,3 hPa 0,0 l/m² 9,4 km/h (2 Bft) O 100 ° 2 min 227 W/m² 4,6 °C 13,6 °C 11,3 km/h (2 Bft)
17.03.2023 15:05 22,6 °C 15,2 °C 45 % 49 % 1011,4 hPa 0,0 l/m² 10,7 km/h (2 Bft) O 94 ° 1 min 227 W/m² 4,6 °C 13,0 °C 12,9 km/h (3 Bft)
17.03.2023 15:07 22,5 °C 15,2 °C 45 % 46 % 1011,3 hPa 0,0 l/m² 13,1 km/h (3 Bft) O-SO 110 ° 2 min 225 W/m² 3,7 °C 12,1 °C 16,1 km/h (3 Bft)
17.03.2023 15:09 22,6 °C 15,2 °C 46 % 46 % 1011,3 hPa 0,0 l/m² 11,0 km/h (2 Bft) SO 128 ° 2 min 223 W/m² 3,7 °C 12,9 °C 12,9 km/h (3 Bft)
17.03.2023 15:10 22,5 °C 15,2 °C 46 % 50 % 1011,3 hPa 0,0 l/m² 9,2 km/h (2 Bft) O-SO 105 ° 1 min 220 W/m² 4,8 °C 13,7 °C 16,1 km/h (3 Bft)
17.03.2023 15:11 22,5 °C 15,2 °C 46 % 47 % 1011,3 hPa 0,0 l/m² 14,8 km/h (3 Bft) O-SO 115 ° 1 min 214 W/m² 4,0 °C 11,5 °C 19,3 km/h (3 Bft)
17.03.2023 15:12 22,6 °C 15,2 °C 46 % 46 % 1011,3 hPa 0,0 l/m² 13,3 km/h (3 Bft) SO 132 ° 1 min 214 W/m² 3,7 °C 12,0 °C 14,5 km/h (3 Bft)
17.03.2023 15:14 22,6 °C 15,2 °C 46 % 48 % 1011,2 hPa 0,0 l/m² 13,0 km/h (3 Bft) O-SO 113 ° 2 min 213 W/m² 4,3 °C 12,1 °C 16,1 km/h (3 Bft)
17.03.2023 15:15 22,6 °C 15,1 °C 46 % 47 % 1011,2 hPa 0,0 l/m² 11,1 km/h (2 Bft) O-SO 110 ° 1 min 213 W/m² 3,9 °C 12,8 °C 14,5 km/h (3 Bft)
17.03.2023 15:17 22,6 °C 15,1 °C 46 % 48 % 1011,2 hPa 0,0 l/m² 9,1 km/h (2 Bft) O-SO 109 ° 2 min 214 W/m² 4,2 °C 13,6 °C 16,1 km/h (3 Bft)
17.03.2023 15:19 22,6 °C 15,1 °C 46 % 46 % 1011,2 hPa 0,0 l/m² 12,5 km/h (2 Bft) SO 127 ° 2 min 218 W/m² 3,6 °C 12,2 °C 17,7 km/h (3 Bft)
17.03.2023 15:20 22,5 °C 15,1 °C 46 % 45 % 1011,2 hPa 0,0 l/m² 15,6 km/h (3 Bft) O-SO 119 ° 1 min 218 W/m² 3,3 °C 11,1 °C 19,3 km/h (3 Bft)
17.03.2023 15:21 22,6 °C 15,1 °C 46 % 47 % 1011,2 hPa 0,0 l/m² 14,8 km/h (3 Bft) O-SO 121 ° 1 min 218 W/m² 3,9 °C 11,4 °C 17,7 km/h (3 Bft)
17.03.2023 15:22 22,6 °C 15,1 °C 46 % 44 % 1011,2 hPa 0,0 l/m² 15,0 km/h (3 Bft) O-SO 115 ° 1 min 218 W/m² 2,9 °C 11,3 °C 19,3 km/h (3 Bft)
17.03.2023 15:24 22,6 °C 15,2 °C 46 % 46 % 1011,2 hPa 0,0 l/m² 11,6 km/h (2 Bft) O-SO 122 ° 2 min 225 W/m² 3,7 °C 12,7 °C 16,1 km/h (3 Bft)
17.03.2023 15:25 22,5 °C 15,2 °C 46 % 47 % 1011,2 hPa 0,0 l/m² 11,8 km/h (2 Bft) O-SO 115 ° 1 min 234 W/m² 4,0 °C 12,6 °C 16,1 km/h (3 Bft)
17.03.2023 15:27 22,5 °C 15,2 °C 46 % 47 % 1011,2 hPa 0,0 l/m² 9,9 km/h (2 Bft) O 88 ° 2 min 250 W/m² 4,0 °C 13,4 °C 14,5 km/h (3 Bft)
17.03.2023 15:29 22,5 °C 15,2 °C 46 % 46 % 1011,1 hPa 0,0 l/m² 11,6 km/h (2 Bft) O-SO 121 ° 2 min 255 W/m² 3,7 °C 12,7 °C 14,5 km/h (3 Bft)
17.03.2023 15:30 22,5 °C 15,3 °C 46 % 48 % 1011,1 hPa 0,0 l/m² 8,2 km/h (2 Bft) O 98 ° 1 min 253 W/m² 4,4 °C 14,3 °C 12,9 km/h (3 Bft)
17.03.2023 15:31 22,5 °C 15,3 °C 46 % 48 % 1011,1 hPa 0,0 l/m² 9,1 km/h (2 Bft) O 88 ° 1 min 257 W/m² 4,4 °C 13,9 °C 11,3 km/h (2 Bft)
17.03.2023 15:32 22,5 °C 15,3 °C 46 % 48 % 1011,1 hPa 0,0 l/m² 8,7 km/h (2 Bft) O 96 ° 1 min 258 W/m² 4,4 °C 14,1 °C 11,3 km/h (2 Bft)
17.03.2023 15:34 22,5 °C 15,3 °C 46 % 47 % 1011,1 hPa 0,0 l/m² 7,6 km/h (2 Bft) O 96 ° 2 min 272 W/m² 4,1 °C 14,6 °C 12,9 km/h (3 Bft)
17.03.2023 15:35 22,5 °C 15,3 °C 46 % 50 % 1011,1 hPa 0,0 l/m² 9,2 km/h (2 Bft) O-SO 109 ° 1 min 279 W/m² 4,9 °C 13,8 °C 11,3 km/h (2 Bft)
17.03.2023 15:37 22,5 °C 15,4 °C 46 % 49 % 1011,0 hPa 0,0 l/m² 6,2 km/h (2 Bft) O 101 ° 2 min 292 W/m² 4,7 °C 15,4 °C 11,3 km/h (2 Bft)
17.03.2023 15:39 22,6 °C 15,4 °C 46 % 47 % 1011,0 hPa 0,0 l/m² 7,9 km/h (2 Bft) O-SO 121 ° 2 min 295 W/m² 4,1 °C 14,6 °C 12,9 km/h (3 Bft)
17.03.2023 15:40 22,5 °C 15,4 °C 46 % 47 % 1010,9 hPa 0,0 l/m² 8,0 km/h (2 Bft) O 97 ° 1 min 281 W/m² 4,1 °C 14,5 °C 11,3 km/h (2 Bft)
17.03.2023 15:41 22,5 °C 15,5 °C 46 % 48 % 1010,9 hPa 0,0 l/m² 6,0 km/h (2 Bft) O 101 ° 1 min 279 W/m² 4,5 °C 15,5 °C 9,7 km/h (2 Bft)
17.03.2023 15:42 22,5 °C 15,5 °C 46 % 50 % 1010,9 hPa 0,0 l/m² 10,2 km/h (2 Bft) O-SO 112 ° 1 min 271 W/m² 5,1 °C 13,6 °C 12,9 km/h (3 Bft)
17.03.2023 15:44 22,5 °C 15,6 °C 46 % 47 % 1010,9 hPa 0,0 l/m² 8,8 km/h (2 Bft) O-SO 106 ° 2 min 267 W/m² 4,3 °C 14,3 °C 12,9 km/h (3 Bft)
17.03.2023 15:46 22,5 °C 15,6 °C 46 % 46 % 1010,9 hPa 0,0 l/m² 11,4 km/h (2 Bft) O 97 ° 2 min 262 W/m² 4,0 °C 13,2 °C 14,5 km/h (3 Bft)
17.03.2023 15:48 22,5 °C 15,6 °C 46 % 48 % 1010,9 hPa 0,0 l/m² 10,0 km/h (2 Bft) O 96 ° 2 min 251 W/m² 4,6 °C 13,8 °C 12,9 km/h (3 Bft)
17.03.2023 15:50 22,5 °C 15,6 °C 46 % 46 % 1010,8 hPa 0,0 l/m² 10,3 km/h (2 Bft) O-SO 111 ° 2 min 234 W/m² 4,0 °C 13,7 °C 16,1 km/h (3 Bft)
17.03.2023 15:51 22,6 °C 15,5 °C 46 % 46 % 1010,8 hPa 0,0 l/m² 12,2 km/h (2 Bft) SO 126 ° 1 min 227 W/m² 3,9 °C 12,8 °C 16,1 km/h (3 Bft)
17.03.2023 15:52 22,6 °C 15,5 °C 46 % 48 % 1010,8 hPa 0,0 l/m² 10,6 km/h (2 Bft) SO 134 ° 1 min 220 W/m² 4,5 °C 13,4 °C 14,5 km/h (3 Bft)
17.03.2023 15:54 22,5 °C 15,4 °C 46 % 45 % 1010,9 hPa 0,0 l/m² 13,0 km/h (3 Bft) O-SO 114 ° 2 min 216 W/m² 3,5 °C 12,4 °C 19,3 km/h (3 Bft)
17.03.2023 15:55 22,5 °C 15,4 °C 46 % 48 % 1010,9 hPa 0,0 l/m² 9,0 km/h (2 Bft) SO 127 ° 1 min 214 W/m² 4,4 °C 14,0 °C 11,3 km/h (2 Bft)
17.03.2023 15:57 22,5 °C 15,4 °C 46 % 47 % 1010,8 hPa 0,0 l/m² 8,3 km/h (2 Bft) O-SO 121 ° 2 min 211 W/m² 4,1 °C 14,4 °C 12,9 km/h (3 Bft)
17.03.2023 15:59 22,5 °C 15,4 °C 46 % 49 % 1010,8 hPa 0,0 l/m² 9,5 km/h (2 Bft) O-SO 117 ° 2 min 206 W/m² 4,7 °C 13,8 °C 12,9 km/h (3 Bft)
17.03.2023 16:00 22,5 °C 15,4 °C 46 % 46 % 1010,7 hPa 0,0 l/m² 11,8 km/h (2 Bft) O-SO 116 ° 1 min 206 W/m² 3,8 °C 12,8 °C 19,3 km/h (3 Bft)
17.03.2023 16:01 22,5 °C 15,5 °C 46 % 45 % 1010,7 hPa 0,0 l/m² 13,8 km/h (3 Bft) O-SO 122 ° 1 min 206 W/m² 3,6 °C 12,2 °C 16,1 km/h (3 Bft)
17.03.2023 16:02 22,5 °C 15,5 °C 46 % 46 % 1010,7 hPa 0,0 l/m² 12,2 km/h (2 Bft) SO 125 ° 1 min 202 W/m² 3,9 °C 12,8 °C 14,5 km/h (3 Bft)
17.03.2023 16:04 22,5 °C 15,6 °C 46 % 44 % 1010,7 hPa 0,0 l/m² 11,8 km/h (2 Bft) O-SO 123 ° 2 min 199 W/m² 3,4 °C 13,0 °C 17,7 km/h (3 Bft)
17.03.2023 16:06 22,5 °C 15,4 °C 46 % 47 % 1010,6 hPa 0,0 l/m² 10,8 km/h (2 Bft) SO 134 ° 2 min 193 W/m² 4,1 °C 13,2 °C 14,5 km/h (3 Bft)
17.03.2023 16:08 22,5 °C 15,4 °C 46 % 45 % 1010,7 hPa 0,0 l/m² 14,0 km/h (3 Bft) SO 127 ° 2 min 190 W/m² 3,5 °C 12,0 °C 17,7 km/h (3 Bft)
17.03.2023 16:10 22,4 °C 15,4 °C 46 % 45 % 1010,6 hPa 0,0 l/m² 12,5 km/h (2 Bft) O-SO 121 ° 2 min 186 W/m² 3,5 °C 12,5 °C 16,1 km/h (3 Bft)
17.03.2023 16:11 22,4 °C 15,4 °C 46 % 47 % 1010,6 hPa 0,0 l/m² 12,6 km/h (3 Bft) SO 130 ° 1 min 183 W/m² 4,1 °C 12,5 °C 20,9 km/h (4 Bft)
17.03.2023 16:12 22,4 °C 15,4 °C 46 % 45 % 1010,6 hPa 0,0 l/m² 14,4 km/h (3 Bft) O-SO 119 ° 1 min 181 W/m² 3,5 °C 11,9 °C 17,7 km/h (3 Bft)
17.03.2023 16:13 22,4 °C 15,4 °C 46 % 45 % 1010,6 hPa 0,0 l/m² 16,9 km/h (3 Bft) SO 132 ° 1 min 179 W/m² 3,5 °C 11,1 °C 20,9 km/h (4 Bft)
17.03.2023 16:15 22,4 °C 15,4 °C 46 % 44 % 1010,6 hPa 0,0 l/m² 12,8 km/h (3 Bft) O-SO 106 ° 2 min 172 W/m² 3,2 °C 12,4 °C 16,1 km/h (3 Bft)
17.03.2023 16:17 22,4 °C 15,4 °C 46 % 45 % 1010,6 hPa 0,0 l/m² 11,9 km/h (2 Bft) O 96 ° 2 min 162 W/m² 3,5 °C 12,8 °C 16,1 km/h (3 Bft)
17.03.2023 16:19 22,4 °C 15,4 °C 46 % 44 % 1010,6 hPa 0,0 l/m² 12,9 km/h (3 Bft) O-SO 121 ° 2 min 156 W/m² 3,2 °C 12,4 °C 17,7 km/h (3 Bft)
17.03.2023 16:20 22,4 °C 15,4 °C 46 % 45 % 1010,7 hPa 0,0 l/m² 13,2 km/h (3 Bft) O 94 ° 1 min 155 W/m² 3,5 °C 12,3 °C 16,1 km/h (3 Bft)
17.03.2023 16:21 22,4 °C 15,4 °C 46 % 44 % 1010,7 hPa 0,0 l/m² 14,6 km/h (3 Bft) O 94 ° 1 min 153 W/m² 3,2 °C 11,8 °C 17,7 km/h (3 Bft)
17.03.2023 16:22 22,4 °C 15,4 °C 46 % 45 % 1010,6 hPa 0,0 l/m² 11,9 km/h (2 Bft) O-SO 113 ° 1 min 148 W/m² 3,5 °C 12,8 °C 17,7 km/h (3 Bft)
17.03.2023 16:24 22,4 °C 15,4 °C 46 % 44 % 1010,6 hPa 0,0 l/m² 15,3 km/h (3 Bft) SO 124 ° 2 min 144 W/m² 3,2 °C 11,6 °C 19,3 km/h (3 Bft)
17.03.2023 16:26 22,4 °C 15,3 °C 46 % 47 % 1010,6 hPa 0,0 l/m² 9,9 km/h (2 Bft) O-SO 113 ° 2 min 139 W/m² 4,1 °C 13,5 °C 12,9 km/h (3 Bft)
17.03.2023 16:28 22,4 °C 15,2 °C 46 % 47 % 1010,5 hPa 0,0 l/m² 10,3 km/h (2 Bft) O 95 ° 2 min 134 W/m² 4,0 °C 13,2 °C 12,9 km/h (3 Bft)
17.03.2023 16:30 22,4 °C 15,1 °C 46 % 47 % 1010,6 hPa 0,0 l/m² 8,2 km/h (2 Bft) O-SO 109 ° 2 min 128 W/m² 3,9 °C 14,1 °C 14,5 km/h (3 Bft)
17.03.2023 16:31 22,4 °C 15,1 °C 46 % 49 % 1010,6 hPa 0,0 l/m² 7,8 km/h (2 Bft) O-SO 121 ° 1 min 127 W/m² 4,5 °C 14,3 °C 14,5 km/h (3 Bft)
17.03.2023 16:32 22,4 °C 15,0 °C 46 % 48 % 1010,6 hPa 0,0 l/m² 8,9 km/h (2 Bft) O 101 ° 1 min 125 W/m² 4,1 °C 13,6 °C 12,9 km/h (3 Bft)
17.03.2023 16:33 22,4 °C 14,9 °C 46 % 49 % 1010,5 hPa 0,0 l/m² 9,4 km/h (2 Bft) O 86 ° 1 min 123 W/m² 4,3 °C 13,3 °C 16,1 km/h (3 Bft)
17.03.2023 16:35 22,4 °C 14,9 °C 46 % 46 % 1010,5 hPa 0,0 l/m² 12,4 km/h (2 Bft) O 99 ° 2 min 120 W/m² 3,4 °C 12,0 °C 16,1 km/h (3 Bft)
17.03.2023 16:37 22,4 °C 15,0 °C 46 % 48 % 1010,5 hPa 0,0 l/m² 10,0 km/h (2 Bft) O-SO 114 ° 2 min 116 W/m² 4,1 °C 13,1 °C 16,1 km/h (3 Bft)
17.03.2023 16:39 22,3 °C 15,1 °C 46 % 47 % 1010,5 hPa 0,0 l/m² 12,1 km/h (2 Bft) O 98 ° 2 min 113 W/m² 3,9 °C 12,3 °C 14,5 km/h (3 Bft)
17.03.2023 16:40 22,3 °C 15,0 °C 46 % 47 % 1010,4 hPa 0,0 l/m² 11,5 km/h (2 Bft) O-SO 105 ° 1 min 111 W/m² 3,8 °C 12,5 °C 14,5 km/h (3 Bft)
17.03.2023 16:41 22,3 °C 15,0 °C 46 % 48 % 1010,4 hPa 0,0 l/m² 9,9 km/h (2 Bft) O 101 ° 1 min 109 W/m² 4,1 °C 13,2 °C 11,3 km/h (2 Bft)
17.03.2023 16:42 22,3 °C 14,9 °C 46 % 48 % 1010,4 hPa 0,0 l/m² 7,4 km/h (2 Bft) O-SO 109 ° 1 min 107 W/m² 4,0 °C 14,3 °C 11,3 km/h (2 Bft)
17.03.2023 16:44 22,3 °C 14,8 °C 46 % 48 % 1010,4 hPa 0,0 l/m² 12,3 km/h (2 Bft) O-SO 103 ° 2 min 104 W/m² 3,9 °C 11,9 °C 17,7 km/h (3 Bft)
17.03.2023 16:46 22,3 °C 14,9 °C 46 % 49 % 1010,3 hPa 0,0 l/m² 11,4 km/h (2 Bft) O 98 ° 2 min 97 W/m² 4,3 °C 12,4 °C 14,5 km/h (3 Bft)
17.03.2023 16:48 22,3 °C 14,9 °C 46 % 48 % 1010,3 hPa 0,0 l/m² 12,9 km/h (3 Bft) O 94 ° 2 min 93 W/m² 4,0 °C 11,8 °C 17,7 km/h (3 Bft)
17.03.2023 16:50 22,3 °C 14,9 °C 46 % 46 % 1010,4 hPa 0,0 l/m² 12,4 km/h (2 Bft) O 96 ° 2 min 88 W/m² 3,4 °C 12,0 °C 17,7 km/h (3 Bft)
17.03.2023 16:51 22,3 °C 14,9 °C 46 % 47 % 1010,4 hPa 0,0 l/m² 12,0 km/h (2 Bft) O 98 ° 1 min 84 W/m² 3,7 °C 12,2 °C 14,5 km/h (3 Bft)
17.03.2023 16:52 22,3 °C 14,9 °C 46 % 47 % 1010,3 hPa 0,0 l/m² 9,9 km/h (2 Bft) O 96 ° 1 min 84 W/m² 3,7 °C 13,1 °C 12,9 km/h (3 Bft)
17.03.2023 16:53 22,3 °C 14,9 °C 46 % 48 % 1010,3 hPa 0,0 l/m² 10,8 km/h (2 Bft) O 90 ° 1 min 83 W/m² 4,0 °C 12,7 °C 14,5 km/h (3 Bft)
17.03.2023 16:55 22,3 °C 14,8 °C 46 % 49 % 1010,4 hPa 0,0 l/m² 10,5 km/h (2 Bft) O 96 ° 2 min 81 W/m² 4,2 °C 12,7 °C 12,9 km/h (3 Bft)
17.03.2023 16:56 22,3 °C 14,8 °C 46 % 48 % 1010,4 hPa 0,0 l/m² 12,1 km/h (2 Bft) O 92 ° 1 min 81 W/m² 3,9 °C 12,0 °C 14,5 km/h (3 Bft)
17.03.2023 16:57 22,3 °C 14,8 °C 46 % 48 % 1010,4 hPa 0,0 l/m² 12,9 km/h (3 Bft) O 93 ° 1 min 79 W/m² 3,9 °C 11,7 °C 14,5 km/h (3 Bft)
17.03.2023 16:59 22,3 °C 14,8 °C 46 % 48 % 1010,3 hPa 0,0 l/m² 13,2 km/h (3 Bft) O 94 ° 2 min 79 W/m² 3,9 °C 11,6 °C 17,7 km/h (3 Bft)
17.03.2023 17:00 22,3 °C 14,8 °C 45 % 48 % 1010,4 hPa 0,0 l/m² 11,4 km/h (2 Bft) O 97 ° 1 min 77 W/m² 3,9 °C 12,3 °C 14,5 km/h (3 Bft)
17.03.2023 17:01 22,3 °C 14,8 °C 45 % 47 % 1010,4 hPa 0,0 l/m² 13,8 km/h (3 Bft) O 90 ° 1 min 76 W/m² 3,6 °C 11,4 °C 17,7 km/h (3 Bft)
17.03.2023 17:02 22,3 °C 14,8 °C 45 % 48 % 1010,4 hPa 0,0 l/m² 14,1 km/h (3 Bft) O 98 ° 1 min 74 W/m² 3,9 °C 11,3 °C 17,7 km/h (3 Bft)
17.03.2023 17:04 22,3 °C 14,8 °C 45 % 48 % 1010,3 hPa 0,0 l/m² 13,3 km/h (3 Bft) O-SO 107 ° 2 min 69 W/m² 3,9 °C 11,5 °C 17,7 km/h (3 Bft)
17.03.2023 17:06 22,3 °C 14,8 °C 45 % 48 % 1010,3 hPa 0,0 l/m² 11,3 km/h (2 Bft) O 100 ° 2 min 65 W/m² 3,9 °C 12,3 °C 17,7 km/h (3 Bft)
17.03.2023 17:08 22,2 °C 14,8 °C 45 % 46 % 1010,3 hPa 0,0 l/m² 12,9 km/h (3 Bft) O-SO 118 ° 2 min 62 W/m² 3,3 °C 11,7 °C 16,1 km/h (3 Bft)
17.03.2023 17:10 22,3 °C 14,8 °C 45 % 48 % 1010,3 hPa 0,0 l/m² 11,8 km/h (2 Bft) O 100 ° 2 min 54 W/m² 3,9 °C 12,1 °C 16,1 km/h (3 Bft)
17.03.2023 17:11 22,3 °C 14,8 °C 45 % 48 % 1010,3 hPa 0,0 l/m² 13,3 km/h (3 Bft) O 97 ° 1 min 54 W/m² 3,9 °C 11,5 °C 17,7 km/h (3 Bft)
17.03.2023 17:12 22,3 °C 14,8 °C 45 % 48 % 1010,3 hPa 0,0 l/m² 12,8 km/h (3 Bft) O-SO 109 ° 1 min 53 W/m² 3,9 °C 11,7 °C 14,5 km/h (3 Bft)
17.03.2023 17:13 22,3 °C 14,8 °C 45 % 48 % 1010,3 hPa 0,0 l/m² 13,0 km/h (3 Bft) O-SO 111 ° 0 min 51 W/m² 3,9 °C 11,7 °C 16,1 km/h (3 Bft)
17.03.2023 17:15 22,3 °C 14,8 °C 45 % 48 % 1010,3 hPa 0,0 l/m² 14,0 km/h (3 Bft) O 91 ° 0 min 47 W/m² 3,9 °C 11,3 °C 17,7 km/h (3 Bft)
17.03.2023 17:17 22,3 °C 14,8 °C 45 % 48 % 1010,3 hPa 0,0 l/m² 13,9 km/h (3 Bft) O 82 ° 0 min 46 W/m² 3,9 °C 11,3 °C 17,7 km/h (3 Bft)
17.03.2023 17:19 22,2 °C 14,8 °C 45 % 48 % 1010,3 hPa 0,0 l/m² 12,4 km/h (2 Bft) O 101 ° 0 min 44 W/m² 3,9 °C 11,9 °C 16,1 km/h (3 Bft)
17.03.2023 17:20 22,2 °C 14,8 °C 45 % 48 % 1010,3 hPa 0,0 l/m² 14,5 km/h (3 Bft) O-SO 117 ° 0 min 42 W/m² 3,9 °C 11,1 °C 16,1 km/h (3 Bft)
17.03.2023 17:21 22,2 °C 14,8 °C 45 % 48 % 1010,3 hPa 0,0 l/m² 13,9 km/h (3 Bft) O-SO 109 ° 0 min 40 W/m² 3,9 °C 11,3 °C 17,7 km/h (3 Bft)
17.03.2023 17:22 22,2 °C 14,8 °C 45 % 48 % 1010,3 hPa 0,0 l/m² 12,5 km/h (2 Bft) O-SO 103 ° 0 min 40 W/m² 3,9 °C 11,8 °C 14,5 km/h (3 Bft)
17.03.2023 17:24 22,2 °C 14,8 °C 45 % 49 % 1010,2 hPa 0,0 l/m² 12,3 km/h (2 Bft) O-SO 108 ° 0 min 39 W/m² 4,2 °C 11,9 °C 14,5 km/h (3 Bft)
17.03.2023 17:26 22,2 °C 14,7 °C 45 % 50 % 1010,2 hPa 0,0 l/m² 12,4 km/h (2 Bft) O 99 ° 0 min 37 W/m² 4,4 °C 11,8 °C 17,7 km/h (3 Bft)
17.03.2023 17:28 22,2 °C 14,7 °C 45 % 49 % 1010,1 hPa 0,0 l/m² 12,8 km/h (3 Bft) O 92 ° 0 min 33 W/m² 4,1 °C 11,6 °C 17,7 km/h (3 Bft)
17.03.2023 17:30 22,2 °C 14,6 °C 45 % 49 % 1010,2 hPa 0,0 l/m² 13,6 km/h (3 Bft) O-SO 112 ° 0 min 32 W/m² 4,0 °C 11,2 °C 17,7 km/h (3 Bft)
17.03.2023 17:31 22,2 °C 14,6 °C 45 % 49 % 1010,2 hPa 0,0 l/m² 13,9 km/h (3 Bft) O 93 ° 0 min 30 W/m² 4,0 °C 11,1 °C 16,1 km/h (3 Bft)
17.03.2023 17:32 22,2 °C 14,6 °C 45 % 49 % 1010,2 hPa 0,0 l/m² 14,3 km/h (3 Bft) O 99 ° 0 min 30 W/m² 4,0 °C 10,9 °C 19,3 km/h (3 Bft)
17.03.2023 17:33 22,2 °C 14,6 °C 45 % 49 % 1010,2 hPa 0,0 l/m² 15,7 km/h (3 Bft) O-SO 103 ° 0 min 28 W/m² 4,0 °C 10,5 °C 17,7 km/h (3 Bft)
17.03.2023 17:35 22,2 °C 14,6 °C 45 % 50 % 1010,1 hPa 0,0 l/m² 13,7 km/h (3 Bft) O 90 ° 0 min 28 W/m² 4,3 °C 11,2 °C 19,3 km/h (3 Bft)
17.03.2023 17:37 22,2 °C 14,6 °C 46 % 49 % 1010,1 hPa 0,0 l/m² 15,8 km/h (3 Bft) O 97 ° 0 min 26 W/m² 4,0 °C 10,4 °C 19,3 km/h (3 Bft)
17.03.2023 17:39 22,3 °C 14,6 °C 46 % 50 % 1010,1 hPa 0,0 l/m² 13,8 km/h (3 Bft) O-SO 107 ° 0 min 26 W/m² 4,3 °C 11,1 °C 19,3 km/h (3 Bft)
17.03.2023 17:40 22,2 °C 14,6 °C 46 % 49 % 1010,1 hPa 0,0 l/m² 12,9 km/h (3 Bft) O 91 ° 0 min 26 W/m² 4,0 °C 11,5 °C 16,1 km/h (3 Bft)
17.03.2023 17:41 22,2 °C 14,6 °C 46 % 49 % 1010,1 hPa 0,0 l/m² 14,3 km/h (3 Bft) O 92 ° 0 min 26 W/m² 4,0 °C 10,9 °C 19,3 km/h (3 Bft)
17.03.2023 17:42 22,2 °C 14,6 °C 46 % 49 % 1010,1 hPa 0,0 l/m² 13,3 km/h (3 Bft) O 97 ° 0 min 26 W/m² 4,0 °C 11,3 °C 19,3 km/h (3 Bft)
17.03.2023 17:44 22,2 °C 14,6 °C 46 % 50 % 1010,1 hPa 0,0 l/m² 13,0 km/h (3 Bft) O 84 ° 0 min 26 W/m² 4,3 °C 11,4 °C 17,7 km/h (3 Bft)
17.03.2023 17:46 22,2 °C 14,6 °C 46 % 50 % 1010,1 hPa 0,0 l/m² 14,3 km/h (3 Bft) O-SO 102 ° 0 min 25 W/m² 4,3 °C 10,9 °C 16,1 km/h (3 Bft)
17.03.2023 17:48 22,3 °C 14,6 °C 46 % 49 % 1010,1 hPa 0,0 l/m² 15,6 km/h (3 Bft) O-SO 103 ° 0 min 25 W/m² 4,0 °C 10,5 °C 22,5 km/h (4 Bft)
17.03.2023 17:50 22,2 °C 14,6 °C 46 % 50 % 1010,2 hPa 0,0 l/m² 13,6 km/h (3 Bft) O 94 ° 0 min 21 W/m² 4,3 °C 11,2 °C 19,3 km/h (3 Bft)
17.03.2023 17:51 22,2 °C 14,6 °C 46 % 50 % 1010,2 hPa 0,0 l/m² 16,0 km/h (3 Bft) O 92 ° 0 min 19 W/m² 4,3 °C 10,4 °C 17,7 km/h (3 Bft)
17.03.2023 17:52 22,2 °C 14,6 °C 46 % 49 % 1010,2 hPa 0,0 l/m² 15,4 km/h (3 Bft) O 92 ° 0 min 19 W/m² 4,0 °C 10,6 °C 17,7 km/h (3 Bft)
17.03.2023 17:53 22,2 °C 14,6 °C 46 % 49 % 1010,2 hPa 0,0 l/m² 13,9 km/h (3 Bft) O 100 ° 0 min 18 W/m² 4,0 °C 11,1 °C 17,7 km/h (3 Bft)
17.03.2023 17:55 22,2 °C 14,6 °C 46 % 50 % 1010,2 hPa 0,0 l/m² 12,7 km/h (3 Bft) O-SO 110 ° 0 min 16 W/m² 4,3 °C 11,5 °C 16,1 km/h (3 Bft)
17.03.2023 17:57 22,2 °C 14,5 °C 46 % 50 % 1010,1 hPa 0,0 l/m² 10,5 km/h (2 Bft) O-SO 104 ° 0 min 12 W/m² 4,2 °C 12,3 °C 12,9 km/h (3 Bft)
17.03.2023 17:59 22,2 °C 14,4 °C 46 % 51 % 1010,1 hPa 0,0 l/m² 11,2 km/h (2 Bft) O 98 ° 0 min 11 W/m² 4,4 °C 11,9 °C 14,5 km/h (3 Bft)
17.03.2023 18:00 22,2 °C 14,3 °C 46 % 50 % 1010,1 hPa 0,0 l/m² 12,8 km/h (3 Bft) O 90 ° 0 min 9 W/m² 4,0 °C 11,1 °C 19,3 km/h (3 Bft)
17.03.2023 18:01 22,2 °C 14,3 °C 46 % 51 % 1010,1 hPa 0,0 l/m² 13,5 km/h (3 Bft) O 93 ° 0 min 9 W/m² 4,3 °C 10,9 °C 16,1 km/h (3 Bft)
17.03.2023 18:02 22,2 °C 14,3 °C 46 % 51 % 1010,1 hPa 0,0 l/m² 11,5 km/h (2 Bft) O 91 ° 0 min 7 W/m² 4,3 °C 11,7 °C 14,5 km/h (3 Bft)
17.03.2023 18:04 22,2 °C 14,3 °C 45 % 51 % 1010,1 hPa 0,0 l/m² 11,2 km/h (2 Bft) O 92 ° 0 min 7 W/m² 4,3 °C 11,8 °C 14,5 km/h (3 Bft)
17.03.2023 18:06 22,2 °C 14,2 °C 44 % 51 % 1010,2 hPa 0,0 l/m² 11,1 km/h (2 Bft) O 95 ° 0 min 5 W/m² 4,2 °C 11,7 °C 14,5 km/h (3 Bft)
17.03.2023 18:08 22,2 °C 14,2 °C 44 % 51 % 1010,3 hPa 0,0 l/m² 12,0 km/h (2 Bft) O-SO 103 ° 0 min 0 W/m² 4,2 °C 11,4 °C 14,5 km/h (3 Bft)
17.03.2023 18:10 22,2 °C 14,2 °C 44 % 51 % 1009,9 hPa 0,0 l/m² 12,9 km/h (3 Bft) O 98 ° 0 min 0 W/m² 4,2 °C 11,0 °C 16,1 km/h (3 Bft)
17.03.2023 18:11 22,1 °C 14,2 °C 44 % 51 % 1009,9 hPa 0,0 l/m² 12,8 km/h (3 Bft) O-SO 107 ° 0 min 0 W/m² 4,2 °C 11,0 °C 16,1 km/h (3 Bft)
17.03.2023 18:12 22,1 °C 14,2 °C 44 % 52 % 1009,9 hPa 0,0 l/m² 11,9 km/h (2 Bft) O 94 ° 0 min 0 W/m² 4,5 °C 11,4 °C 14,5 km/h (3 Bft)
17.03.2023 18:13 22,2 °C 14,2 °C 44 % 52 % 1009,7 hPa 0,0 l/m² 12,2 km/h (2 Bft) O-SO 103 ° 0 min 0 W/m² 4,5 °C 11,3 °C 14,5 km/h (3 Bft)
17.03.2023 18:15 22,1 °C 14,1 °C 44 % 52 % 1009,8 hPa 0,0 l/m² 13,1 km/h (3 Bft) O-SO 103 ° 0 min 0 W/m² 4,4 °C 10,8 °C 16,1 km/h (3 Bft)
17.03.2023 18:17 22,2 °C 14,1 °C 44 % 52 % 1009,8 hPa 0,0 l/m² 12,6 km/h (3 Bft) O 96 ° 0 min 0 W/m² 4,4 °C 11,0 °C 14,5 km/h (3 Bft)
17.03.2023 18:19 22,1 °C 14,1 °C 44 % 52 % 1010,0 hPa 0,0 l/m² 13,2 km/h (3 Bft) O 94 ° 0 min 0 W/m² 4,4 °C 10,8 °C 16,1 km/h (3 Bft)
17.03.2023 18:20 22,1 °C 14,1 °C 44 % 52 % 1009,9 hPa 0,0 l/m² 14,0 km/h (3 Bft) O-SO 103 ° 0 min 0 W/m² 4,4 °C 10,5 °C 19,3 km/h (3 Bft)
17.03.2023 18:21 22,1 °C 14,1 °C 44 % 52 % 1009,9 hPa 0,0 l/m² 16,8 km/h (3 Bft) O-SO 109 ° 0 min 0 W/m² 4,4 °C 9,5 °C 19,3 km/h (3 Bft)
17.03.2023 18:22 22,1 °C 14,1 °C 44 % 51 % 1010,0 hPa 0,0 l/m² 15,1 km/h (3 Bft) O-SO 103 ° 0 min 0 W/m² 4,1 °C 10,1 °C 17,7 km/h (3 Bft)
17.03.2023 18:24 22,1 °C 14,1 °C 45 % 52 % 1010,0 hPa 0,0 l/m² 13,4 km/h (3 Bft) O-SO 107 ° 0 min 0 W/m² 4,4 °C 10,7 °C 16,1 km/h (3 Bft)
17.03.2023 18:26 22,1 °C 14,1 °C 45 % 52 % 1010,1 hPa 0,0 l/m² 11,2 km/h (2 Bft) O-SO 105 ° 0 min 0 W/m² 4,4 °C 11,6 °C 12,9 km/h (3 Bft)
17.03.2023 18:28 22,1 °C 14,1 °C 45 % 52 % 1010,1 hPa 0,0 l/m² 10,7 km/h (2 Bft) O-SO 105 ° 0 min 0 W/m² 4,4 °C 11,8 °C 14,5 km/h (3 Bft)
17.03.2023 18:30 22,1 °C 13,9 °C 45 % 53 % 1010,1 hPa 0,0 l/m² 10,5 km/h (2 Bft) O-SO 114 ° 0 min 0 W/m² 4,5 °C 11,7 °C 14,5 km/h (3 Bft)
17.03.2023 18:31 22,1 °C 13,9 °C 45 % 52 % 1010,1 hPa 0,0 l/m² 9,2 km/h (2 Bft) O-SO 103 ° 0 min 0 W/m² 4,2 °C 12,3 °C 11,3 km/h (2 Bft)
17.03.2023 18:32 22,1 °C 13,9 °C 45 % 54 % 1010,1 hPa 0,0 l/m² 9,7 km/h (2 Bft) O-SO 102 ° 0 min 0 W/m² 4,7 °C 12,0 °C 12,9 km/h (3 Bft)
17.03.2023 18:33 22,2 °C 13,8 °C 45 % 54 % 1010,1 hPa 0,0 l/m² 10,1 km/h (2 Bft) O-SO 112 ° 0 min 0 W/m² 4,7 °C 11,7 °C 11,3 km/h (2 Bft)
17.03.2023 18:35 22,2 °C 13,7 °C 46 % 54 % 1010,0 hPa 0,0 l/m² 10,3 km/h (2 Bft) O-SO 115 ° 0 min 0 W/m² 4,6 °C 11,5 °C 12,9 km/h (3 Bft)
17.03.2023 18:37 22,1 °C 13,6 °C 46 % 55 % 1010,0 hPa 0,0 l/m² 9,6 km/h (2 Bft) O-SO 118 ° 0 min 0 W/m² 4,7 °C 11,8 °C 12,9 km/h (3 Bft)
17.03.2023 18:39 22,1 °C 13,6 °C 46 % 55 % 1010,0 hPa 0,0 l/m² 9,2 km/h (2 Bft) O-SO 115 ° 0 min 0 W/m² 4,7 °C 12,0 °C 14,5 km/h (3 Bft)
17.03.2023 18:40 22,2 °C 13,6 °C 46 % 54 % 1010,1 hPa 0,0 l/m² 11,7 km/h (2 Bft) O-SO 121 ° 0 min 0 W/m² 4,5 °C 10,8 °C 14,5 km/h (3 Bft)
17.03.2023 18:41 22,2 °C 13,6 °C 46 % 54 % 1010,1 hPa 0,0 l/m² 10,3 km/h (2 Bft) O-SO 120 ° 0 min 0 W/m² 4,5 °C 11,4 °C 14,5 km/h (3 Bft)
17.03.2023 18:42 22,2 °C 13,6 °C 46 % 54 % 1010,1 hPa 0,0 l/m² 10,1 km/h (2 Bft) O-SO 113 ° 0 min 0 W/m² 4,5 °C 11,5 °C 14,5 km/h (3 Bft)
17.03.2023 18:44 22,2 °C 13,6 °C 46 % 54 % 1010,2 hPa 0,0 l/m² 10,3 km/h (2 Bft) O-SO 120 ° 0 min 0 W/m² 4,5 °C 11,4 °C 14,5 km/h (3 Bft)
17.03.2023 18:47 22,2 °C 13,6 °C 46 % 54 % 1010,1 hPa 0,0 l/m² 9,1 km/h (2 Bft) O-SO 117 ° 0 min 0 W/m² 4,5 °C 12,0 °C 12,9 km/h (3 Bft)
17.03.2023 18:49 22,2 °C 13,6 °C 46 % 54 % 1010,1 hPa 0,0 l/m² 10,4 km/h (2 Bft) O-SO 117 ° 0 min 0 W/m² 4,5 °C 11,4 °C 12,9 km/h (3 Bft)
17.03.2023 18:50 22,2 °C 13,7 °C 46 % 54 % 1010,2 hPa 0,0 l/m² 8,5 km/h (2 Bft) O-SO 121 ° 0 min 0 W/m² 4,6 °C 12,5 °C 11,3 km/h (2 Bft)
17.03.2023 18:51 22,2 °C 13,7 °C 46 % 54 % 1010,2 hPa 0,0 l/m² 7,7 km/h (2 Bft) SO 124 ° 0 min 0 W/m² 4,6 °C 12,9 °C 11,3 km/h (2 Bft)
17.03.2023 18:52 22,2 °C 13,6 °C 46 % 54 % 1010,2 hPa 0,0 l/m² 7,6 km/h (2 Bft) O 101 ° 0 min 0 W/m² 4,5 °C 12,9 °C 11,3 km/h (2 Bft)
17.03.2023 18:54 22,2 °C 13,6 °C 46 % 55 % 1010,2 hPa 0,0 l/m² 8,2 km/h (2 Bft) O-SO 122 ° 0 min 0 W/m² 4,7 °C 12,5 °C 14,5 km/h (3 Bft)
17.03.2023 18:56 22,2 °C 13,6 °C 46 % 55 % 1010,2 hPa 0,0 l/m² 7,6 km/h (2 Bft) O-SO 117 ° 0 min 0 W/m² 4,7 °C 12,9 °C 12,9 km/h (3 Bft)
17.03.2023 18:58 22,2 °C 13,6 °C 46 % 54 % 1010,2 hPa 0,0 l/m² 8,3 km/h (2 Bft) O-SO 113 ° 0 min 0 W/m² 4,5 °C 12,5 °C 12,9 km/h (3 Bft)
17.03.2023 19:00 22,2 °C 13,6 °C 46 % 55 % 1010,2 hPa 0,0 l/m² 7,1 km/h (2 Bft) O-SO 109 ° 0 min 0 W/m² 4,7 °C 13,2 °C 11,3 km/h (2 Bft)
17.03.2023 19:01 22,2 °C 13,6 °C 46 % 54 % 1010,1 hPa 0,0 l/m² 8,6 km/h (2 Bft) O-SO 113 ° 0 min 0 W/m² 4,5 °C 12,3 °C 12,9 km/h (3 Bft)
17.03.2023 19:02 22,2 °C 13,6 °C 46 % 54 % 1010,1 hPa 0,0 l/m² 6,1 km/h (2 Bft) O-SO 113 ° 0 min 0 W/m² 4,5 °C 13,6 °C 6,4 km/h (2 Bft)
17.03.2023 19:03 22,1 °C 13,6 °C 46 % 54 % 1010,2 hPa 0,0 l/m² 6,8 km/h (2 Bft) O-SO 102 ° 0 min 0 W/m² 4,5 °C 13,4 °C 11,3 km/h (2 Bft)
17.03.2023 19:05 22,2 °C 13,5 °C 46 % 55 % 1010,2 hPa 0,0 l/m² 6,4 km/h (2 Bft) O-SO 118 ° 0 min 0 W/m² 4,6 °C 13,5 °C 11,3 km/h (2 Bft)
17.03.2023 19:07 22,1 °C 13,5 °C 46 % 55 % 1010,2 hPa 0,0 l/m² 7,0 km/h (2 Bft) O-SO 119 ° 0 min 0 W/m² 4,6 °C 13,1 °C 11,3 km/h (2 Bft)
17.03.2023 19:08 22,2 °C 13,4 °C 46 % 55 % 1010,3 hPa 0,0 l/m² 6,9 km/h (2 Bft) O-SO 116 ° 0 min 0 W/m² 4,5 °C 13,1 °C 11,3 km/h (2 Bft)
17.03.2023 19:09 22,2 °C 13,4 °C 46 % 55 % 1010,3 hPa 0,0 l/m² 7,4 km/h (2 Bft) O-SO 122 ° 0 min 0 W/m² 4,5 °C 12,8 °C 9,7 km/h (2 Bft)
17.03.2023 19:12 22,1 °C 13,4 °C 46 % 55 % 1010,2 hPa 0,0 l/m² 7,1 km/h (2 Bft) SO 126 ° 0 min 0 W/m² 4,5 °C 13,0 °C 12,9 km/h (3 Bft)
17.03.2023 19:13 22,1 °C 13,4 °C 46 % 55 % 1010,2 hPa 0,0 l/m² 8,0 km/h (2 Bft) O-SO 119 ° 0 min 0 W/m² 4,5 °C 12,4 °C 11,3 km/h (2 Bft)
17.03.2023 19:14 22,1 °C 13,4 °C 46 % 55 % 1010,2 hPa 0,0 l/m² 7,6 km/h (2 Bft) SO 129 ° 0 min 0 W/m² 4,5 °C 12,7 °C 11,3 km/h (2 Bft)
17.03.2023 19:15 22,2 °C 13,4 °C 46 % 55 % 1010,2 hPa 0,0 l/m² 10,1 km/h (2 Bft) SO 125 ° 0 min 0 W/m² 4,5 °C 11,3 °C 12,9 km/h (3 Bft)
17.03.2023 19:17 22,1 °C 13,3 °C 46 % 56 % 1010,3 hPa 0,0 l/m² 8,4 km/h (2 Bft) SO 131 ° 0 min 0 W/m² 4,7 °C 12,1 °C 12,9 km/h (3 Bft)
17.03.2023 19:19 22,2 °C 13,3 °C 46 % 55 % 1010,2 hPa 0,0 l/m² 9,3 km/h (2 Bft) SO 134 ° 0 min 0 W/m² 4,5 °C 11,6 °C 14,5 km/h (3 Bft)
17.03.2023 19:20 22,1 °C 13,3 °C 46 % 55 % 1010,2 hPa 0,0 l/m² 11,4 km/h (2 Bft) SO 144 ° 0 min 0 W/m² 4,5 °C 10,6 °C 16,1 km/h (3 Bft)
17.03.2023 19:21 22,1 °C 13,4 °C 46 % 55 % 1010,2 hPa 0,0 l/m² 11,8 km/h (2 Bft) SO 137 ° 0 min 0 W/m² 4,5 °C 10,5 °C 14,5 km/h (3 Bft)
17.03.2023 19:22 22,1 °C 13,4 °C 46 % 55 % 1010,1 hPa 0,0 l/m² 8,8 km/h (2 Bft) SO 132 ° 0 min 0 W/m² 4,5 °C 12,0 °C 11,3 km/h (2 Bft)
17.03.2023 19:24 22,1 °C 13,4 °C 46 % 55 % 1010,2 hPa 0,0 l/m² 15,2 km/h (3 Bft) SO 141 ° 0 min 0 W/m² 4,5 °C 9,2 °C 22,5 km/h (4 Bft)
17.03.2023 19:26 22,1 °C 13,6 °C 46 % 55 % 1010,2 hPa 0,0 l/m² 12,4 km/h (2 Bft) SO 126 ° 0 min 0 W/m² 4,7 °C 10,5 °C 17,7 km/h (3 Bft)
17.03.2023 19:28 22,1 °C 13,6 °C 46 % 54 % 1010,2 hPa 0,0 l/m² 11,8 km/h (2 Bft) SO 144 ° 0 min 0 W/m² 4,5 °C 10,7 °C 19,3 km/h (3 Bft)
17.03.2023 19:29 22,1 °C 13,7 °C 46 % 54 % 1010,3 hPa 0,0 l/m² 13,5 km/h (3 Bft) SO 137 ° 0 min 0 W/m² 4,6 °C 10,2 °C 16,1 km/h (3 Bft)
17.03.2023 19:30 22,1 °C 13,7 °C 46 % 54 % 1010,3 hPa 0,0 l/m² 14,5 km/h (3 Bft) S-SO 156 ° 0 min 0 W/m² 4,6 °C 9,8 °C 20,9 km/h (4 Bft)
17.03.2023 19:33 22,1 °C 13,7 °C 46 % 54 % 1010,3 hPa 0,0 l/m² 12,2 km/h (2 Bft) SO 124 ° 0 min 0 W/m² 4,6 °C 10,7 °C 22,5 km/h (4 Bft)
17.03.2023 19:35 22,1 °C 13,7 °C 46 % 54 % 1010,2 hPa 0,0 l/m² 13,8 km/h (3 Bft) SO 126 ° 0 min 0 W/m² 4,6 °C 10,1 °C 19,3 km/h (3 Bft)
17.03.2023 19:37 22,1 °C 13,7 °C 46 % 53 % 1010,2 hPa 0,0 l/m² 15,1 km/h (3 Bft) O-SO 123 ° 0 min 0 W/m² 4,3 °C 9,6 °C 22,5 km/h (4 Bft)
17.03.2023 19:39 22,1 °C 13,7 °C 46 % 54 % 1010,2 hPa 0,0 l/m² 14,2 km/h (3 Bft) SO 127 ° 0 min 0 W/m² 4,6 °C 9,9 °C 24,1 km/h (4 Bft)
17.03.2023 19:40 22,1 °C 13,7 °C 46 % 54 % 1010,2 hPa 0,0 l/m² 12,8 km/h (3 Bft) SO 135 ° 0 min 0 W/m² 4,6 °C 10,4 °C 17,7 km/h (3 Bft)
17.03.2023 19:41 22,1 °C 13,7 °C 46 % 54 % 1010,2 hPa 0,0 l/m² 13,8 km/h (3 Bft) S-SO 148 ° 0 min 0 W/m² 4,6 °C 10,1 °C 16,1 km/h (3 Bft)
17.03.2023 19:42 22,1 °C 13,7 °C 46 % 54 % 1010,3 hPa 0,0 l/m² 14,1 km/h (3 Bft) SO 133 ° 0 min 0 W/m² 4,6 °C 9,9 °C 19,3 km/h (3 Bft)
17.03.2023 19:44 22,1 °C 13,7 °C 46 % 54 % 1010,3 hPa 0,0 l/m² 13,6 km/h (3 Bft) SO 128 ° 0 min 0 W/m² 4,6 °C 10,1 °C 22,5 km/h (4 Bft)
17.03.2023 19:46 22,2 °C 13,7 °C 47 % 53 % 1010,3 hPa 0,0 l/m² 15,2 km/h (3 Bft) SO 135 ° 0 min 0 W/m² 4,3 °C 9,5 °C 22,5 km/h (4 Bft)
17.03.2023 19:48 22,2 °C 13,7 °C 47 % 53 % 1010,3 hPa 0,0 l/m² 14,5 km/h (3 Bft) SO 132 ° 0 min 0 W/m² 4,3 °C 9,8 °C 20,9 km/h (4 Bft)
17.03.2023 19:50 22,2 °C 13,7 °C 47 % 53 % 1010,3 hPa 0,0 l/m² 12,8 km/h (3 Bft) SO 133 ° 0 min 0 W/m² 4,3 °C 10,4 °C 16,1 km/h (3 Bft)
17.03.2023 19:51 22,2 °C 13,7 °C 47 % 53 % 1010,3 hPa 0,0 l/m² 11,5 km/h (2 Bft) O-SO 123 ° 0 min 0 W/m² 4,3 °C 11,0 °C 19,3 km/h (3 Bft)
17.03.2023 19:52 22,2 °C 13,6 °C 47 % 53 % 1010,3 hPa 0,0 l/m² 13,0 km/h (3 Bft) SO 144 ° 0 min 0 W/m² 4,2 °C 10,2 °C 17,7 km/h (3 Bft)
17.03.2023 19:53 22,2 °C 13,6 °C 47 % 53 % 1010,3 hPa 0,0 l/m² 15,6 km/h (3 Bft) SO 132 ° 0 min 0 W/m² 4,2 °C 9,3 °C 20,9 km/h (4 Bft)
17.03.2023 19:55 22,2 °C 13,6 °C 47 % 53 % 1010,3 hPa 0,0 l/m² 14,3 km/h (3 Bft) SO 138 ° 0 min 0 W/m² 4,2 °C 9,7 °C 22,5 km/h (4 Bft)
17.03.2023 19:57 22,2 °C 13,7 °C 47 % 52 % 1010,3 hPa 0,0 l/m² 18,8 km/h (3 Bft) S-SO 148 ° 0 min 0 W/m² 4,0 °C 8,4 °C 25,7 km/h (4 Bft)
17.03.2023 19:59 22,2 °C 13,7 °C 47 % 52 % 1010,2 hPa 0,0 l/m² 17,0 km/h (3 Bft) S-SO 155 ° 0 min 0 W/m² 4,0 °C 8,9 °C 20,9 km/h (4 Bft)
17.03.2023 20:00 22,2 °C 13,7 °C 47 % 52 % 1010,5 hPa 0,0 l/m² 11,8 km/h (2 Bft) S-SO 157 ° 0 min 0 W/m² 4,0 °C 10,9 °C 16,1 km/h (3 Bft)
17.03.2023 20:01 22,2 °C 13,7 °C 47 % 52 % 1010,5 hPa 0,0 l/m² 12,8 km/h (3 Bft) S-SO 152 ° 0 min 0 W/m² 4,0 °C 10,4 °C 16,1 km/h (3 Bft)
17.03.2023 20:02 22,2 °C 13,7 °C 47 % 52 % 1010,4 hPa 0,0 l/m² 15,0 km/h (3 Bft) SO 136 ° 0 min 0 W/m² 4,0 °C 9,6 °C 20,9 km/h (4 Bft)
17.03.2023 20:04 22,2 °C 13,7 °C 47 % 52 % 1010,4 hPa 0,0 l/m² 18,6 km/h (3 Bft) SO 136 ° 0 min 0 W/m² 4,0 °C 8,5 °C 25,7 km/h (4 Bft)
17.03.2023 20:06 22,2 °C 13,7 °C 47 % 51 % 1010,3 hPa 0,0 l/m² 16,5 km/h (3 Bft) S-SO 152 ° 0 min 0 W/m² 3,8 °C 9,1 °C 22,5 km/h (4 Bft)
17.03.2023 20:08 22,2 °C 13,7 °C 47 % 52 % 1010,2 hPa 0,0 l/m² 18,4 km/h (3 Bft) SO 140 ° 0 min 0 W/m² 4,0 °C 8,5 °C 24,1 km/h (4 Bft)
17.03.2023 20:10 22,2 °C 13,6 °C 47 % 52 % 1010,2 hPa 0,0 l/m² 15,1 km/h (3 Bft) SO 133 ° 0 min 0 W/m² 3,9 °C 9,5 °C 19,3 km/h (3 Bft)
17.03.2023 20:11 22,2 °C 13,6 °C 47 % 52 % 1010,2 hPa 0,0 l/m² 14,3 km/h (3 Bft) S-SO 157 ° 0 min 0 W/m² 3,9 °C 9,7 °C 17,7 km/h (3 Bft)
17.03.2023 20:12 22,2 °C 13,6 °C 47 % 52 % 1010,2 hPa 0,0 l/m² 15,5 km/h (3 Bft) SO 131 ° 0 min 0 W/m² 3,9 °C 9,3 °C 20,9 km/h (4 Bft)
17.03.2023 20:13 22,3 °C 13,5 °C 47 % 52 % 1010,2 hPa 0,0 l/m² 18,3 km/h (3 Bft) SO 144 ° 0 min 0 W/m² 3,8 °C 8,3 °C 22,5 km/h (4 Bft)
17.03.2023 20:15 22,3 °C 13,6 °C 47 % 52 % 1010,2 hPa 0,0 l/m² 19,3 km/h (3 Bft) SO 132 ° 0 min 0 W/m² 3,9 °C 8,1 °C 30,6 km/h (5 Bft)
17.03.2023 20:17 22,3 °C 13,6 °C 48 % 52 % 1010,2 hPa 0,0 l/m² 17,0 km/h (3 Bft) SO 132 ° 0 min 0 W/m² 3,9 °C 8,8 °C 22,5 km/h (4 Bft)
17.03.2023 20:18 22,3 °C 13,5 °C 48 % 52 % 1010,2 hPa 0,0 l/m² 17,5 km/h (3 Bft) SO 143 ° 0 min 0 W/m² 3,8 °C 8,5 °C 25,7 km/h (4 Bft)
17.03.2023 20:19 22,3 °C 13,5 °C 48 % 52 % 1010,2 hPa 0,0 l/m² 20,6 km/h (4 Bft) S-SO 150 ° 0 min 0 W/m² 3,8 °C 7,6 °C 24,1 km/h (4 Bft)
17.03.2023 20:22 22,3 °C 13,4 °C 48 % 52 % 1010,3 hPa 0,0 l/m² 16,9 km/h (3 Bft) SO 144 ° 0 min 0 W/m² 3,7 °C 8,6 °C 22,5 km/h (4 Bft)
17.03.2023 20:23 22,3 °C 13,4 °C 48 % 53 % 1010,2 hPa 0,0 l/m² 16,1 km/h (3 Bft) SO 146 ° 0 min 0 W/m² 4,0 °C 8,9 °C 22,5 km/h (4 Bft)
17.03.2023 20:24 22,3 °C 13,4 °C 48 % 52 % 1010,2 hPa 0,0 l/m² 22,1 km/h (4 Bft) S-SO 157 ° 0 min 0 W/m² 3,7 °C 7,1 °C 27,4 km/h (5 Bft)
17.03.2023 20:25 22,3 °C 13,4 °C 48 % 52 % 1010,2 hPa 0,0 l/m² 19,5 km/h (3 Bft) SO 138 ° 0 min 0 W/m² 3,7 °C 7,8 °C 24,1 km/h (4 Bft)
17.03.2023 20:27 22,3 °C 13,3 °C 48 % 52 % 1010,1 hPa 0,0 l/m² 17,2 km/h (3 Bft) SO 136 ° 0 min 0 W/m² 3,7 °C 8,4 °C 22,5 km/h (4 Bft)
17.03.2023 20:29 22,3 °C 13,3 °C 48 % 53 % 1010,1 hPa 0,0 l/m² 17,4 km/h (3 Bft) SO 130 ° 0 min 0 W/m² 3,9 °C 8,3 °C 22,5 km/h (4 Bft)
17.03.2023 20:30 22,3 °C 13,3 °C 48 % 53 % 1010,2 hPa 0,0 l/m² 16,7 km/h (3 Bft) S-SO 161 ° 0 min 0 W/m² 3,9 °C 8,5 °C 20,9 km/h (4 Bft)
17.03.2023 20:31 22,3 °C 13,3 °C 48 % 53 % 1010,2 hPa 0,0 l/m² 16,8 km/h (3 Bft) SO 134 ° 0 min 0 W/m² 3,9 °C 8,5 °C 27,4 km/h (5 Bft)
17.03.2023 20:32 22,4 °C 13,3 °C 48 % 53 % 1010,1 hPa 0,0 l/m² 19,5 km/h (3 Bft) SO 132 ° 0 min 0 W/m² 3,9 °C 7,7 °C 29,0 km/h (5 Bft)
17.03.2023 20:34 22,4 °C 13,2 °C 48 % 53 % 1010,2 hPa 0,0 l/m² 16,6 km/h (3 Bft) SO 143 ° 0 min 0 W/m² 3,8 °C 8,5 °C 24,1 km/h (4 Bft)
17.03.2023 20:36 22,4 °C 13,2 °C 48 % 53 % 1010,1 hPa 0,0 l/m² 15,8 km/h (3 Bft) SO 140 ° 0 min 0 W/m² 3,8 °C 8,7 °C 25,7 km/h (4 Bft)
17.03.2023 20:38 22,4 °C 13,1 °C 48 % 53 % 1010,1 hPa 0,0 l/m² 16,3 km/h (3 Bft) SO 130 ° 0 min 0 W/m² 3,7 °C 8,4 °C 24,1 km/h (4 Bft)
17.03.2023 20:40 22,4 °C 13,1 °C 48 % 54 % 1010,1 hPa 0,0 l/m² 15,3 km/h (3 Bft) SO 124 ° 0 min 0 W/m² 4,0 °C 8,8 °C 24,1 km/h (4 Bft)
17.03.2023 20:41 22,4 °C 13,1 °C 48 % 53 % 1010,1 hPa 0,0 l/m² 17,7 km/h (3 Bft) SO 128 ° 0 min 0 W/m² 3,7 °C 8,0 °C 22,5 km/h (4 Bft)
17.03.2023 20:42 22,4 °C 13,1 °C 48 % 53 % 1010,1 hPa 0,0 l/m² 16,4 km/h (3 Bft) SO 124 ° 0 min 0 W/m² 3,7 °C 8,4 °C 22,5 km/h (4 Bft)
17.03.2023 20:43 22,4 °C 13,1 °C 48 % 54 % 1010,2 hPa 0,0 l/m² 18,5 km/h (3 Bft) SO 128 ° 0 min 0 W/m² 4,0 °C 7,7 °C 24,1 km/h (4 Bft)
17.03.2023 20:45 22,4 °C 13,1 °C 48 % 53 % 1010,1 hPa 0,0 l/m² 16,3 km/h (3 Bft) SO 138 ° 0 min 0 W/m² 3,7 °C 8,4 °C 24,1 km/h (4 Bft)
17.03.2023 20:47 22,4 °C 13,1 °C 48 % 53 % 1010,1 hPa 0,0 l/m² 15,8 km/h (3 Bft) SO 132 ° 0 min 0 W/m² 3,7 °C 8,6 °C 24,1 km/h (4 Bft)
17.03.2023 20:49 22,4 °C 13,0 °C 49 % 54 % 1010,1 hPa 0,0 l/m² 15,6 km/h (3 Bft) SO 142 ° 0 min 0 W/m² 3,9 °C 8,6 °C 20,9 km/h (4 Bft)
17.03.2023 20:50 22,4 °C 12,9 °C 49 % 55 % 1010,1 hPa 0,0 l/m² 13,7 km/h (3 Bft) SO 142 ° 0 min 0 W/m² 4,1 °C 9,1 °C 17,7 km/h (3 Bft)
17.03.2023 20:51 22,4 °C 12,8 °C 49 % 54 % 1010,1 hPa 0,0 l/m² 14,7 km/h (3 Bft) SO 124 ° 0 min 0 W/m² 3,7 °C 8,6 °C 17,7 km/h (3 Bft)
17.03.2023 20:52 22,4 °C 12,8 °C 48 % 54 % 1010,2 hPa 0,0 l/m² 19,1 km/h (3 Bft) SO 131 ° 0 min 0 W/m² 3,7 °C 7,2 °C 22,5 km/h (4 Bft)
17.03.2023 20:54 22,4 °C 12,8 °C 49 % 54 % 1010,2 hPa 0,0 l/m² 17,6 km/h (3 Bft) SO 135 ° 0 min 0 W/m² 3,7 °C 7,6 °C 22,5 km/h (4 Bft)
17.03.2023 20:56 22,5 °C 12,8 °C 49 % 54 % 1010,3 hPa 0,0 l/m² 13,4 km/h (3 Bft) SO 126 ° 0 min 0 W/m² 3,7 °C 9,1 °C 17,7 km/h (3 Bft)
17.03.2023 20:58 22,4 °C 12,8 °C 49 % 55 % 1010,2 hPa 0,0 l/m² 14,9 km/h (3 Bft) S-SO 154 ° 0 min 0 W/m² 4,0 °C 8,6 °C 22,5 km/h (4 Bft)
17.03.2023 21:00 22,4 °C 12,7 °C 49 % 55 % 1010,3 hPa 0,0 l/m² 14,8 km/h (3 Bft) O-SO 113 ° 0 min 0 W/m² 3,9 °C 8,5 °C 22,5 km/h (4 Bft)
17.03.2023 21:01 22,5 °C 12,7 °C 49 % 55 % 1010,3 hPa 0,0 l/m² 17,0 km/h (3 Bft) S-SO 148 ° 0 min 0 W/m² 3,9 °C 7,7 °C 22,5 km/h (4 Bft)
17.03.2023 21:02 22,5 °C 12,7 °C 49 % 55 % 1010,3 hPa 0,0 l/m² 16,2 km/h (3 Bft) SO 146 ° 0 min 0 W/m² 3,9 °C 8,0 °C 20,9 km/h (4 Bft)
17.03.2023 21:03 22,5 °C 12,7 °C 49 % 55 % 1010,2 hPa 0,0 l/m² 12,9 km/h (3 Bft) SO 145 ° 0 min 0 W/m² 3,9 °C 9,2 °C 17,7 km/h (3 Bft)
17.03.2023 21:05 22,5 °C 12,7 °C 49 % 55 % 1010,3 hPa 0,0 l/m² 18,1 km/h (3 Bft) S-SO 153 ° 0 min 0 W/m² 3,9 °C 7,3 °C 24,1 km/h (4 Bft)
17.03.2023 21:07 22,5 °C 12,7 °C 49 % 55 % 1010,3 hPa 0,0 l/m² 18,5 km/h (3 Bft) SO 142 ° 0 min 0 W/m² 3,9 °C 7,2 °C 24,1 km/h (4 Bft)
17.03.2023 21:09 22,5 °C 12,7 °C 49 % 55 % 1010,3 hPa 0,0 l/m² 15,8 km/h (3 Bft) SO 138 ° 0 min 0 W/m² 3,9 °C 8,1 °C 20,9 km/h (4 Bft)
17.03.2023 21:10 22,5 °C 12,7 °C 49 % 55 % 1010,2 hPa 0,0 l/m² 19,0 km/h (3 Bft) S 171 ° 0 min 0 W/m² 3,9 °C 7,1 °C 24,1 km/h (4 Bft)
17.03.2023 21:11 22,5 °C 12,7 °C 49 % 55 % 1010,2 hPa 0,0 l/m² 15,0 km/h (3 Bft) SO 142 ° 0 min 0 W/m² 3,9 °C 8,4 °C 19,3 km/h (3 Bft)
17.03.2023 21:12 22,6 °C 12,6 °C 49 % 55 % 1010,3 hPa 0,0 l/m² 14,7 km/h (3 Bft) S-SO 148 ° 0 min 0 W/m² 3,8 °C 8,4 °C 20,9 km/h (4 Bft)
17.03.2023 21:14 22,6 °C 12,6 °C 49 % 55 % 1010,3 hPa 0,0 l/m² 17,3 km/h (3 Bft) S-SO 150 ° 0 min 0 W/m² 3,8 °C 7,5 °C 20,9 km/h (4 Bft)
17.03.2023 21:16 22,6 °C 12,6 °C 49 % 55 % 1010,3 hPa 0,0 l/m² 15,6 km/h (3 Bft) SO 144 ° 0 min 0 W/m² 3,8 °C 8,1 °C 20,9 km/h (4 Bft)
17.03.2023 21:18 22,6 °C 12,6 °C 49 % 55 % 1010,3 hPa 0,0 l/m² 15,8 km/h (3 Bft) S-SO 159 ° 0 min 0 W/m² 3,8 °C 8,0 °C 20,9 km/h (4 Bft)
17.03.2023 21:20 22,6 °C 12,5 °C 49 % 56 % 1010,3 hPa 0,0 l/m² 14,5 km/h (3 Bft) S-SO 147 ° 0 min 0 W/m² 4,0 °C 8,4 °C 19,3 km/h (3 Bft)
17.03.2023 21:21 22,6 °C 12,5 °C 49 % 56 % 1010,4 hPa 0,0 l/m² 13,3 km/h (3 Bft) S-SO 153 ° 0 min 0 W/m² 4,0 °C 8,8 °C 17,7 km/h (3 Bft)
17.03.2023 21:22 22,6 °C 12,4 °C 49 % 56 % 1010,4 hPa 0,0 l/m² 13,2 km/h (3 Bft) SO 143 ° 0 min 0 W/m² 3,9 °C 8,8 °C 17,7 km/h (3 Bft)
17.03.2023 21:23 22,6 °C 12,4 °C 49 % 56 % 1010,4 hPa 0,0 l/m² 13,0 km/h (3 Bft) S-SO 160 ° 0 min 0 W/m² 3,9 °C 8,8 °C 16,1 km/h (3 Bft)
17.03.2023 21:25 22,6 °C 12,4 °C 49 % 56 % 1010,4 hPa 0,0 l/m² 15,1 km/h (3 Bft) S-SO 157 ° 0 min 0 W/m² 3,9 °C 8,0 °C 20,9 km/h (4 Bft)
17.03.2023 21:27 22,6 °C 12,4 °C 49 % 56 % 1010,5 hPa 0,0 l/m² 13,9 km/h (3 Bft) SO 144 ° 0 min 0 W/m² 3,9 °C 8,5 °C 19,3 km/h (3 Bft)
17.03.2023 21:29 22,6 °C 12,4 °C 49 % 56 % 1010,4 hPa 0,0 l/m² 9,6 km/h (2 Bft) S-SO 155 ° 0 min 0 W/m² 3,9 °C 10,5 °C 16,1 km/h (3 Bft)
17.03.2023 21:30 22,6 °C 12,3 °C 49 % 56 % 1010,4 hPa 0,0 l/m² 13,5 km/h (3 Bft) S-SO 147 ° 0 min 0 W/m² 3,8 °C 8,5 °C 17,7 km/h (3 Bft)
17.03.2023 21:31 22,6 °C 12,3 °C 49 % 56 % 1010,4 hPa 0,0 l/m² 13,4 km/h (3 Bft) SO 138 ° 0 min 0 W/m² 3,8 °C 8,6 °C 16,1 km/h (3 Bft)
17.03.2023 21:32 22,6 °C 12,3 °C 49 % 56 % 1010,5 hPa 0,0 l/m² 9,2 km/h (2 Bft) S-SO 157 ° 0 min 0 W/m² 3,8 °C 10,6 °C 12,9 km/h (3 Bft)
17.03.2023 21:34 22,6 °C 12,3 °C 49 % 56 % 1010,5 hPa 0,0 l/m² 8,0 km/h (2 Bft) S-SO 157 ° 0 min 0 W/m² 3,8 °C 11,3 °C 11,3 km/h (2 Bft)
17.03.2023 21:36 22,6 °C 12,3 °C 49 % 57 % 1010,5 hPa 0,0 l/m² 6,6 km/h (2 Bft) S-SO 165 ° 0 min 0 W/m² 4,0 °C 12,2 °C 9,7 km/h (2 Bft)
17.03.2023 21:38 22,6 °C 12,2 °C 49 % 58 % 1010,5 hPa 0,0 l/m² 3,8 km/h (1 Bft) S-SO 165 ° 0 min 0 W/m² 4,2 °C 12,2 °C 8,0 km/h (2 Bft)
17.03.2023 21:40 22,6 °C 12,1 °C 49 % 58 % 1010,6 hPa 0,0 l/m² 7,0 km/h (2 Bft) S-SO 162 ° 0 min 0 W/m² 4,1 °C 11,7 °C 9,7 km/h (2 Bft)
17.03.2023 21:41 22,6 °C 12,0 °C 49 % 57 % 1010,6 hPa 0,0 l/m² 5,2 km/h (1 Bft) S-SO 163 ° 0 min 0 W/m² 3,8 °C 12,0 °C 8,0 km/h (2 Bft)
17.03.2023 21:42 22,6 °C 12,0 °C 49 % 57 % 1010,6 hPa 0,0 l/m² 5,8 km/h (2 Bft) S-SO 161 ° 0 min 0 W/m² 3,8 °C 12,0 °C 9,7 km/h (2 Bft)
17.03.2023 21:43 22,6 °C 12,0 °C 49 % 57 % 1010,5 hPa 0,0 l/m² 7,8 km/h (2 Bft) S-SO 160 ° 0 min 0 W/m² 3,8 °C 11,1 °C 9,7 km/h (2 Bft)
17.03.2023 21:46 22,6 °C 11,9 °C 49 % 58 % 1010,6 hPa 0,0 l/m² 6,9 km/h (2 Bft) S 170 ° 0 min 0 W/m² 3,9 °C 11,6 °C 9,7 km/h (2 Bft)
17.03.2023 21:48 22,6 °C 11,8 °C 49 % 58 % 1010,6 hPa 0,0 l/m² 5,0 km/h (1 Bft) S 170 ° 0 min 0 W/m² 3,8 °C 11,8 °C 8,0 km/h (2 Bft)
17.03.2023 21:50 22,6 °C 11,8 °C 49 % 59 % 1010,6 hPa 0,0 l/m² 2,5 km/h (1 Bft) S 170 ° 0 min 0 W/m² 4,1 °C 11,8 °C 6,4 km/h (2 Bft)
17.03.2023 21:51 22,6 °C 11,8 °C 49 % 58 % 1010,5 hPa 0,0 l/m² 5,9 km/h (2 Bft) S-SO 157 ° 0 min 0 W/m² 3,8 °C 11,8 °C 9,7 km/h (2 Bft)
17.03.2023 21:52 22,6 °C 11,8 °C 49 % 58 % 1010,5 hPa 0,0 l/m² 5,7 km/h (2 Bft) S-SO 153 ° 0 min 0 W/m² 3,8 °C 11,8 °C 6,4 km/h (2 Bft)
17.03.2023 21:53 22,6 °C 11,8 °C 49 % 58 % 1010,5 hPa 0,0 l/m² 4,3 km/h (1 Bft) S-SO 153 ° 0 min 0 W/m² 3,8 °C 11,8 °C 4,8 km/h (1 Bft)
17.03.2023 21:55 22,6 °C 11,7 °C 49 % 59 % 1010,6 hPa 0,0 l/m² 2,6 km/h (1 Bft) S-SO 153 ° 0 min 0 W/m² 4,0 °C 11,7 °C 4,8 km/h (1 Bft)
17.03.2023 21:57 22,6 °C 11,7 °C 49 % 59 % 1010,6 hPa 0,0 l/m² 2,6 km/h (1 Bft) S-SO 153 ° 0 min 0 W/m² 4,0 °C 11,7 °C 6,4 km/h (2 Bft)
17.03.2023 21:59 22,6 °C 11,7 °C 49 % 58 % 1010,6 hPa 0,0 l/m² 5,5 km/h (2 Bft) SO 127 ° 0 min 0 W/m² 3,7 °C 11,7 °C 11,3 km/h (2 Bft)
17.03.2023 22:00 22,6 °C 11,7 °C 49 % 58 % 1010,5 hPa 0,0 l/m² 3,6 km/h (1 Bft) SO 128 ° 0 min 0 W/m² 3,7 °C 11,7 °C 4,8 km/h (1 Bft)
17.03.2023 22:01 22,6 °C 11,7 °C 49 % 58 % 1010,5 hPa 0,0 l/m² 3,1 km/h (1 Bft) O-SO 113 ° 0 min 0 W/m² 3,7 °C 11,7 °C 9,7 km/h (2 Bft)
17.03.2023 22:02 22,6 °C 11,7 °C 49 % 59 % 1010,5 hPa 0,0 l/m² 6,8 km/h (2 Bft) O-SO 113 ° 0 min 0 W/m² 4,0 °C 11,4 °C 12,9 km/h (3 Bft)
17.03.2023 22:04 22,6 °C 11,7 °C 49 % 58 % 1010,5 hPa 0,0 l/m² 7,1 km/h (2 Bft) SO 125 ° 0 min 0 W/m² 3,7 °C 11,2 °C 14,5 km/h (3 Bft)
17.03.2023 22:06 22,6 °C 11,6 °C 49 % 58 % 1010,5 hPa 0,0 l/m² 6,4 km/h (2 Bft) O-SO 123 ° 0 min 0 W/m² 3,6 °C 11,6 °C 9,7 km/h (2 Bft)
17.03.2023 22:08 22,6 °C 11,6 °C 49 % 58 % 1010,5 hPa 0,0 l/m² 7,2 km/h (2 Bft) SO 135 ° 0 min 0 W/m² 3,6 °C 11,1 °C 12,9 km/h (3 Bft)
17.03.2023 22:10 22,6 °C 11,6 °C 49 % 59 % 1010,5 hPa 0,0 l/m² 7,7 km/h (2 Bft) O-SO 119 ° 0 min 0 W/m² 3,9 °C 10,7 °C 11,3 km/h (2 Bft)
17.03.2023 22:11 22,6 °C 11,6 °C 49 % 58 % 1010,5 hPa 0,0 l/m² 11,3 km/h (2 Bft) SO 141 ° 0 min 0 W/m² 3,6 °C 8,7 °C 14,5 km/h (3 Bft)
17.03.2023 22:12 22,6 °C 11,6 °C 49 % 58 % 1010,5 hPa 0,0 l/m² 8,0 km/h (2 Bft) O-SO 118 ° 0 min 0 W/m² 3,6 °C 10,5 °C 11,3 km/h (2 Bft)
17.03.2023 22:13 22,6 °C 11,6 °C 49 % 58 % 1010,5 hPa 0,0 l/m² 6,4 km/h (2 Bft) SO 130 ° 0 min 0 W/m² 3,6 °C 11,6 °C 8,0 km/h (2 Bft)
17.03.2023 22:15 22,6 °C 11,6 °C 49 % 58 % 1010,5 hPa 0,0 l/m² 7,0 km/h (2 Bft) O-SO 113 ° 0 min 0 W/m² 3,6 °C 11,2 °C 11,3 km/h (2 Bft)
17.03.2023 22:17 22,6 °C 11,6 °C 49 % 59 % 1010,4 hPa 0,0 l/m² 8,4 km/h (2 Bft) SO 143 ° 0 min 0 W/m² 3,9 °C 10,3 °C 11,3 km/h (2 Bft)
17.03.2023 22:18 22,6 °C 11,6 °C 49 % 58 % 1010,4 hPa 0,0 l/m² 8,0 km/h (2 Bft) S-SO 148 ° 0 min 0 W/m² 3,6 °C 10,5 °C 14,5 km/h (3 Bft)
17.03.2023 22:19 22,6 °C 11,7 °C 49 % 58 % 1010,4 hPa 0,0 l/m² 7,3 km/h (2 Bft) SO 129 ° 0 min 0 W/m² 3,7 °C 11,1 °C 11,3 km/h (2 Bft)
17.03.2023 22:22 22,6 °C 11,7 °C 49 % 58 % 1010,3 hPa 0,0 l/m² 9,7 km/h (2 Bft) S-SO 155 ° 0 min 0 W/m² 3,7 °C 9,6 °C 16,1 km/h (3 Bft)
17.03.2023 22:23 22,6 °C 11,7 °C 49 % 58 % 1010,3 hPa 0,0 l/m² 9,8 km/h (2 Bft) SO 145 ° 0 min 0 W/m² 3,7 °C 9,6 °C 14,5 km/h (3 Bft)
17.03.2023 22:24 22,6 °C 11,7 °C 49 % 58 % 1010,3 hPa 0,0 l/m² 15,3 km/h (3 Bft) SO 132 ° 0 min 0 W/m² 3,7 °C 7,1 °C 17,7 km/h (3 Bft)
17.03.2023 22:25 22,6 °C 11,7 °C 49 % 57 % 1010,3 hPa 0,0 l/m² 13,3 km/h (3 Bft) SO 141 ° 0 min 0 W/m² 3,5 °C 7,9 °C 16,1 km/h (3 Bft)
17.03.2023 22:27 22,6 °C 11,7 °C 49 % 57 % 1010,2 hPa 0,0 l/m² 10,4 km/h (2 Bft) SO 142 ° 0 min 0 W/m² 3,5 °C 9,3 °C 16,1 km/h (3 Bft)
17.03.2023 22:28 22,6 °C 11,7 °C 49 % 57 % 1010,3 hPa 0,0 l/m² 11,8 km/h (2 Bft) S-SO 155 ° 0 min 0 W/m² 3,5 °C 8,6 °C 16,1 km/h (3 Bft)
17.03.2023 22:29 22,6 °C 11,7 °C 49 % 57 % 1010,3 hPa 0,0 l/m² 12,7 km/h (3 Bft) SO 142 ° 0 min 0 W/m² 3,5 °C 8,2 °C 16,1 km/h (3 Bft)
17.03.2023 22:32 22,6 °C 11,8 °C 48 % 57 % 1010,3 hPa 0,0 l/m² 10,7 km/h (2 Bft) S-SO 165 ° 0 min 0 W/m² 3,6 °C 9,2 °C 20,9 km/h (4 Bft)
17.03.2023 22:33 22,6 °C 11,7 °C 48 % 57 % 1010,3 hPa 0,0 l/m² 14,4 km/h (3 Bft) SO 142 ° 0 min 0 W/m² 3,5 °C 7,4 °C 19,3 km/h (3 Bft)
17.03.2023 22:34 22,6 °C 11,7 °C 48 % 57 % 1010,3 hPa 0,0 l/m² 10,9 km/h (2 Bft) S-SO 155 ° 0 min 0 W/m² 3,5 °C 9,0 °C 17,7 km/h (3 Bft)
17.03.2023 22:35 22,6 °C 11,7 °C 48 % 57 % 1010,3 hPa 0,0 l/m² 8,4 km/h (2 Bft) SO 142 ° 0 min 0 W/m² 3,5 °C 10,4 °C 12,9 km/h (3 Bft)
17.03.2023 22:37 22,6 °C 11,7 °C 48 % 58 % 1010,4 hPa 0,0 l/m² 10,6 km/h (2 Bft) S-SO 152 ° 0 min 0 W/m² 3,7 °C 9,2 °C 17,7 km/h (3 Bft)
17.03.2023 22:39 22,6 °C 11,7 °C 48 % 57 % 1010,4 hPa 0,0 l/m² 14,0 km/h (3 Bft) S-SO 149 ° 0 min 0 W/m² 3,5 °C 7,6 °C 20,9 km/h (4 Bft)
17.03.2023 22:40 22,5 °C 11,7 °C 48 % 57 % 1010,4 hPa 0,0 l/m² 14,4 km/h (3 Bft) S-SO 159 ° 0 min 0 W/m² 3,5 °C 7,4 °C 19,3 km/h (3 Bft)
17.03.2023 22:41 22,5 °C 11,7 °C 48 % 58 % 1010,4 hPa 0,0 l/m² 12,6 km/h (3 Bft) S-SO 155 ° 0 min 0 W/m² 3,7 °C 8,2 °C 16,1 km/h (3 Bft)
17.03.2023 22:42 22,6 °C 11,7 °C 48 % 58 % 1010,4 hPa 0,0 l/m² 12,9 km/h (3 Bft) S-SO 153 ° 0 min 0 W/m² 3,7 °C 8,1 °C 17,7 km/h (3 Bft)
17.03.2023 22:44 22,5 °C 11,6 °C 48 % 58 % 1010,4 hPa 0,0 l/m² 12,8 km/h (3 Bft) S-SO 150 ° 0 min 0 W/m² 3,6 °C 8,0 °C 17,7 km/h (3 Bft)
17.03.2023 22:46 22,5 °C 11,6 °C 48 % 58 % 1010,5 hPa 0,0 l/m² 8,2 km/h (2 Bft) SO 141 ° 0 min 0 W/m² 3,6 °C 10,4 °C 12,9 km/h (3 Bft)
17.03.2023 22:48 22,5 °C 11,5 °C 48 % 59 % 1010,4 hPa 0,0 l/m² 9,6 km/h (2 Bft) S-SO 159 ° 0 min 0 W/m² 3,8 °C 9,5 °C 17,7 km/h (3 Bft)
17.03.2023 22:50 22,5 °C 11,5 °C 48 % 59 % 1010,4 hPa 0,0 l/m² 10,8 km/h (2 Bft) SO 133 ° 0 min 0 W/m² 3,8 °C 8,8 °C 16,1 km/h (3 Bft)
17.03.2023 22:51 22,4 °C 11,4 °C 48 % 59 % 1010,4 hPa 0,0 l/m² 13,6 km/h (3 Bft) S-SO 150 ° 0 min 0 W/m² 3,7 °C 7,4 °C 17,7 km/h (3 Bft)
17.03.2023 22:52 22,4 °C 11,4 °C 48 % 59 % 1010,4 hPa 0,0 l/m² 10,6 km/h (2 Bft) S-SO 155 ° 0 min 0 W/m² 3,7 °C 8,8 °C 14,5 km/h (3 Bft)
17.03.2023 22:53 22,4 °C 11,4 °C 48 % 59 % 1010,5 hPa 0,0 l/m² 9,7 km/h (2 Bft) SO 140 ° 0 min 0 W/m² 3,7 °C 9,3 °C 14,5 km/h (3 Bft)
17.03.2023 22:55 22,4 °C 11,4 °C 48 % 59 % 1010,6 hPa 0,0 l/m² 12,1 km/h (2 Bft) S-SO 147 ° 0 min 0 W/m² 3,7 °C 8,1 °C 16,1 km/h (3 Bft)
17.03.2023 22:57 22,4 °C 11,3 °C 48 % 59 % 1010,4 hPa 0,0 l/m² 10,5 km/h (2 Bft) SO 144 ° 0 min 0 W/m² 3,6 °C 8,8 °C 16,1 km/h (3 Bft)
17.03.2023 22:59 22,4 °C 11,3 °C 48 % 59 % 1010,4 hPa 0,0 l/m² 13,5 km/h (3 Bft) S-SO 156 ° 0 min 0 W/m² 3,6 °C 7,3 °C 17,7 km/h (3 Bft)
17.03.2023 23:00 22,4 °C 11,3 °C 48 % 60 % 1010,4 hPa 0,0 l/m² 9,8 km/h (2 Bft) SO 130 ° 0 min 0 W/m² 3,8 °C 9,1 °C 14,5 km/h (3 Bft)
17.03.2023 23:01 22,4 °C 11,3 °C 48 % 59 % 1010,4 hPa 0,0 l/m² 11,9 km/h (2 Bft) S-SO 151 ° 0 min 0 W/m² 3,6 °C 8,1 °C 17,7 km/h (3 Bft)
17.03.2023 23:02 22,4 °C 11,3 °C 48 % 59 % 1010,4 hPa 0,0 l/m² 11,0 km/h (2 Bft) S-SO 161 ° 0 min 0 W/m² 3,6 °C 8,5 °C 16,1 km/h (3 Bft)
17.03.2023 23:04 22,4 °C 11,3 °C 48 % 59 % 1010,4 hPa 0,0 l/m² 10,3 km/h (2 Bft) S-SO 152 ° 0 min 0 W/m² 3,6 °C 8,9 °C 16,1 km/h (3 Bft)
17.03.2023 23:06 22,4 °C 11,3 °C 48 % 59 % 1010,4 hPa 0,0 l/m² 10,6 km/h (2 Bft) SO 142 ° 0 min 0 W/m² 3,6 °C 8,7 °C 14,5 km/h (3 Bft)
17.03.2023 23:08 22,4 °C 11,2 °C 48 % 60 % 1010,4 hPa 0,0 l/m² 10,4 km/h (2 Bft) S-SO 158 ° 0 min 0 W/m² 3,7 °C 8,7 °C 20,9 km/h (4 Bft)
17.03.2023 23:10 22,4 °C 11,2 °C 48 % 60 % 1010,5 hPa 0,0 l/m² 11,8 km/h (2 Bft) SO 129 ° 0 min 0 W/m² 3,7 °C 8,0 °C 16,1 km/h (3 Bft)
17.03.2023 23:11 22,4 °C 11,1 °C 48 % 60 % 1010,4 hPa 0,0 l/m² 13,5 km/h (3 Bft) SO 128 ° 0 min 0 W/m² 3,6 °C 7,1 °C 19,3 km/h (3 Bft)
17.03.2023 23:12 22,4 °C 11,2 °C 48 % 60 % 1010,4 hPa 0,0 l/m² 14,1 km/h (3 Bft) SO 143 ° 0 min 0 W/m² 3,7 °C 7,0 °C 16,1 km/h (3 Bft)
17.03.2023 23:13 22,4 °C 11,2 °C 48 % 60 % 1010,4 hPa 0,0 l/m² 13,3 km/h (3 Bft) S-SO 150 ° 0 min 0 W/m² 3,7 °C 7,3 °C 17,7 km/h (3 Bft)
17.03.2023 23:15 22,3 °C 11,2 °C 48 % 60 % 1010,3 hPa 0,0 l/m² 10,9 km/h (2 Bft) SO 145 ° 0 min 0 W/m² 3,7 °C 8,4 °C 16,1 km/h (3 Bft)
17.03.2023 23:16 22,3 °C 11,1 °C 48 % 60 % 1010,4 hPa 0,0 l/m² 8,0 km/h (2 Bft) SO 135 ° 0 min 0 W/m² 3,6 °C 10,0 °C 11,3 km/h (2 Bft)
17.03.2023 23:17 22,3 °C 11,1 °C 48 % 60 % 1010,3 hPa 0,0 l/m² 12,9 km/h (3 Bft) SO 135 ° 0 min 0 W/m² 3,6 °C 7,4 °C 19,3 km/h (3 Bft)
17.03.2023 23:18 22,3 °C 11,1 °C 48 % 60 % 1010,2 hPa 0,0 l/m² 12,9 km/h (3 Bft) SO 135 ° 0 min 0 W/m² 3,6 °C 7,4 °C 17,7 km/h (3 Bft)
17.03.2023 23:19 22,3 °C 11,1 °C 48 % 60 % 1010,2 hPa 0,0 l/m² 16,1 km/h (3 Bft) SO 135 ° 0 min 0 W/m² 3,6 °C 6,0 °C 22,5 km/h (4 Bft)
17.03.2023 23:20 22,3 °C 11,2 °C 48 % 60 % 1010,2 hPa 0,0 l/m² 9,7 km/h (2 Bft) SO 135 ° 0 min 0 W/m² 3,7 °C 9,1 °C 14,5 km/h (3 Bft)
17.03.2023 23:21 22,3 °C 11,1 °C 48 % 60 % 1010,3 hPa 0,0 l/m² 14,5 km/h (3 Bft) SO 135 ° 0 min 0 W/m² 3,6 °C 6,7 °C 17,7 km/h (3 Bft)
17.03.2023 23:26 22,3 °C 11,2 °C 48 % 60 % 1010,3 hPa 0,0 l/m² 17,7 km/h (3 Bft) SO 138 ° 0 min 0 W/m² 3,7 °C 5,6 °C 19,3 km/h (3 Bft)
17.03.2023 23:28 22,3 °C 11,2 °C 48 % 60 % 1010,4 hPa 0,0 l/m² 13,9 km/h (3 Bft) SO 140 ° 0 min 0 W/m² 3,7 °C 7,0 °C 20,9 km/h (4 Bft)
17.03.2023 23:29 22,3 °C 11,1 °C 48 % 60 % 1010,4 hPa 0,0 l/m² 10,0 km/h (2 Bft) SO 143 ° 0 min 0 W/m² 3,6 °C 8,8 °C 12,9 km/h (3 Bft)
17.03.2023 23:31 22,3 °C 11,1 °C 48 % 60 % 1010,3 hPa 0,0 l/m² 13,3 km/h (3 Bft) SO 127 ° 0 min 0 W/m² 3,6 °C 7,2 °C 19,3 km/h (3 Bft)
17.03.2023 23:32 22,3 °C 11,1 °C 48 % 60 % 1010,3 hPa 0,0 l/m² 14,2 km/h (3 Bft) S-SO 153 ° 0 min 0 W/m² 3,6 °C 6,8 °C 19,3 km/h (3 Bft)
17.03.2023 23:34 22,3 °C 11,0 °C 48 % 60 % 1010,4 hPa 0,0 l/m² 11,7 km/h (2 Bft) S-SO 148 ° 0 min 0 W/m² 3,5 °C 7,8 °C 16,1 km/h (3 Bft)
17.03.2023 23:36 22,3 °C 10,9 °C 48 % 61 % 1010,4 hPa 0,0 l/m² 9,4 km/h (2 Bft) S-SO 148 ° 0 min 0 W/m² 3,7 °C 8,9 °C 16,1 km/h (3 Bft)
17.03.2023 23:37 22,3 °C 10,9 °C 48 % 61 % 1010,3 hPa 0,0 l/m² 11,5 km/h (2 Bft) S-SO 148 ° 0 min 0 W/m² 3,7 °C 7,8 °C 20,9 km/h (4 Bft)
17.03.2023 23:38 22,3 °C 10,9 °C 48 % 61 % 1010,3 hPa 0,0 l/m² 10,0 km/h (2 Bft) SO 146 ° 0 min 0 W/m² 3,7 °C 8,6 °C 12,9 km/h (3 Bft)
17.03.2023 23:40 22,3 °C 10,8 °C 48 % 61 % 1010,5 hPa 0,0 l/m² 11,7 km/h (2 Bft) SO 124 ° 0 min 0 W/m² 3,6 °C 7,6 °C 17,7 km/h (3 Bft)
17.03.2023 23:41 22,3 °C 10,8 °C 48 % 61 % 1010,4 hPa 0,0 l/m² 11,4 km/h (2 Bft) O-SO 123 ° 0 min 0 W/m² 3,6 °C 7,7 °C 14,5 km/h (3 Bft)
17.03.2023 23:42 22,3 °C 10,8 °C 48 % 61 % 1010,4 hPa 0,0 l/m² 13,3 km/h (3 Bft) SO 136 ° 0 min 0 W/m² 3,6 °C 6,8 °C 19,3 km/h (3 Bft)
17.03.2023 23:44 22,2 °C 10,8 °C 48 % 61 % 1010,5 hPa 0,0 l/m² 9,9 km/h (2 Bft) S-SO 148 ° 0 min 0 W/m² 3,6 °C 8,5 °C 16,1 km/h (3 Bft)
17.03.2023 23:45 22,3 °C 10,7 °C 48 % 61 % 1010,4 hPa 0,0 l/m² 10,5 km/h (2 Bft) S-SO 155 ° 0 min 0 W/m² 3,5 °C 8,1 °C 14,5 km/h (3 Bft)
17.03.2023 23:47 22,3 °C 10,8 °C 48 % 61 % 1010,4 hPa 0,0 l/m² 10,7 km/h (2 Bft) S-SO 148 ° 0 min 0 W/m² 3,6 °C 8,1 °C 16,1 km/h (3 Bft)
17.03.2023 23:49 22,3 °C 10,7 °C 48 % 61 % 1010,5 hPa 0,0 l/m² 10,0 km/h (2 Bft) SO 134 ° 0 min 0 W/m² 3,5 °C 8,4 °C 14,5 km/h (3 Bft)
17.03.2023 23:50 22,2 °C 10,7 °C 48 % 61 % 1010,5 hPa 0,0 l/m² 9,8 km/h (2 Bft) SO 132 ° 0 min 0 W/m² 3,5 °C 8,5 °C 16,1 km/h (3 Bft)
17.03.2023 23:51 22,2 °C 10,8 °C 48 % 61 % 1010,4 hPa 0,0 l/m² 9,3 km/h (2 Bft) S-SO 150 ° 0 min 0 W/m² 3,6 °C 8,9 °C 12,9 km/h (3 Bft)
17.03.2023 23:52 22,2 °C 10,7 °C 48 % 61 % 1010,4 hPa 0,0 l/m² 9,0 km/h (2 Bft) SO 130 ° 0 min 0 W/m² 3,5 °C 9,0 °C 12,9 km/h (3 Bft)
17.03.2023 23:54 22,2 °C 10,7 °C 48 % 61 % 1010,4 hPa 0,0 l/m² 9,1 km/h (2 Bft) SO 138 ° 0 min 0 W/m² 3,5 °C 8,9 °C 14,5 km/h (3 Bft)
17.03.2023 23:55 22,2 °C 10,7 °C 48 % 61 % 1010,4 hPa 0,0 l/m² 7,5 km/h (2 Bft) SO 137 ° 0 min 0 W/m² 3,5 °C 9,9 °C 11,3 km/h (2 Bft)
17.03.2023 23:57 22,2 °C 10,6 °C 48 % 62 % 1010,4 hPa 0,0 l/m² 6,8 km/h (2 Bft) S-SO 149 ° 0 min 0 W/m² 3,6 °C 10,3 °C 11,3 km/h (2 Bft)
17.03.2023 23:59 22,2 °C 10,6 °C 48 % 62 % 1010,4 hPa 0,0 l/m² 6,6 km/h (2 Bft) SO 142 ° 0 min 0 W/m² 3,6 °C 10,5 °C 12,9 km/h (3 Bft)
_ Min-Zeit 05:54 03:41 09:23 14:47 18:13 - 21:50 - - - - 06:45 06:53 22:00
Minimum _ 21,7 °C 3,3 °C 39 % 43 % 1009,7 hPa - 2,5 km/h (1 Bft) - - - - -1,3 °C -3,5 °C 4,8 km/h (1 Bft)
_ Max-Zeit 11:23 16:04 06:50 03:42 00:01 23:59 13:22 - - 11:36 11:12 15:42 15:41 20:15
Maximum _ 23,3 °C 15,6 °C 50 % 74 % 1016,9 hPa 0,0 l/m² 23,0 km/h
SO (4 Bft)
- - 3 min 729 W/m² 5,1 °C 15,5 °C 30,6 km/h
SO (5 Bft)
Durchschnitt _ 22,3 °C 9,9 °C 46 % 58 % 1012,6 hPa #0,0 l/m² 12,9 km/h (3 Bft) O-SO - #9:57 h 139 W/m² 1,9 °C 6,1 °C 17,3 km/h (3 Bft)
© 2009 Mathias Hoßbach